[[{"header":{"parameterUnit":"m.s-1","parameterCategory":1,"la1":30.6,"la2":28.766,"lo1":-90.7593,"lo2":-88.6598,"dx":0.0162,"dy":0.0183,"nx":116,"ny":114,"refTime":"2023-02-09T06:00:00:Z","depth":0,"parameterNumber":2,"parameterNumberName":"U-component_of_WINDS"},"data":[0.0,0.0,0.0,0.0,0.0,0.0,0.0,0.0,0.0,0.0,0.0,0.0,0.0,0.0,0.0,0.0,0.0,0.0,0.0,0.0,0.0,0.0,0.0,0.0,0.0,0.0,0.0,0.0,0.0,0.0,0.0,0.0,0.0,0.0,0.0,0.0,0.0,0.0,0.0,0.0,0.0,0.0,0.0,0.0,0.0,0.0,0.0,0.0,0.0,0.0,0.0,0.0,0.0,0.0,0.0,0.0,0.0,0.0,0.0,0.0,0.0,0.0,0.0,0.0,0.0,0.0,0.0,0.0,0.0,0.0,0.0,0.0,0.0,0.0,0.0,0.0,0.0,0.0,0.0,0.0,0.0,0.0,0.0,0.0,0.0,0.0,0.0,0.0,0.0,0.0,0.0,0.0,0.0,0.0,0.0,0.0,0.0,0.0,0.0,0.0,0.0,0.0,0.0,0.0,0.0,0.0,0.0,0.0,0.0,0.0,0.0,0.0,0.0,0.0,0.0,0.0,0.0,0.0,0.0,0.0,0.0,0.0,0.0,0.0,0.0,0.0,0.0,0.0,0.0,0.0,0.0,0.0,0.0,0.0,0.0,0.0,0.0,0.0,0.0,0.0,0.0,0.0,0.0,0.0,0.0,0.0,0.0,0.0,0.0,0.0,0.0,0.0,0.0,0.0,0.0,0.0,0.0,0.0,0.0,0.0,0.0,0.0,0.0,0.0,0.0,0.0,0.0,0.0,0.0,0.0,0.0,0.0,0.0,0.0,0.0,0.0,0.0,0.0,0.0,0.0,0.0,0.0,0.0,0.0,0.0,0.0,0.0,0.0,0.0,0.0,0.0,0.0,0.0,0.0,0.0,0.0,0.0,0.0,0.0,0.0,0.0,0.0,0.0,0.0,0.0,0.0,0.0,0.0,0.0,0.0,0.0,0.0,0.0,0.0,0.0,0.0,0.0,0.0,0.0,0.0,0.0,0.0,0.0,0.0,0.0,0.0,0.0,0.0,0.0,0.0,0.0,0.0,0.0,0.0,0.0,0.0,0.0,0.0,0.0,0.0,0.0,0.0,0.0,0.0,0.0,0.0,0.0,0.0,0.0,0.0,0.0,0.0,0.0,0.0,0.0,0.0,0.0,0.0,0.0,0.0,0.0,0.0,0.0,0.0,0.0,0.0,0.0,0.0,0.0,0.0,0.0,0.0,0.0,0.0,0.0,0.0,0.0,0.0,0.0,0.0,0.0,0.0,0.0,0.0,0.0,0.0,0.0,0.0,0.0,0.0,0.0,0.0,0.0,0.0,0.0,0.0,0.0,0.0,0.0,0.0,0.0,0.0,0.0,0.0,0.0,0.0,0.0,0.0,0.0,0.0,0.0,0.0,0.0,0.0,0.0,0.0,0.0,0.0,0.0,0.0,0.0,0.0,0.0,0.0,0.0,0.0,0.0,0.0,0.0,0.0,0.0,0.0,0.0,0.0,0.0,0.0,0.0,0.0,0.0,0.0,0.0,0.0,0.0,0.0,0.0,0.0,0.0,0.0,0.0,0.0,0.0,0.0,0.0,0.0,0.0,0.0,0.0,0.0,0.0,0.0,0.0,0.0,0.0,0.0,0.0,0.0,0.0,0.0,0.0,0.0,0.0,0.0,0.0,0.0,0.0,0.0,0.0,0.0,0.0,0.0,0.0,0.0,0.0,0.0,0.0,0.0,0.0,0.0,0.0,0.0,0.0,0.0,0.0,0.0,0.0,0.0,0.0,0.0,0.0,0.0,0.0,0.0,0.0,0.0,0.0,0.0,0.0,0.0,0.0,0.0,0.0,0.0,0.0,0.0,0.0,0.0,0.0,0.0,0.0,0.0,0.0,0.0,0.0,0.0,0.0,0.0,0.0,0.0,0.0,0.0,0.0,0.0,0.0,0.0,0.0,0.0,0.0,0.0,0.0,0.0,0.0,0.0,0.0,0.0,0.0,0.0,0.0,0.0,0.0,0.0,0.0,0.0,0.0,0.0,0.0,0.0,0.0,0.0,0.0,0.0,0.0,0.0,0.0,0.0,0.0,0.0,0.0,0.0,0.0,0.0,0.0,0.0,0.0,0.0,0.0,0.0,0.0,0.0,0.0,0.0,0.0,0.0,0.0,0.0,0.0,0.0,0.0,0.0,0.0,0.0,0.0,0.0,0.0,0.0,0.0,0.0,0.0,0.0,0.0,0.0,0.0,0.0,0.0,0.0,0.0,0.0,0.0,0.0,0.0,0.0,0.0,0.0,0.0,0.0,0.0,0.0,0.0,0.0,0.0,0.0,0.0,0.0,0.0,0.0,0.0,0.0,0.0,0.0,0.0,0.0,0.0,0.0,0.0,0.0,0.0,0.0,0.0,0.0,0.0,0.0,0.0,0.0,0.0,0.0,0.0,0.0,0.0,0.0,0.0,0.0,0.0,0.0,0.0,0.0,0.0,0.0,0.0,0.0,0.0,0.0,0.0,0.0,0.0,0.0,0.0,0.0,0.0,0.0,0.0,0.0,0.0,0.0,0.0,0.0,0.0,0.0,0.0,0.0,0.0,0.0,0.0,0.0,0.0,0.0,0.0,0.0,0.0,0.0,0.0,0.0,0.0,0.0,0.0,0.0,0.0,0.0,0.0,0.0,0.0,0.0,0.0,0.0,0.0,0.0,0.0,0.0,0.0,0.0,0.0,0.0,0.0,0.0,0.0,0.0,0.0,0.0,0.0,0.0,0.0,0.0,0.0,0.0,0.0,0.0,0.0,0.0,0.0,0.0,0.0,0.0,0.0,0.0,0.0,0.0,0.0,0.0,0.0,0.0,0.0,0.0,0.0,0.0,0.0,0.0,0.0,0.0,0.0,0.0,0.0,0.0,0.0,0.0,0.0,0.0,0.0,0.0,0.0,0.0,0.0,0.0,0.0,0.0,0.0,0.0,0.0,0.0,0.0,0.0,0.0,0.0,0.0,0.0,0.0,0.0,0.0,0.0,0.0,0.0,0.0,0.0,0.0,0.0,0.0,0.0,0.0,0.0,0.0,0.0,0.0,0.0,0.0,0.0,0.0,0.0,0.0,0.0,0.0,0.0,0.0,0.0,0.0,0.0,0.0,0.0,0.0,0.0,0.0,0.0,0.0,0.0,0.0,0.0,0.0,0.0,0.0,0.0,0.0,0.0,0.0,0.0,0.0,0.0,0.0,0.0,0.0,0.0,0.0,0.0,0.0,0.0,0.0,0.0,0.0,0.0,0.0,0.0,0.0,0.0,0.0,0.0,0.0,0.0,0.0,0.0,0.0,0.0,0.0,0.0,0.0,0.0,0.0,0.0,0.0,0.0,0.0,0.0,0.0,0.0,0.0,0.0,0.0,0.0,0.0,0.0,0.0,0.0,0.0,0.0,0.0,0.0,0.0,0.0,0.0,0.0,0.0,0.0,0.0,0.0,0.0,0.0,0.0,0.0,0.0,0.0,0.0,0.0,0.0,0.0,0.0,0.0,0.0,0.0,0.0,0.0,0.0,0.0,0.0,0.0,0.0,0.0,0.0,0.0,0.0,0.0,0.0,0.0,0.0,0.0,0.0,0.0,0.0,0.0,0.0,0.0,0.0,0.0,0.0,0.0,0.0,0.0,0.0,0.0,0.0,0.0,0.0,0.0,0.0,0.0,0.0,0.0,0.0,0.0,0.0,0.0,0.0,0.0,0.0,0.0,0.0,0.0,0.0,0.0,0.0,0.0,0.0,0.0,0.0,0.0,0.0,0.0,0.0,0.0,0.0,0.0,0.0,0.0,0.0,0.0,0.0,0.0,0.0,0.0,0.0,0.0,0.0,0.0,0.0,0.0,0.0,0.0,0.0,0.0,0.0,0.0,0.0,0.0,0.0,0.0,0.0,0.0,0.0,0.0,0.0,0.0,0.0,0.0,0.0,0.0,0.0,0.0,0.0,0.0,0.0,0.0,0.0,0.0,0.0,0.0,0.0,0.0,0.0,0.0,0.0,0.0,0.0,0.0,0.0,0.0,0.0,0.0,0.0,0.0,0.0,0.0,0.0,0.0,0.0,0.0,0.0,0.0,0.0,0.0,0.0,0.0,0.0,0.0,0.0,0.0,0.0,0.0,0.0,0.0,0.0,0.0,0.0,0.0,0.0,0.0,0.0,0.0,0.0,0.0,0.0,0.0,0.0,0.0,0.0,0.0,0.0,0.0,0.0,0.0,0.0,0.0,0.0,0.0,0.0,0.0,0.0,0.0,0.0,0.0,0.0,0.0,0.0,0.0,0.0,0.0,0.0,0.0,0.0,0.0,0.0,0.0,0.0,0.0,0.0,0.0,0.0,0.0,0.0,0.0,0.0,0.0,0.0,0.0,0.0,0.0,0.0,0.0,0.0,0.0,0.0,0.0,0.0,0.0,0.0,0.0,0.0,0.0,0.0,0.0,0.0,0.0,0.0,0.0,0.0,0.0,0.0,0.0,0.0,0.0,0.0,0.0,0.0,0.0,0.0,0.0,0.0,0.0,0.0,0.0,0.0,0.0,0.0,0.0,0.0,0.0,0.0,0.0,0.0,0.0,0.0,0.0,0.0,0.0,0.0,0.0,0.0,0.0,0.0,0.0,0.0,0.0,0.0,0.0,0.0,0.0,0.0,0.0,0.0,0.0,0.0,0.0,0.0,0.0,0.0,0.0,0.0,0.0,0.0,0.0,0.0,0.0,0.0,0.0,0.0,0.0,0.0,0.0,0.0,0.0,0.0,0.0,0.0,0.0,0.0,0.0,0.0,0.0,0.0,0.0,0.0,0.0,0.0,0.0,0.0,0.0,0.0,0.0,0.0,0.0,0.0,0.0,0.0,0.0,0.0,0.0,0.0,0.0,0.0,0.0,0.0,0.0,0.0,0.0,0.0,0.0,0.0,0.0,0.0,0.0,0.0,0.0,0.0,0.0,0.0,0.0,0.0,0.0,0.0,0.0,0.0,0.0,0.0,0.0,0.0,0.0,0.0,0.0,0.0,0.0,0.0,0.0,0.0,0.0,0.0,0.0,0.0,0.0,0.0,0.0,0.0,0.0,0.0,0.0,0.0,0.0,0.0,0.0,0.0,0.0,0.0,0.0,0.0,0.0,0.0,0.0,0.0,0.0,0.0,0.0,0.0,0.0,0.0,0.0,0.0,0.0,0.0,0.0,0.0,0.0,0.0,0.0,0.0,0.0,0.0,0.0,0.0,0.0,0.0,0.0,0.0,0.0,0.0,0.0,0.0,0.0,0.0,0.0,0.0,0.0,0.0,0.0,0.0,0.0,0.0,0.0,0.0,0.0,0.0,0.0,0.0,0.0,0.0,0.0,0.0,0.0,0.0,0.0,0.0,0.0,0.0,0.0,0.0,0.0,0.0,0.0,0.0,0.0,0.0,0.0,0.0,0.0,0.0,0.0,0.0,0.0,0.0,0.0,0.0,0.0,0.0,0.0,0.0,0.0,0.0,0.0,0.0,0.0,0.0,0.0,0.0,0.0,0.0,0.0,0.0,0.0,0.0,0.0,0.0,0.0,0.0,0.0,0.0,0.0,0.0,0.0,0.0,0.0,0.0,0.0,0.0,0.0,0.0,0.0,0.0,0.0,0.0,0.0,0.0,0.0,0.0,0.0,0.0,0.0,0.0,0.0,0.0,0.0,0.0,0.0,0.0,0.0,0.0,0.0,0.0,0.0,0.0,0.0,0.0,0.0,0.0,0.0,0.0,0.0,0.0,0.0,0.0,0.0,0.0,0.0,0.0,0.0,0.0,0.0,0.0,0.0,0.0,0.0,0.0,0.0,0.0,0.0,0.0,0.0,0.0,0.0,0.0,0.0,0.0,0.0,0.0,0.0,0.0,0.0,0.0,0.0,0.0,0.0,0.0,0.0,0.0,0.0,0.0,0.0,0.0,0.0,0.0,0.0,0.0,0.0,0.0,0.0,0.0,0.0,0.0,0.0,0.0,0.0,0.0,0.0,0.0,0.0,0.0,0.0,0.0,0.0,0.0,0.0,0.0,0.0,0.0,0.0,0.0,0.0,0.0,0.0,0.0,0.0,0.0,0.0,0.0,0.0,0.0,0.0,0.0,0.0,0.0,0.0,2.2143,0.0,0.0,0.0,0.0,0.0,0.0,0.0,0.0,0.0,0.0,0.0,0.0,0.0,0.0,0.0,0.0,0.0,0.0,0.0,0.0,0.0,0.0,0.0,0.0,0.0,0.0,0.0,0.0,0.0,0.0,0.0,0.0,0.0,0.0,0.0,0.0,0.0,0.0,0.0,0.0,0.0,0.0,0.0,0.0,0.0,0.0,0.0,0.0,0.0,0.0,0.0,0.0,0.0,0.0,0.0,0.0,0.0,0.0,0.0,0.0,0.0,0.0,0.0,0.0,0.0,0.0,0.0,0.0,0.0,0.0,0.0,0.0,0.0,0.0,0.0,0.0,0.0,0.0,0.0,0.0,0.0,0.0,0.0,0.0,0.0,0.0,0.0,0.0,0.0,0.0,0.0,0.0,0.0,0.0,0.0,0.0,0.0,0.0,0.0,0.0,0.0,0.0,0.0,0.0,0.0,0.0,0.0,0.0,0.0,0.0,0.0,0.0,0.0,0.0,0.0,0.0,2.2607,0.0,0.0,0.0,0.0,0.0,0.0,0.0,0.0,0.0,0.0,0.0,0.0,0.0,0.0,0.0,0.0,0.0,0.0,0.0,0.0,0.0,0.0,0.0,0.0,0.0,0.0,0.0,0.0,0.0,0.0,0.0,0.0,0.0,0.0,0.0,0.0,0.0,0.0,0.0,0.0,0.0,0.0,0.0,0.0,0.0,0.0,0.0,0.0,0.0,0.0,0.0,0.0,0.0,0.0,0.0,0.0,0.0,0.0,0.0,0.0,0.0,0.0,0.0,0.0,0.0,0.0,0.0,0.0,0.0,0.0,0.0,0.0,0.0,0.0,0.0,0.0,0.0,0.0,0.0,0.0,0.0,0.0,0.0,0.0,0.0,0.0,0.0,0.0,0.0,0.0,0.0,0.0,0.0,0.0,0.0,0.0,0.0,0.0,0.0,0.0,0.0,0.0,0.0,0.0,0.0,0.0,0.0,0.0,0.0,2.3595,2.3595,2.3595,2.3595,2.3595,2.3595,2.3595,2.3595,0.0,0.0,0.0,0.0,0.0,0.0,0.0,0.0,0.0,0.0,0.0,0.0,0.0,0.0,0.0,0.0,0.0,0.0,0.0,0.0,0.0,0.0,0.0,0.0,0.0,0.0,0.0,0.0,0.0,0.0,0.0,0.0,0.0,0.0,0.0,0.0,0.0,0.0,0.0,0.0,0.0,0.0,0.0,0.0,0.0,0.0,0.0,0.0,0.0,0.0,0.0,0.0,0.0,0.0,0.0,0.0,0.0,0.0,0.0,0.0,0.0,0.0,0.0,0.0,0.0,0.0,0.0,0.0,0.0,0.0,0.0,0.0,0.0,0.0,0.0,0.0,0.0,0.0,0.0,0.0,0.0,0.0,0.0,0.0,0.0,0.0,0.0,1.6598,1.7504,0.0,0.0,0.0,0.0,0.0,0.0,0.0,0.0,0.0,0.0,0.0,0.0,0.0,0.0,2.3475,2.3475,2.352,2.3595,2.3595,2.3595,2.3595,2.3595,2.3595,2.3595,2.3595,0.0,2.3595,2.3595,0.0,0.0,0.0,0.0,0.0,0.0,0.0,0.0,0.0,0.0,0.0,0.0,0.0,0.0,0.0,0.0,0.0,0.0,0.0,0.0,0.0,0.0,0.0,0.0,0.0,0.0,0.0,0.0,0.0,0.0,0.0,0.0,0.0,0.0,0.0,0.0,0.0,0.0,0.0,0.0,0.0,0.0,0.0,0.0,0.0,0.0,0.0,0.0,0.0,0.0,0.0,0.0,0.0,0.0,0.0,0.0,0.0,0.0,0.0,0.0,0.0,0.0,0.0,0.0,0.0,0.0,0.0,0.0,0.0,0.0,0.0,0.0,0.0,0.0,0.0,0.0,0.0,0.0,0.0,0.0,0.0,0.0,0.0,0.0,0.0,1.6642,1.7547,1.9194,1.95,1.9894,0.0,0.0,0.0,0.0,0.0,0.0,0.0,0.0,0.0,2.3191,2.346,2.3595,2.3595,2.3595,2.3595,2.3595,2.3595,2.3595,2.3595,2.3595,2.3595,2.3595,2.3595,2.3595,2.3595,2.3595,2.3595,2.3595,0.0,0.0,0.0,0.0,0.0,2.3595,0.0,0.0,0.0,0.0,0.0,0.0,0.0,0.0,0.0,0.0,0.0,0.0,0.0,0.0,0.0,0.0,0.0,0.0,0.0,0.0,0.0,0.0,0.0,0.0,0.0,0.0,0.0,0.0,0.0,0.0,0.0,0.0,0.0,0.0,0.0,0.0,0.0,0.0,0.0,0.0,0.0,0.0,0.0,0.0,0.0,0.0,0.0,0.0,0.0,0.0,0.0,0.0,0.0,0.0,0.0,0.0,0.0,0.0,0.0,0.0,0.0,0.0,0.0,0.0,0.0,0.0,0.0,0.0,0.0,0.0,0.0,0.0,0.0,0.0,0.0,0.0,0.0,1.7682,1.866,2.0474,2.0831,2.1231,0.0,0.0,0.0,0.0,0.0,0.0,2.2906,2.3355,2.3595,2.3595,2.3595,2.3595,2.3595,2.3595,2.3595,2.3595,2.3595,2.3595,2.3595,2.3595,2.3595,2.361,2.3789,2.3864,2.3849,2.367,2.3595,2.3595,2.3595,2.3699,2.3864,2.3864,2.3969,2.4103,0.0,0.0,0.0,0.0,0.0,0.0,0.0,0.0,0.0,0.0,0.0,0.0,0.0,0.0,0.0,0.0,0.0,0.0,0.0,0.0,0.0,0.0,0.0,0.0,0.0,0.0,0.0,0.0,0.0,0.0,0.0,0.0,0.0,0.0,0.0,0.0,0.0,0.0,0.0,0.0,0.0,0.0,0.0,0.0,0.0,0.0,0.0,0.0,0.0,0.0,0.0,0.0,0.0,0.0,0.0,0.0,0.0,0.0,0.0,0.0,0.0,0.0,0.0,0.0,0.0,0.0,0.0,0.0,0.0,0.0,0.0,0.0,0.0,0.0,0.0,0.0,0.0,0.0,0.0,2.0608,2.127,0.0,0.0,0.0,0.0,2.346,2.3535,2.355,2.355,2.358,2.3595,2.3595,2.3595,2.3595,2.3595,2.3595,2.3595,2.3595,2.3595,2.3595,2.3595,2.3595,2.3595,2.364,2.4298,2.4522,2.4477,2.3864,2.3595,2.3595,2.3595,2.3999,2.4522,2.4522,2.4971,2.551,0.0,0.0,0.0,0.0,0.0,0.0,0.0,0.0,0.0,0.0,0.0,0.0,0.0,0.0,0.0,0.0,0.0,0.0,0.0,0.0,0.0,0.0,0.0,0.0,0.0,0.0,0.0,0.0,0.0,0.0,0.0,0.0,0.0,0.0,0.0,0.0,0.0,0.0,0.0,0.0,0.0,0.0,0.0,0.0,0.0,0.0,0.0,0.0,0.0,0.0,0.0,0.0,0.0,0.0,0.0,0.0,0.0,0.0,0.0,0.0,0.0,0.0,0.0,0.0,0.0,0.0,0.0,0.0,0.0,0.0,0.0,0.0,0.0,0.0,0.0,0.0,0.0,0.0,0.0,2.1875,2.2185,0.0,0.0,2.3266,2.3355,2.358,2.3595,2.3595,2.3595,2.3595,2.3595,2.3595,2.3595,2.3595,2.3595,2.3595,2.3595,2.3595,2.3595,2.3834,2.4253,2.4253,2.4492,2.4911,2.5151,2.5255,2.5241,2.5001,2.4896,2.4896,2.4896,2.5046,2.5255,2.5255,2.5405,2.5615,0.0,0.0,0.0,0.0,0.0,0.0,0.0,0.0,0.0,0.0,0.0,0.0,0.0,0.0,0.0,0.0,0.0,0.0,0.0,0.0,0.0,0.0,0.0,0.0,0.0,0.0,0.0,0.0,0.0,0.0,0.0,0.0,0.0,0.0,0.0,0.0,0.0,0.0,0.0,0.0,0.0,0.0,1.1606,0.0,0.0,0.0,0.0,0.0,0.0,0.0,0.0,0.0,0.0,0.0,0.0,0.0,0.0,0.0,0.0,0.0,0.0,0.0,0.0,0.0,0.0,0.0,0.0,0.0,0.0,0.0,0.0,0.0,0.0,0.0,0.0,0.0,0.0,0.0,2.1327,2.2553,2.2897,2.3146,2.3565,2.3595,2.3595,2.3595,2.3595,2.3595,2.3595,2.3595,2.3595,2.3595,2.3595,2.3595,2.3595,2.3819,2.3939,2.3954,2.4178,2.4522,2.4956,2.4956,2.5196,2.5615,2.5839,2.5944,2.5959,2.6183,2.6273,2.6228,2.5779,2.5749,2.5944,2.5944,2.6078,2.6273,0.0,0.0,0.0,0.0,0.0,0.0,0.0,0.0,0.0,0.0,0.0,0.0,0.0,0.0,0.0,0.0,0.0,0.0,0.0,0.0,0.0,0.0,0.0,0.0,0.0,0.0,0.0,0.0,0.0,0.0,0.0,0.0,0.0,0.0,0.0,0.0,0.0,0.0,0.0,0.0,0.0,0.0,1.1645,0.0,0.0,0.0,0.0,0.0,0.0,0.0,0.0,0.0,0.0,0.0,0.0,0.0,0.0,0.0,0.0,0.0,0.0,0.0,0.0,0.0,0.0,0.0,0.0,0.0,0.0,0.0,0.0,0.0,0.0,0.0,0.0,0.0,2.0012,2.056,2.1377,2.2577,2.3201,2.3595,2.3595,2.3595,2.3595,2.3595,2.3595,2.3595,2.3595,2.3595,2.3595,2.3595,2.3625,2.3625,2.3625,2.4313,2.4612,2.4627,2.53,2.5615,2.563,2.563,2.5644,2.5704,2.6348,2.6617,2.6677,2.7305,2.7625,2.744,2.6168,2.6063,2.6617,2.6617,2.7036,2.7655,0.0,0.0,0.0,0.0,0.0,0.0,0.0,0.0,0.0,0.0,0.0,0.0,0.0,0.0,0.0,0.0,0.0,0.0,0.0,0.0,0.0,0.0,0.0,0.0,0.0,0.0,0.0,0.0,0.0,0.0,0.0,0.0,0.0,0.0,0.0,0.0,0.0,0.0,0.0,0.0,0.0,0.0,1.252,0.0,0.0,0.0,0.0,0.0,0.0,0.0,0.0,0.0,0.0,0.0,0.0,0.0,0.0,0.0,0.0,0.0,0.0,0.0,0.0,0.0,0.0,0.0,0.0,0.0,0.0,0.0,0.0,0.0,0.0,0.0,0.0,2.0014,2.0509,2.1111,2.1764,2.2575,2.2844,2.3098,2.3551,2.3595,2.3595,2.3595,2.3595,2.3595,2.3595,2.3595,2.3595,2.3595,2.4088,2.4343,2.4343,2.5001,2.5345,2.5345,2.5525,2.5854,2.6318,2.6318,2.6572,2.7036,2.723,2.7355,2.737,2.755,2.7625,2.758,2.7171,2.7141,2.7355,2.7355,2.7739,2.8323,0.0,0.0,0.0,0.0,0.0,0.0,0.0,0.0,0.0,0.0,0.0,0.0,0.0,0.0,0.0,0.0,0.0,0.0,0.0,0.0,0.0,0.0,0.0,0.0,0.0,0.0,0.0,0.0,0.0,0.0,0.0,0.0,0.0,0.0,0.0,0.0,0.0,0.0,0.0,0.0,0.0,0.0,1.3145,1.3145,1.3037,1.2842,1.2588,1.2725,1.2935,1.2325,0.0,0.0,0.0,0.0,0.0,0.0,0.0,0.0,0.0,0.0,0.0,0.0,0.0,0.0,0.0,0.0,0.0,0.0,0.0,0.0,0.0,0.0,0.0,0.0,1.9798,1.9952,2.0359,2.1148,2.1946,2.2603,2.292,2.3187,2.3551,2.3595,2.3595,2.3595,2.3595,2.3595,2.3595,2.3879,2.4029,2.4029,2.4687,2.5046,2.5046,2.5689,2.6019,2.6019,2.6303,2.6632,2.7006,2.7006,2.7215,0.0,2.7625,2.779,2.8008,2.8008,2.8158,0.0,0.0,0.0,0.0,0.0,2.8667,2.9011,0.0,0.0,0.0,0.0,0.0,0.0,0.0,0.0,0.0,0.0,0.0,0.0,0.0,0.0,0.0,0.0,0.0,0.0,0.0,0.0,0.0,0.0,0.0,0.0,0.0,0.0,0.0,0.0,0.0,0.0,0.0,0.0,0.0,0.0,0.0,0.0,0.0,0.0,0.0,0.0,0.0,0.0,1.3574,1.3525,1.3271,1.2939,1.29,1.2929,1.2968,1.2929,0.0,0.0,0.0,0.0,0.0,0.0,0.0,0.0,0.0,0.0,0.0,0.0,0.0,0.0,0.0,0.0,0.0,0.0,0.0,0.0,0.0,0.0,0.0,0.0,1.9798,1.9798,1.9798,2.0855,2.1852,2.2498,2.3054,2.345,2.3595,2.3595,2.3595,2.3595,2.367,2.3714,2.3714,0.0,0.0,0.0,0.0,2.5719,2.5719,2.6378,2.6692,2.6707,2.734,2.7625,2.7625,2.7625,2.767,2.773,2.773,2.8068,2.8712,2.8712,2.9101,2.9624,2.8966,2.8712,2.8786,2.937,2.9624,0.0,0.0,0.0,0.0,0.0,0.0,0.0,0.0,0.0,0.0,0.0,0.0,0.0,0.0,0.0,0.0,0.0,0.0,0.0,0.0,0.0,0.0,0.0,0.0,0.0,0.0,0.0,0.0,0.0,0.0,0.0,0.0,0.0,0.0,0.0,0.0,0.0,0.0,0.0,0.0,0.0,0.0,0.0,1.3975,1.3633,1.3457,1.334,1.2998,1.319,1.3552,1.3055,1.3286,1.3732,1.3248,0.0,0.0,0.0,0.0,0.0,0.0,0.0,0.0,0.0,0.0,0.0,0.0,0.0,0.0,0.0,0.0,0.0,0.0,0.0,0.0,1.9798,1.9798,1.9798,1.9798,2.0497,2.121,2.1805,2.1993,2.2455,2.3508,2.3595,2.3595,2.3595,2.4118,2.4388,2.4388,2.5061,0.0,2.542,2.6063,2.6408,2.6408,2.7051,2.738,2.738,0.0,0.0,2.7625,2.7625,2.7874,2.8412,2.8412,2.8786,2.94,2.94,2.9759,3.0253,2.9639,2.94,2.94,2.9535,2.9894,3.0328,0.0,0.0,0.0,0.0,0.0,0.0,0.0,0.0,0.0,0.0,0.0,0.0,0.0,0.0,0.0,0.0,0.0,0.0,0.0,0.0,0.0,0.0,0.0,0.0,0.0,0.0,0.0,0.0,0.0,0.0,0.0,0.0,0.0,0.0,0.0,0.0,0.0,0.0,0.0,0.0,0.0,0.0,1.4727,1.4307,1.3877,1.3477,1.3271,1.3234,1.3286,1.3017,1.3286,1.3732,1.3467,1.3476,1.3648,0.0,0.0,0.0,0.0,0.0,0.0,0.0,0.0,0.0,0.0,0.0,0.0,0.0,0.0,1.9371,0.0,0.0,1.9798,1.9798,1.9798,1.9798,1.9798,2.0105,2.0534,2.1161,2.1819,2.2438,2.3098,2.3421,2.3744,2.4088,2.4388,2.4731,2.5106,2.5749,2.6093,2.6093,2.6737,2.7081,2.7081,2.741,2.7625,2.7625,2.7625,2.7754,2.8083,2.8083,2.8457,2.9086,2.9086,2.9445,3.0073,3.0417,3.0746,3.0986,3.0687,3.0552,3.0552,3.0552,3.0746,3.1016,0.0,0.0,0.0,0.0,0.0,0.0,0.0,0.0,0.0,0.0,0.0,0.0,0.0,0.0,0.0,0.0,0.0,0.0,0.0,0.0,0.0,0.0,0.0,0.0,0.0,0.0,0.0,0.0,0.0,0.0,0.0,0.0,0.0,0.0,0.0,0.0,0.0,0.0,0.0,0.0,0.0,0.0,1.5371,1.4941,1.4307,1.3613,1.3535,1.3242,1.2881,1.2881,1.3298,1.3724,1.3724,1.4035,1.4336,1.4336,1.4314,0.0,0.0,0.0,0.0,0.0,0.0,0.0,0.0,0.0,1.7468,1.9423,1.9307,1.9097,1.9695,1.9798,1.9798,1.9798,1.9798,1.9798,1.9798,1.9798,2.0003,2.0547,2.1738,2.2601,2.2867,2.3437,2.4088,2.4716,2.4881,2.5241,2.5779,2.6422,2.6782,2.6782,2.734,2.7625,2.7625,2.7625,2.7625,2.7625,2.7709,2.8068,2.8607,2.8727,2.9146,2.9759,2.9909,3.0253,3.0746,3.13,3.1482,3.1482,3.1482,3.1482,3.1482,3.1482,3.1482,3.1482,0.0,0.0,0.0,0.0,0.0,0.0,0.0,0.0,0.0,0.0,0.0,0.0,0.0,0.0,0.0,0.0,0.0,0.0,0.0,0.0,0.0,0.0,0.0,0.0,0.0,0.0,0.0,0.0,0.0,0.0,0.0,0.0,0.0,0.0,0.0,0.0,0.0,0.0,0.0,0.0,0.0,0.0,1.5371,1.4941,1.4482,1.4014,1.3643,1.3242,1.2881,1.2881,1.3175,1.3529,1.3529,1.3814,1.4106,1.4106,0.0,1.4717,1.4717,1.6053,1.7401,1.7457,1.795,1.8661,0.0,0.0,1.8715,1.9592,1.9747,1.9695,1.9798,1.9798,1.9798,1.9798,1.9798,1.9798,1.9798,1.9798,1.985,1.9901,2.1037,2.2264,2.3472,2.4115,2.4792,2.545,2.6033,2.6408,2.6482,2.7096,2.7505,2.7505,2.758,2.7625,2.7625,2.7625,2.7625,2.7625,2.8188,2.8532,2.8622,2.9205,2.9804,3.0432,3.1046,3.136,3.1362,3.1437,3.1482,3.1482,3.1482,3.1482,3.1482,3.1482,3.1482,3.1482,0.0,0.0,0.0,0.0,0.0,0.0,0.0,0.0,0.0,0.0,0.0,0.0,0.0,0.0,0.0,0.0,0.0,0.0,0.0,0.0,0.0,0.0,0.0,0.0,0.0,0.0,0.0,0.0,0.0,0.0,0.0,0.0,0.0,0.0,0.0,0.0,0.0,0.0,0.0,0.0,0.0,0.0,1.5029,1.4853,1.4365,1.3779,1.3848,1.3603,0.0,0.0,1.373,1.3877,1.3877,1.417,1.4512,1.4512,1.4814,0.0,1.5649,1.6336,0.0,0.0,1.7841,1.8232,1.8992,1.8927,1.8927,1.9643,1.9798,1.9798,1.9798,1.9798,1.9798,0.0,1.9798,1.9798,1.9798,1.9798,1.9924,2.0263,2.108,2.2015,2.3013,2.3961,2.5011,2.6075,2.6437,2.6752,2.7141,2.7475,2.7625,2.7625,2.7625,2.7625,2.7625,2.7979,2.8173,2.8173,2.8846,2.937,2.9714,2.9998,3.0477,3.112,3.1347,3.1482,3.1482,3.1482,3.1482,3.1482,3.1482,3.1482,3.1482,3.1482,3.1482,3.1584,0.0,0.0,0.0,0.0,0.0,0.0,0.0,0.0,0.0,0.0,0.0,0.0,0.0,0.0,0.0,0.0,0.0,0.0,0.0,0.0,0.0,0.0,0.0,0.0,0.0,0.0,0.0,0.0,0.0,0.0,0.0,0.0,0.0,0.0,0.0,0.0,0.0,0.0,0.0,0.0,0.0,0.0,1.459,1.4473,1.3961,1.3399,1.3917,1.37,0.0,0.0,1.4048,1.3981,1.4198,1.4609,1.4961,1.4961,1.5176,1.5526,1.6036,0.0,0.0,1.7413,1.7743,1.8124,1.8821,1.898,1.915,1.9695,1.9798,1.9798,1.9798,1.9798,1.9798,1.9798,1.9798,1.9798,1.9798,1.9936,2.02,2.0668,2.1335,2.2181,2.3096,2.4155,2.5363,2.6762,2.6856,2.7066,2.7595,2.7625,2.7625,2.7625,2.7754,2.7859,2.7859,2.8532,2.8876,2.8876,2.952,3.0073,3.0507,3.0702,3.1061,3.1482,3.1482,3.1482,3.1482,3.1482,3.1482,3.1497,3.1676,3.1809,3.1824,3.2003,3.1958,3.1898,0.0,0.0,0.0,0.0,0.0,0.0,0.0,0.0,0.0,0.0,0.0,0.0,0.0,0.0,0.0,0.0,0.0,0.0,0.0,0.0,0.0,0.0,0.0,0.0,0.0,0.0,0.0,0.0,0.0,0.0,0.0,0.0,0.0,0.0,0.0,0.0,0.0,0.0,0.0,0.0,0.0,0.0,1.4058,1.3701,1.3299,1.3014,1.38,0.0,0.0,0.0,1.3902,1.3732,1.4532,1.5049,0.0,1.5391,1.54,0.0,0.0,0.0,1.6652,1.7413,1.8124,1.8874,1.9592,1.9747,1.9747,1.9798,1.9798,1.9798,1.9798,1.9798,1.9798,1.9798,1.9798,1.9798,1.9798,2.0288,2.0706,2.0718,2.1606,2.285,0.0,2.5048,2.6068,2.7485,2.7595,2.7595,2.7625,2.7625,2.7625,2.7625,2.8218,2.8562,2.8562,2.922,2.9549,2.9564,3.0178,3.0477,3.0522,3.1195,3.1452,3.1482,3.1482,3.1482,3.1482,3.1482,3.1482,3.1541,3.2243,3.2482,3.2557,3.32,3.3036,3.2587,0.0,0.0,0.0,0.0,0.0,0.0,0.0,0.0,0.0,0.0,0.0,0.0,0.0,0.0,0.0,0.0,0.0,0.0,0.0,0.0,0.0,0.0,0.0,0.0,0.0,0.0,0.0,0.0,0.0,0.0,0.0,0.0,0.0,0.0,0.0,0.0,0.0,0.0,0.0,0.0,0.0,0.0,1.2396,1.2709,1.2422,1.1905,0.0,0.0,0.0,0.0,0.0,0.0,1.372,0.0,0.0,1.4628,0.0,0.0,0.0,0.0,1.5921,1.6698,1.7413,1.8058,1.8274,1.9097,1.9643,1.915,1.9097,1.9097,1.9097,1.9097,1.9097,1.9097,1.9475,1.9936,2.0326,2.0592,2.0941,2.1669,2.2083,0.0,0.0,0.0,0.0,2.7494,2.7625,2.7625,2.7625,2.7625,2.7784,2.8233,2.8472,2.8801,2.925,2.9879,3.0193,3.0193,3.0866,3.118,3.1195,3.1377,3.1482,3.1482,3.1482,3.1482,3.1482,3.1482,3.1735,3.2213,3.2422,3.2781,3.3245,3.3903,3.4008,3.3844,0.0,0.0,0.0,0.0,0.0,0.0,0.0,0.0,0.0,0.0,0.0,0.0,0.0,0.0,0.0,0.0,0.0,0.0,0.0,0.0,0.0,0.0,0.0,0.0,0.0,0.0,0.0,0.0,0.0,0.0,0.0,0.0,0.0,0.0,0.0,0.0,0.0,0.0,0.0,0.0,0.0,0.0,1.1325,1.1757,1.1521,0.0,0.0,0.0,0.0,0.0,0.0,0.0,0.0,0.0,0.0,0.0,0.0,0.0,0.0,1.541,1.5584,1.6322,1.6866,1.7257,1.7523,1.8555,1.9254,1.8821,1.8715,1.8715,1.8715,1.8715,1.8774,1.8976,1.9613,2.0313,2.0878,2.1129,2.1518,2.2234,2.2485,0.0,0.0,0.0,0.0,2.7086,2.7458,2.773,2.7919,2.7934,2.8248,2.8936,2.916,2.949,2.9909,3.0552,3.0866,3.0881,3.1315,3.1482,3.1482,3.1482,3.1482,3.1482,3.1482,3.1616,3.1884,3.1884,3.2273,3.2886,3.3125,3.3469,3.3918,3.4592,3.4846,3.4846,0.0,0.0,0.0,0.0,0.0,0.0,0.0,0.0,0.0,0.0,0.0,0.0,0.0,0.0,0.0,0.0,0.0,0.0,0.0,0.0,0.0,0.0,0.0,0.0,0.0,0.0,0.0,0.0,0.0,0.0,0.0,0.0,0.0,0.0,0.0,0.0,0.0,0.0,0.0,0.0,0.0,0.0,1.0602,1.0602,0.0,0.0,0.0,0.0,0.0,0.0,0.0,0.0,0.0,0.0,0.0,0.0,0.0,1.541,1.541,1.541,1.5584,1.6265,1.6492,1.6652,1.7357,1.8112,1.8608,1.8608,1.8608,1.8608,0.0,0.0,1.8827,1.9404,2.0195,2.0907,2.1405,2.197,2.2322,0.0,0.0,0.0,0.0,0.0,0.0,2.6336,0.0,2.7874,2.8562,2.8607,2.8921,2.9609,3.0193,3.0522,3.0552,3.121,3.1482,3.1482,3.1482,3.1482,3.1482,3.1482,3.1482,3.1482,3.1511,3.1943,3.2512,3.2557,3.2961,3.3604,3.4233,3.4502,3.4607,3.5265,3.5504,3.5504,0.0,0.0,0.0,0.0,0.0,0.0,0.0,0.0,0.0,0.0,0.0,0.0,0.0,0.0,0.0,0.0,0.0,0.0,0.0,0.0,0.0,0.0,0.0,0.0,0.0,0.0,0.0,0.0,0.0,0.0,0.0,0.0,0.0,0.0,0.0,0.0,0.0,0.0,0.0,0.0,0.0,0.0,0.7735,0.0,0.0,0.0,0.0,0.0,0.0,0.0,0.0,0.0,0.0,0.0,1.4273,0.0,0.0,1.541,1.541,1.541,1.5468,1.5633,1.6093,1.6436,1.6026,1.6968,1.7743,1.7191,1.709,1.709,0.0,0.0,0.0,1.8077,1.9601,0.0,2.1405,2.197,0.0,2.2874,0.0,2.3198,2.3365,2.3943,0.0,0.0,2.639,2.7328,2.851,2.8607,2.9116,3.0238,3.0417,3.0746,3.127,3.1377,3.1482,3.1482,3.1482,3.1482,3.1482,3.1482,3.1482,3.1497,3.2048,3.2362,3.2557,3.3036,3.3634,3.4247,3.4412,3.4786,3.5265,3.5444,3.5504,3.5504,0.0,0.0,0.0,0.0,0.0,0.0,0.0,0.0,0.0,0.0,0.0,0.0,0.0,0.0,0.0,0.0,0.0,0.0,0.0,0.0,0.0,0.0,0.0,0.0,0.0,0.0,0.0,0.0,0.0,0.0,0.0,0.0,0.0,0.0,0.0,0.0,0.0,0.0,0.0,0.0,0.0,0.0,0.0,0.0,0.0,0.0,0.0,0.0,0.0,0.0,0.0,1.2573,1.3786,1.4213,1.4273,1.4628,0.0,1.541,1.541,1.541,1.541,1.541,1.569,1.5921,1.5468,1.6301,1.6978,1.6606,1.6492,0.0,0.0,0.0,0.0,0.0,0.0,0.0,2.2096,2.2472,2.2786,0.0,2.3078,0.0,2.3078,2.3773,2.4439,0.0,2.63,2.754,2.8943,2.928,2.9909,3.0926,3.0956,3.115,3.1482,3.1482,3.1482,3.1482,3.1482,3.1482,3.1482,3.1482,3.1631,3.1988,0.0,3.2841,3.341,3.3769,3.4322,3.4921,3.4921,3.516,3.5504,3.5504,3.5504,3.5504,0.0,0.0,0.0,0.0,0.0,0.0,0.0,0.0,0.0,0.0,0.0,0.0,0.0,0.0,0.0,0.0,0.0,0.0,0.0,0.0,0.0,0.0,0.0,0.0,0.0,0.0,0.0,0.0,0.0,0.0,0.0,0.0,0.0,0.0,0.0,0.0,0.0,0.0,0.0,0.0,0.0,0.0,0.0,0.0,0.0,0.0,0.0,0.0,0.0,0.0,1.1879,1.313,1.3974,1.4264,1.451,1.5167,1.541,1.541,1.541,1.541,1.541,1.541,1.541,1.541,1.541,1.5864,1.6368,1.6368,0.0,1.6368,1.6368,0.0,1.7823,1.8994,0.0,2.1731,2.2815,2.3088,2.3078,2.3078,2.3078,2.3078,2.3078,2.3665,2.4289,2.5043,2.6563,2.8062,2.9491,3.0041,3.0708,3.1452,3.1482,3.1482,3.1482,3.1482,3.1482,3.1482,3.1482,3.1482,3.1482,3.1556,3.1973,3.2527,0.0,0.0,3.4487,3.4577,3.4966,3.5504,3.5504,3.5504,3.5504,3.5504,3.5504,3.5504,0.0,0.0,0.0,0.0,0.0,0.0,0.0,0.0,0.0,0.0,0.0,0.0,0.0,0.0,0.0,0.0,0.0,0.0,0.0,0.0,0.0,0.0,0.0,0.0,0.0,0.0,0.0,0.0,0.0,0.0,0.0,0.0,0.0,0.0,0.0,0.0,0.0,0.0,0.0,0.0,0.0,0.0,0.0,0.0,0.0,0.0,0.0,0.0,0.0,0.0,1.0847,1.313,1.3974,1.4688,1.5235,1.5352,1.541,1.541,1.541,1.541,1.541,1.541,1.541,1.541,1.541,1.5526,0.0,0.0,0.0,1.5584,1.5584,1.6197,0.0,1.8428,0.0,0.0,0.0,0.0,2.3078,0.0,0.0,0.0,0.0,0.0,0.0,0.0,0.0,0.0,2.9276,2.945,3.0104,3.1452,3.1482,3.1482,3.1482,3.1482,3.1482,3.1482,3.1482,3.1482,3.1497,3.2093,3.2407,3.2572,0.0,0.0,3.4517,3.51,3.54,3.5504,3.5504,3.5504,3.5504,3.5504,3.5504,3.5504,0.0,0.0,0.0,0.0,0.0,0.0,0.0,0.0,0.0,0.0,0.0,0.0,0.0,0.0,0.0,0.0,0.0,0.0,0.0,0.0,0.0,0.0,0.0,0.0,0.0,0.0,0.0,0.0,0.0,0.0,0.0,0.0,0.0,0.0,0.0,0.0,0.0,0.0,0.0,0.0,0.0,0.0,0.0,0.0,0.0,0.0,0.0,0.0,0.0,0.0,0.98,1.182,1.3176,1.4154,1.4874,1.5294,1.541,1.541,1.541,1.541,1.541,1.541,1.541,1.541,1.541,0.0,0.0,0.0,0.0,1.541,1.541,0.0,0.0,0.0,0.0,0.0,0.0,0.0,0.0,0.0,0.0,0.0,0.0,0.0,0.0,0.0,0.0,0.0,2.9229,3.0017,3.0777,3.1467,3.1482,3.1482,3.1482,3.1482,3.1482,3.1482,3.1482,3.1661,3.2063,3.2362,3.2886,3.3574,3.4203,0.0,3.504,3.537,3.5504,3.5504,3.5504,3.5504,3.5504,3.5504,3.5504,3.5504,0.0,0.0,0.0,0.0,0.0,0.0,0.0,0.0,0.0,0.0,0.0,0.0,0.0,0.0,0.0,0.0,0.0,0.0,0.0,0.0,0.0,0.0,0.0,0.0,0.0,0.0,0.0,0.0,0.0,0.0,0.0,0.0,0.0,0.0,0.0,0.0,0.0,0.0,0.0,0.0,0.0,0.0,0.0,0.0,0.0,0.0,0.0,0.0,0.0,0.0,0.8734,1.0246,1.1912,1.3228,1.4332,1.4932,1.5235,1.541,1.541,1.541,1.541,1.541,1.541,1.541,1.541,1.541,0.0,0.0,1.541,1.541,1.541,0.0,0.0,0.0,0.0,0.0,0.0,0.0,0.0,0.0,0.0,0.0,0.0,0.0,0.0,0.0,0.0,0.0,2.9118,3.0499,3.1351,3.1482,3.1482,3.1482,3.1482,3.1482,3.1482,3.1482,3.1482,3.1884,3.2512,3.2662,3.3365,3.4487,3.4637,0.0,0.0,3.5504,3.5504,3.5504,3.5504,3.5504,3.5504,3.5504,3.5504,3.5504,0.0,0.0,0.0,0.0,0.0,0.0,0.0,0.0,0.0,0.0,0.0,0.0,0.0,0.0,0.0,0.0,0.0,0.0,0.0,0.0,0.0,0.0,0.0,0.0,0.0,0.0,0.0,0.0,0.0,0.0,0.0,0.0,0.0,0.0,0.0,0.0,0.0,0.0,0.0,0.0,0.0,0.0,0.0,0.0,0.0,0.0,0.0,0.0,0.0,0.0,0.0,0.8977,1.018,1.2218,1.4204,1.4273,0.0,0.0,1.541,1.541,1.541,1.541,1.541,1.541,1.541,0.0,0.0,1.541,1.541,1.541,1.541,0.0,0.0,0.0,0.0,0.0,0.0,0.0,0.0,0.0,0.0,0.0,0.0,0.0,0.0,0.0,0.0,0.0,0.0,2.9922,3.0777,3.1467,3.1482,3.1482,3.1482,3.1482,3.1482,3.1482,3.1482,3.1884,3.2542,3.3125,3.3799,3.4502,0.0,0.0,0.0,3.5504,3.5504,3.5504,3.5504,3.5504,3.5504,3.5504,3.5504,3.5504,0.0,0.0,0.0,0.0,0.0,0.0,0.0,0.0,0.0,0.0,0.0,0.0,0.0,0.0,0.0,0.0,0.0,0.0,0.0,0.0,0.0,0.0,0.0,0.0,0.0,0.0,0.0,0.0,0.0,0.0,0.0,0.0,0.0,0.0,0.0,0.0,0.0,0.0,0.0,0.0,0.0,0.0,0.0,0.0,0.0,0.0,0.0,0.0,0.0,0.0,0.0,0.0,0.9008,1.0905,0.0,0.0,1.4451,1.4805,1.5294,1.541,1.541,1.541,1.541,1.541,1.541,0.0,0.0,1.541,1.541,1.541,1.541,0.0,0.0,0.0,0.0,0.0,0.0,0.0,0.0,0.0,0.0,0.0,0.0,0.0,0.0,0.0,0.0,0.0,0.0,2.9566,3.0644,3.1467,3.1482,3.1482,3.1482,3.1482,3.1482,3.1482,3.1482,3.2078,3.311,3.338,3.4083,3.5115,0.0,0.0,0.0,3.5504,3.5504,3.5504,3.5504,3.5504,3.5504,3.5504,3.5504,3.5504,0.0,0.0,0.0,0.0,0.0,0.0,0.0,0.0,0.0,0.0,0.0,0.0,0.0,0.0,0.0,0.0,0.0,0.0,0.0,0.0,0.0,0.0,0.0,0.0,0.0,0.0,0.0,0.0,0.0,0.0,0.0,0.0,0.0,0.0,0.0,0.0,0.0,0.0,0.0,0.0,0.0,0.0,0.0,0.0,0.0,0.0,0.0,0.0,0.0,0.0,0.0,0.0,0.0,0.0,0.0,0.0,1.3846,1.4332,1.4864,1.5235,1.541,1.541,1.541,1.541,0.0,0.0,0.0,1.541,1.541,1.541,1.541,1.541,1.5664,0.0,0.0,1.827,0.0,0.0,0.0,0.0,0.0,0.0,0.0,0.0,0.0,0.0,0.0,0.0,0.0,2.9129,3.0269,3.1087,3.1409,3.1482,3.1482,3.1482,3.1482,3.1482,3.1482,3.2213,3.3499,3.3499,3.4233,3.5504,0.0,0.0,0.0,3.5504,3.5504,3.5504,3.5504,3.5504,3.5504,3.5504,3.5504,3.5504,0.0,0.0,0.0,0.0,0.0,0.0,0.0,0.0,0.0,0.0,0.0,0.0,0.0,0.0,0.0,0.0,0.0,0.0,0.0,0.0,0.0,0.0,0.0,0.0,0.0,0.0,0.0,0.0,0.0,0.0,0.0,0.0,0.0,0.0,0.0,0.0,0.0,0.0,0.0,0.0,0.0,0.0,0.0,0.0,0.0,0.0,0.0,0.0,0.0,0.0,0.0,0.0,0.0,0.0,0.0,0.0,1.2923,1.4213,1.4204,1.4805,1.541,1.541,1.541,1.541,0.0,0.0,0.0,1.541,1.541,1.541,1.541,1.541,1.5557,1.6056,1.7144,0.0,1.8543,0.0,0.0,0.0,0.0,0.0,0.0,0.0,0.0,0.0,0.0,0.0,0.0,2.8556,2.938,3.0269,3.1087,3.1482,3.1482,3.1482,3.1482,3.1482,3.1482,3.2213,3.3499,3.3499,3.4233,0.0,0.0,0.0,0.0,3.5504,3.5504,3.5504,3.5504,3.5504,3.5504,3.5504,3.5504,3.5504,0.0,0.0,0.0,0.0,0.0,0.0,0.0,0.0,0.0,0.0,0.0,0.0,0.0,0.0,0.0,0.0,0.0,0.0,0.0,0.0,0.0,0.0,0.0,0.0,0.0,0.0,0.0,0.0,0.0,0.0,0.0,0.0,0.0,0.0,0.0,0.0,0.0,0.0,0.0,0.0,0.0,0.0,0.0,0.0,0.0,0.0,0.0,0.0,0.0,0.0,0.0,0.0,0.0,0.0,0.0,0.0,0.0,0.0,1.3243,1.3974,1.4569,1.4569,1.4991,1.541,1.541,0.0,0.0,1.541,1.541,1.541,1.541,1.541,1.5557,1.5986,1.6673,1.7246,0.0,0.0,0.0,0.0,0.0,0.0,0.0,0.0,0.0,0.0,0.0,0.0,0.0,2.767,2.8812,3.0269,3.1087,3.1482,3.1482,3.1482,3.1482,3.1482,3.1482,3.2213,3.3499,3.3499,0.0,0.0,0.0,0.0,0.0,3.5504,3.5504,3.5504,3.5504,3.5504,3.5504,3.5504,3.5504,3.5504,0.0,0.0,0.0,0.0,0.0,0.0,0.0,0.0,0.0,0.0,0.0,0.0,0.0,0.0,0.0,0.0,0.0,0.0,0.0,0.0,0.0,0.0,0.0,0.0,0.0,0.0,0.0,0.0,0.0,0.0,0.0,0.0,0.0,0.0,0.0,0.0,0.0,0.0,0.0,0.0,0.0,0.0,0.3791,0.0,0.0,0.0,0.0,0.0,0.0,0.0,0.0,0.0,0.0,0.0,0.0,0.0,0.0,0.0,0.0,1.3364,1.4213,1.4213,1.4805,0.0,0.0,0.0,0.0,0.0,1.541,1.541,1.541,1.541,1.5498,1.5771,1.6328,1.6953,1.753,0.0,0.0,0.0,0.0,0.0,0.0,0.0,0.0,0.0,0.0,0.0,0.0,0.0,2.8182,2.9254,3.045,3.1219,3.1482,3.1482,3.1482,3.1482,3.1482,3.2093,3.314,3.338,0.0,0.0,0.0,0.0,0.0,3.5504,3.5504,3.5504,3.5504,3.5504,3.5504,3.5504,3.5504,3.5504,0.0,0.0,0.0,0.0,0.0,0.0,0.0,0.0,0.0,0.0,0.0,0.0,0.0,0.0,0.0,0.0,0.0,0.0,0.0,0.0,0.0,0.0,0.0,0.0,0.0,0.0,0.0,0.0,-0.0,-0.0,-0.0,0.0,0.0,0.0,0.0,0.0,0.0,0.0,0.0,0.0,0.0,0.0,0.0,0.0,0.0,0.0,0.0,0.0,0.0,0.0,0.0,0.0,0.0,0.0,0.0,0.0,0.0,0.0,0.0,0.0,0.0,0.0,0.0,0.0,0.0,0.0,0.0,0.0,0.0,1.541,1.541,1.541,1.541,1.541,1.6152,1.6971,0.0,0.0,0.0,0.0,0.0,0.0,0.0,0.0,0.0,0.0,0.0,0.0,0.0,0.0,2.767,2.767,2.9317,3.0584,3.1409,3.1467,3.1482,3.1482,3.1482,3.1884,3.2542,3.32,0.0,0.0,0.0,0.0,0.0,3.5504,3.5504,3.5504,3.5504,3.5504,3.5504,3.5504,3.5504,3.5504,0.0,0.0,0.0,0.0,0.0,0.0,0.0,0.0,0.0,0.0,0.0,0.0,0.0,0.0,0.0,0.0,0.0,0.0,0.0,0.0,0.0,0.0,0.0,0.0,0.0,0.0,0.0,-0.0,-0.0,-0.0,-0.0,-0.0,0.0,0.0,0.0,0.0,0.0,0.0,0.0,0.0,0.0,0.0,0.0,0.0,0.0,0.0,0.4233,0.4368,0.0,0.0,0.0,0.0,0.0,0.0,0.0,0.0,1.0327,0.0,0.0,0.0,0.0,0.0,0.0,0.0,0.0,0.0,0.0,0.0,0.0,1.541,1.541,1.541,1.541,1.541,1.6152,1.6971,1.7873,0.0,0.0,0.0,0.0,0.0,0.0,0.0,0.0,0.0,0.0,0.0,0.0,0.0,2.704,2.767,2.8748,2.969,3.0584,3.1219,3.1482,3.1482,3.1482,3.1884,3.2542,3.32,0.0,0.0,0.0,0.0,3.5504,3.5504,3.5504,3.5504,3.5504,3.5504,3.5504,3.5504,3.5504,3.5504,0.0,0.0,0.0,0.0,0.0,0.0,0.0,0.0,0.0,0.0,0.0,0.0,0.0,0.0,0.0,0.0,0.0,0.0,0.0,0.0,0.0,0.0,0.0,0.0,0.0,0.0,0.0,0.0,0.0,-0.0,0.0,0.0,0.0,0.0,0.0,0.0,0.0,0.0,0.0,0.0,0.0,0.0,0.0,0.0,0.0,0.0,0.414,0.4552,0.0,0.6204,0.6804,0.7311,0.0,0.0,0.0,0.0,1.0221,0.0,0.0,0.0,0.0,0.0,0.0,0.0,0.0,0.0,0.0,0.0,0.0,0.0,1.541,0.0,0.0,1.541,1.6447,0.0,0.0,0.0,0.0,0.0,0.0,0.0,0.0,0.0,0.0,0.0,0.0,0.0,0.0,0.0,2.6714,2.7162,2.8363,2.9442,3.0269,3.1087,3.1482,3.1482,3.1482,3.1719,3.2093,3.3051,0.0,0.0,0.0,0.0,3.5504,3.5504,3.5504,3.5504,3.5504,3.5504,3.5504,3.5504,3.5504,3.5504,0.0,0.0,0.0,0.0,0.0,0.0,0.0,0.0,0.0,0.0,0.0,0.0,0.0,0.0,0.0,0.0,0.0,0.0,0.0,0.0,0.0,0.0,0.0,0.0,0.0,0.0,0.0,0.0,0.0,0.0,0.0,0.0,0.0,0.0,0.0,0.0,0.0,0.0,0.0,0.0,0.3581,0.0,0.0,0.0,0.0,0.0,0.0,0.0,0.0,0.6475,0.7182,0.783,0.8586,0.0,0.0,0.0,0.0,0.0,0.0,0.0,0.0,0.0,0.0,0.0,0.0,0.0,0.0,0.0,0.0,0.0,0.0,0.0,0.0,0.0,0.0,0.0,0.0,0.0,0.0,0.0,0.0,0.0,0.0,0.0,0.0,0.0,0.0,0.0,0.0,0.0,0.0,2.6533,2.7986,2.9192,2.9889,3.097,3.1409,3.1351,3.1409,3.1482,3.1526,3.2901,0.0,0.0,0.0,0.0,3.5504,3.5504,3.5504,3.5504,3.5504,3.5504,3.5504,3.5504,3.5504,3.5504,0.0,0.0,0.0,0.0,0.0,0.0,0.0,0.0,0.0,0.0,0.0,0.0,0.0,0.0,0.0,0.0,0.0,0.0,0.0,0.0,0.0,0.0,0.0,0.0,0.0,0.0,0.0,0.0,0.0,0.0,0.3021,0.1981,0.207,0.0,0.0,0.0,0.0,0.3585,0.3581,0.3581,0.0,0.0,0.0,0.0,0.0,0.0,0.0,0.0,0.0,0.7069,0.7616,0.783,0.8586,0.0,0.0,0.0,0.0,0.0,0.0,0.0,0.0,0.0,0.0,0.0,0.0,0.0,0.0,0.0,0.0,0.0,0.0,0.0,0.0,0.0,0.0,0.0,0.0,0.0,0.0,0.0,0.0,0.0,0.0,0.0,0.0,0.0,0.0,0.0,0.0,0.0,0.0,2.6533,2.7417,2.7986,2.8117,3.0329,3.1161,3.0524,3.1161,3.1482,3.1526,3.2901,3.3499,0.0,0.0,3.5504,3.5504,3.5504,3.5504,3.5504,3.5504,3.5504,3.5504,3.5504,3.5504,3.5504,0.0,0.0,0.0,0.0,0.0,0.0,0.0,0.0,0.0,0.0,0.0,0.0,0.0,0.0,0.0,0.0,0.0,0.0,0.0,0.0,0.0,0.0,0.0,0.0,0.0,0.0,0.0,0.0,0.0,0.2605,0.2603,0.2062,0.2424,0.3557,0.0,0.0,0.0,0.3581,0.3581,0.3581,0.0,0.0,0.0,0.0,0.0,0.0,0.0,0.0,0.0,0.0,0.7943,0.8374,0.8699,0.0,0.0,0.0,0.0,0.0,0.0,0.0,0.0,0.0,0.0,0.0,0.0,0.0,0.0,0.0,0.0,0.0,0.0,0.0,0.0,0.0,0.0,0.0,0.0,0.0,0.0,0.0,0.0,0.0,0.0,0.0,0.0,0.0,0.0,0.0,0.0,0.0,0.0,0.0,2.7297,2.7484,2.704,2.9566,3.0644,3.0329,3.1087,3.1482,3.1526,3.2901,3.3499,3.3559,0.0,3.5504,3.5504,3.5504,3.5504,3.5504,3.5504,3.5504,3.5504,3.5504,3.5504,3.5504,0.0,0.0,0.0,0.0,0.0,0.0,0.0,0.0,0.0,0.0,0.0,0.0,0.0,0.0,0.0,0.0,0.0,0.0,0.0,0.0,0.0,0.0,0.0,0.0,0.0,0.0,0.0,0.2235,0.2235,0.2235,0.2235,0.2233,0.2729,0.0,0.0,0.0,0.0,0.3581,0.3581,0.3581,0.0,0.0,0.0,0.0,0.0,0.0,0.0,0.0,0.0,0.0,0.0,0.0,0.0,0.0,0.0,0.0,0.0,1.0807,1.1834,0.0,0.0,0.0,0.0,0.0,0.0,0.0,0.0,0.0,0.0,0.0,0.0,0.0,0.0,0.0,0.0,0.0,0.0,0.0,0.0,0.0,0.0,0.0,0.0,0.0,0.0,0.0,0.0,0.0,0.0,0.0,0.0,0.0,2.7095,2.7095,2.6533,2.8812,3.0011,3.0011,3.1029,3.1482,3.1526,3.2901,3.3499,3.3559,3.4921,3.5504,3.5504,3.5504,3.5504,3.5504,3.5504,3.5504,3.5504,3.5504,3.5504,3.5534,0.0,0.0,0.0,0.0,0.0,0.0,0.0,0.0,0.0,0.0,0.0,0.0,0.0,0.0,0.0,0.0,0.0,0.0,0.0,0.0,0.0,0.0,0.0,0.0,0.0,0.3499,0.3458,0.3458,0.3458,0.3458,0.3458,0.3448,0.3534,0.3581,0.0,0.0,0.3581,0.3581,0.3581,0.3581,0.3581,0.0,0.0,0.0,0.0,0.0,0.0,0.0,0.0,0.0,0.0,0.0,0.0,0.0,0.0,0.0,0.0,1.0926,1.252,1.2948,0.0,0.0,0.0,0.0,0.0,0.0,0.0,0.0,0.0,0.0,0.0,0.0,0.0,0.0,0.0,0.0,0.0,0.0,0.0,0.0,0.0,0.0,0.0,0.0,0.0,0.0,0.0,0.0,0.0,0.0,0.0,0.0,0.0,2.6589,2.6533,2.8247,2.9066,2.9129,3.0718,3.1482,3.1526,3.2901,3.3499,3.3559,3.4921,3.5504,3.5504,3.5504,3.5504,3.5504,3.5504,3.5504,3.5504,3.5504,3.5504,3.5594,0.0,0.0,0.0,0.0,0.0,0.0,0.0,0.0,0.0,0.0,0.0,0.0,0.0,0.0,0.0,0.0,0.0,0.0,0.0,0.0,0.0,0.0,0.0,0.5047,0.4657,0.4272,0.41,0.41,0.3759,0.3588,0.3588,0.3581,0.0,0.0,0.0,0.0,0.0,0.3581,0.3796,0.4092,0.4092,0.4422,0.0,0.0,0.0,0.0,0.0,0.0,0.0,0.0,0.0,0.0,0.0,0.0,0.0,0.0,0.0,1.1593,1.2704,1.3373,0.0,0.0,0.0,0.0,0.0,0.0,0.0,0.0,0.0,0.0,0.0,0.0,0.0,0.0,0.0,0.0,0.0,0.0,0.0,0.0,0.0,0.0,0.0,0.0,0.0,0.0,0.0,0.0,0.0,0.0,0.0,0.0,0.0,2.6533,2.6533,2.7604,2.8182,2.8247,3.045,3.1482,3.1526,3.2901,3.3499,3.3559,3.4921,3.5504,3.5504,3.5504,3.5504,3.5504,3.5504,3.5504,3.5504,3.5504,3.5504,3.5609,0.0,0.0,0.0,0.0,0.0,0.0,0.0,0.0,0.0,0.0,0.0,0.0,0.0,0.0,0.0,0.0,0.0,0.0,0.0,0.0,0.0,0.0,0.0,0.5819,0.5819,0.5087,0.4609,0.4387,0.388,0.3581,0.3581,0.0,0.0,0.0,0.0,0.0,0.0,0.0,0.418,0.47,0.4759,0.5181,0.0,0.0,0.0,0.0,0.0,0.0,0.0,0.0,0.0,0.0,0.0,0.0,0.0,0.0,0.0,0.0,1.3061,1.3786,0.0,0.0,0.0,0.0,0.0,0.0,0.0,0.0,0.0,0.0,0.0,0.0,0.0,0.0,0.0,0.0,0.0,0.0,0.0,0.0,0.0,0.0,0.0,0.0,0.0,0.0,0.0,0.0,0.0,0.0,0.0,0.0,0.0,0.0,2.6533,2.7537,2.8117,2.8117,3.0389,3.1351,3.1205,3.2765,3.3499,3.3559,3.4921,3.5504,3.5504,3.5504,3.5504,3.5504,3.5504,3.5504,3.5504,3.5504,3.5504,3.5624,0.0,0.0,0.0,0.0,0.0,0.0,0.0,0.0,0.0,0.0,0.0,0.0,0.0,0.0,0.0,0.0,0.0,0.0,0.0,0.0,0.0,0.0,0.0,0.6979,0.6979,0.5905,0.5,0.4387,0.388,0.3626,0.3626,0.0,0.0,0.0,0.0,0.0,0.0,0.0,0.4739,0.5328,0.5596,0.5728,0.5872,0.0,0.0,0.0,0.0,0.0,0.0,0.0,0.0,0.0,0.0,0.0,0.0,0.0,0.0,1.2197,1.3786,0.0,0.0,0.0,0.0,0.0,0.0,0.0,0.0,0.0,0.0,0.0,0.0,0.0,0.0,0.0,0.0,0.0,0.0,0.0,0.0,0.0,0.0,0.0,0.0,0.0,0.0,0.0,0.0,0.0,0.0,0.0,0.0,0.0,0.0,0.0,2.6533,2.8182,2.9002,2.9002,3.0703,3.1102,3.0387,3.2507,3.3499,3.3574,3.4921,3.5504,3.5504,3.5504,3.5504,3.5504,3.5504,3.5504,3.5504,3.5504,3.5504,3.5684,0.0,0.0,0.0,0.0,0.0,0.0,0.0,0.0,0.0,0.0,0.0,0.0,0.0,0.0,0.0,0.0,0.0,0.0,0.0,0.0,0.0,0.0,0.0,0.0,0.0,0.0,0.5226,0.3836,0.4049,0.4176,0.0,0.0,0.0,0.5043,0.0,0.0,0.0,0.0,0.567,0.6242,0.6538,0.7038,0.7622,0.0,0.0,0.0,0.0,0.0,0.0,0.0,0.0,0.0,0.0,0.0,0.0,0.0,1.2472,1.3597,1.4085,0.0,0.0,0.0,0.0,0.0,0.0,0.0,0.0,0.0,0.0,0.0,0.0,0.0,0.0,0.0,0.0,0.0,0.0,0.0,0.0,0.0,0.0,0.0,0.0,0.0,0.0,0.0,0.0,0.0,0.0,0.0,0.0,0.0,0.0,0.0,2.6533,2.7537,2.8117,2.8117,2.9827,3.1071,3.1871,3.2974,3.3754,3.4233,3.5115,3.5504,3.5504,3.5504,3.5504,3.5504,3.5504,3.5504,3.5504,3.5504,3.5504,3.5684,0.0,0.0,0.0,0.0,0.0,0.0,0.0,0.0,0.0,0.0,0.0,0.0,0.0,0.0,0.0,0.0,0.0,0.0,0.0,0.0,0.0,0.0,0.0,0.0,0.0,0.6349,0.5572,0.0,0.0,0.0,0.0,0.0,0.0,0.5653,0.0,0.5614,0.0,0.0,0.6607,0.7518,0.7586,0.8098,0.877,0.0,0.0,0.0,0.0,0.0,0.0,0.0,0.0,0.0,0.0,0.0,0.0,0.0,1.323,1.4273,0.0,0.0,0.0,0.0,0.0,0.0,0.0,0.0,0.0,0.0,0.0,0.0,0.0,0.0,0.0,0.0,0.0,0.0,0.0,0.0,0.0,0.0,0.0,0.0,0.0,0.0,0.0,0.0,0.0,0.0,0.0,0.0,0.0,0.0,0.0,0.0,2.6973,2.7802,2.8363,2.8748,3.0133,3.15,3.2916,3.332,3.3858,3.4517,3.5205,3.5504,3.5504,3.5504,3.5504,3.5504,3.5504,3.5504,3.5504,3.5504,3.5504,3.5684,0.0,0.0,0.0,0.0,0.0,0.0,0.0,0.0,0.0,0.0,0.0,0.0,0.0,0.0,0.0,0.0,0.0,0.0,0.0,0.0,0.0,0.0,0.0,0.0,0.0,0.0,0.0,0.0,0.0,0.0,0.0,0.0,0.5739,0.6264,0.0,0.6287,0.0,0.7069,0.7682,0.9003,0.8721,0.8998,0.9509,0.9106,0.0,0.0,0.0,0.0,0.0,0.0,0.0,0.0,0.0,0.0,0.0,0.0,1.3705,0.0,0.0,0.0,0.0,0.0,0.0,0.0,0.0,0.0,0.0,0.0,0.0,0.0,0.0,0.0,0.0,0.0,0.0,0.0,0.0,0.0,0.0,0.0,0.0,0.0,0.0,0.0,0.0,0.0,0.0,0.0,0.0,0.0,0.0,0.0,0.0,0.0,2.767,2.8492,2.938,0.0,3.1029,3.2154,3.3499,3.3499,3.3888,3.4607,3.5235,3.5504,3.5504,3.5504,3.5504,3.5504,3.5504,3.5504,3.5504,3.5504,3.5504,3.5684,0.0,0.0,0.0,0.0,0.0,0.0,0.0,0.0,0.0,0.0,0.0,0.0,0.0,0.0,0.0,0.0,0.0,0.0,0.0,0.0,0.0,0.0,0.0,0.0,0.0,0.0,0.0,0.0,0.0,0.0,0.0,0.0,0.0,0.6823,0.0,0.7483,0.0,0.866,0.9293,1.0107,1.021,1.0354,1.0513,1.0383,1.0364,0.0,0.0,0.0,0.0,0.0,0.0,0.0,0.0,1.2529,1.3683,1.3853,0.0,0.0,0.0,0.0,0.0,0.0,0.0,0.0,0.0,0.0,0.0,0.0,0.0,0.0,0.0,0.0,0.0,0.0,0.0,0.0,0.0,0.0,0.0,0.0,0.0,0.0,0.0,0.0,0.0,0.0,0.0,0.0,0.0,0.0,0.0,0.0,0.0,2.6905,2.767,2.7855,2.8748,0.0,3.0464,3.1571,3.3499,3.3499,3.4143,3.5295,3.5444,3.5504,3.5504,3.5504,3.5504,3.5504,3.5504,3.5504,3.5504,3.5504,3.5504,3.5684,0.0,0.0,0.0,0.0,0.0,0.0,0.0,0.0,0.0,0.0,0.0,0.0,0.0,0.0,0.0,0.0,0.0,0.0,0.0,0.0,0.0,0.0,0.0,0.0,0.0,0.0,0.0,0.0,0.0,0.0,0.0,0.0,0.0,0.7241,0.0,0.8032,0.8935,0.9283,1.0051,1.104,1.0889,1.1015,1.1266,1.0914,1.0813,1.0864,1.1166,0.0,0.0,0.0,0.0,0.0,0.0,0.0,1.4116,1.4385,1.4902,0.0,0.0,0.0,0.0,0.0,0.0,0.0,0.0,0.0,0.0,0.0,0.0,0.0,0.0,0.0,0.0,0.0,0.0,0.0,0.0,0.0,0.0,0.0,0.0,0.0,0.0,0.0,0.0,0.0,0.0,0.0,0.0,0.0,0.0,0.0,2.6533,2.7095,2.8298,2.8298,2.9192,3.0896,3.0896,3.1781,3.3514,3.4158,3.4846,3.5504,3.5504,3.5504,3.5504,3.5504,3.5504,3.5504,3.5504,3.5504,3.5504,3.5504,3.5504,3.5684,0.0,0.0,0.0,0.0,0.0,0.0,0.0,0.0,0.0,0.0,0.0,0.0,0.0,0.0,0.0,0.0,0.0,0.0,0.0,0.0,0.0,0.0,0.0,0.0,0.0,0.0,0.0,0.0,0.0,0.0,0.0,0.0,0.0,0.7692,0.0,0.0,0.9768,0.9774,1.0648,1.1922,1.1375,1.1475,1.1922,1.1375,1.1174,1.1225,1.1774,1.1972,1.208,1.2715,0.0,0.0,0.0,0.0,1.4165,1.4658,1.5078,1.541,0.0,0.0,0.0,0.0,0.0,0.0,0.0,0.0,0.0,0.0,0.0,0.0,0.0,0.0,0.0,0.0,0.0,0.0,0.0,0.0,0.0,0.0,0.0,0.0,0.0,0.0,0.0,0.0,0.0,0.0,0.0,0.0,2.6533,2.6533,2.6658,2.7484,2.9002,2.9002,2.9827,3.1482,3.1706,3.2437,3.3544,3.4891,3.5504,3.5504,3.5504,3.5504,3.5504,3.5504,3.5504,3.5504,3.5504,3.5504,3.5504,3.5504,3.5504,3.5684,0.0,0.0,0.0,0.0,0.0,0.0,0.0,0.0,0.0,0.0,0.0,0.0,0.0,0.0,0.0,0.0,0.0,0.0,0.0,0.0,0.0,0.0,0.0,0.0,0.0,0.0,0.0,0.0,0.0,0.0,0.0,0.0,0.0,0.0,0.0,0.0,0.0,1.1394,1.1984,1.2774,1.2666,1.2666,1.2725,1.2666,1.2618,1.2618,1.2725,1.2764,1.2774,1.2881,1.2881,0.0,0.0,0.0,0.0,0.0,0.0,0.0,0.0,0.0,0.0,0.0,0.0,0.0,0.0,0.0,0.0,0.0,0.0,0.0,0.0,0.0,0.0,0.0,0.0,0.0,0.0,0.0,0.0,0.0,0.0,0.0,0.0,0.0,0.0,0.0,0.0,0.0,0.0,2.6533,2.6533,2.6533,2.7162,2.7986,2.9002,2.9002,2.9827,3.1482,3.2691,3.332,3.3544,3.4891,3.5504,3.5504,3.5504,3.5504,3.5504,3.5504,3.5504,3.5504,3.5504,3.5504,3.5504,3.5504,3.5504,3.5684,0.0,0.0,0.0,0.0,0.0,0.0,0.0,0.0,0.0,0.0,0.0,0.0,0.0,0.0,0.0,0.0,0.0,0.0,0.0,0.0,0.0,0.0,0.0,0.0,0.0,0.0,0.0,0.0,0.0,0.0,0.0,0.9167,0.9074,0.0,0.0,0.0,0.0,0.0,0.0,1.2881,1.2881,1.3104,1.3372,1.3017,1.3104,1.3372,1.3017,1.2881,1.2881,1.2881,1.3037,1.3311,0.0,0.0,0.0,0.0,0.0,0.0,0.0,0.0,0.0,0.0,0.0,0.0,0.0,0.0,0.0,0.0,0.0,0.0,0.0,0.0,0.0,0.0,0.0,0.0,0.0,0.0,0.0,0.0,0.0,0.0,0.0,0.0,0.0,0.0,0.0,0.0,2.6533,2.6905,2.7162,2.7162,2.7986,0.0,2.969,2.9752,3.0329,3.1497,3.2871,3.3499,3.3544,3.4891,3.5504,3.5504,3.5504,3.5504,3.5504,3.5504,3.5504,3.5504,3.5504,3.5504,3.5504,3.5504,3.5504,3.5684,0.0,0.0,0.0,0.0,0.0,0.0,0.0,0.0,0.0,0.0,0.0,0.0,0.0,0.0,0.0,0.0,0.0,0.0,0.0,0.0,0.0,0.0,0.0,0.0,0.0,0.0,0.0,0.0,0.0,0.0,1.0249,1.0681,1.0527,0.0,1.0514,0.0,0.0,0.0,0.0,0.0,0.0,1.342,1.3779,1.3478,1.3647,1.3978,1.3649,1.3555,1.3575,1.3491,1.3691,1.3979,1.4214,0.0,0.0,0.0,0.0,0.0,0.0,0.0,0.0,0.0,0.0,0.0,0.0,0.0,0.0,0.0,0.0,0.0,0.0,0.0,0.0,0.0,0.0,0.0,0.0,0.0,0.0,0.0,0.0,0.0,0.0,0.0,0.0,0.0,0.0,0.0,2.6533,2.7484,2.792,2.7736,2.8748,2.9628,3.0269,3.0524,3.0896,3.1497,3.2871,3.3499,3.3544,3.4891,3.5504,3.5504,3.5504,3.5504,3.5504,3.5504,3.5504,3.5504,3.5504,3.5504,3.5504,3.5504,3.5609,3.5908,0.0,0.0,0.0,0.0,0.0,0.0,0.0,0.0,0.0,0.0,0.0,0.0,0.0,0.0,0.0,0.0,0.0,0.0,0.0,0.0,0.0,0.0,0.0,0.0,0.0,0.0,0.0,0.0,0.0,0.0,1.1154,1.1827,1.194,1.1688,1.1729,1.212,1.2822,0.0,0.0,0.0,0.0,0.0,0.0,0.0,1.4606,1.4719,0.0,0.0,1.5326,1.5116,1.507,1.5081,0.0,0.0,0.0,0.0,0.0,0.0,0.0,0.0,0.0,0.0,0.0,0.0,0.0,0.0,0.0,0.0,0.0,0.0,0.0,0.0,0.0,0.0,0.0,0.0,0.0,0.0,0.0,0.0,0.0,0.0,0.0,0.0,0.0,0.0,0.0,0.0,2.6521,2.8051,2.8556,2.7736,2.938,3.0269,3.0329,3.1087,3.1467,3.1497,3.2871,3.3499,3.3544,3.4891,3.5504,3.5504,3.5504,3.5504,3.5504,3.5504,3.5504,3.5504,3.5504,3.5504,3.5504,3.5504,3.5893,3.6537,0.0,0.0,0.0,0.0,0.0,0.0,0.0,0.0,0.0,0.0,0.0,0.0,0.0,0.0,0.0,0.0,0.0,0.0,0.0,0.0,0.0,0.0,0.0,0.0,0.0,0.0,0.0,0.0,0.0,1.2068,1.2291,1.2541,1.2628,1.2501,1.2501,1.2666,1.2881,1.2881,0.0,0.0,0.0,0.0,0.0,0.0,0.0,0.0,0.0,0.0,0.0,1.597,0.0,0.0,0.0,0.0,0.0,0.0,0.0,0.0,0.0,0.0,0.0,0.0,0.0,0.0,0.0,0.0,0.0,0.0,0.0,0.0,0.0,0.0,0.0,0.0,0.0,0.0,0.0,0.0,0.0,0.0,0.0,0.0,0.0,0.0,0.0,0.0,0.0,0.0,2.7271,2.8876,2.969,2.938,3.0464,3.1087,3.1087,3.1351,3.1482,3.1497,3.2871,3.3499,3.3544,3.4891,3.5504,3.5504,3.5504,3.5504,3.5504,3.5504,3.5504,3.5504,3.5504,3.5504,3.5504,3.5504,3.5923,3.6582,0.0,0.0,0.0,0.0,0.0,0.0,0.0,0.0,0.0,0.0,0.0,0.0,0.0,0.0,0.0,0.0,0.0,0.0,0.0,0.0,0.0,0.0,0.0,0.0,0.0,0.0,0.0,0.0,0.0,0.0,0.0,0.0,1.3104,1.2929,1.3104,0.0,0.0,0.0,0.0,1.3826,0.0,0.0,1.5909,0.0,0.0,0.0,0.0,0.0,0.0,0.0,0.0,0.0,0.0,0.0,0.0,0.0,0.0,0.0,0.0,0.0,0.0,0.0,0.0,0.0,0.0,0.0,0.0,0.0,0.0,0.0,0.0,0.0,0.0,0.0,0.0,0.0,0.0,0.0,0.0,0.0,0.0,0.0,0.0,0.0,0.0,0.0,0.0,0.0,2.809,2.9766,3.0703,3.0703,3.1219,3.1482,3.1482,3.1482,3.1482,3.1497,3.2871,3.3499,3.3544,3.4891,3.5504,3.5504,3.5504,3.5504,3.5504,3.5504,3.5504,3.5504,3.5504,3.5504,3.5504,3.5504,3.6043,3.6851,0.0,0.0,0.0,0.0,0.0,0.0,0.0,0.0,0.0,0.0,0.0,0.0,0.0,0.0,0.0,0.0,0.0,0.0,0.0,0.0,0.0,0.0,0.0,0.0,0.0,0.0,0.0,0.0,0.0,0.0,0.0,0.0,1.3505,0.0,1.3552,1.3467,1.2988,0.0,1.3826,1.401,0.0,1.6419,1.6596,0.0,0.0,0.0,1.8857,1.8995,0.0,0.0,0.0,0.0,0.0,0.0,0.0,0.0,0.0,0.0,0.0,0.0,0.0,0.0,0.0,0.0,0.0,0.0,0.0,0.0,0.0,0.0,0.0,0.0,0.0,0.0,0.0,0.0,0.0,0.0,0.0,0.0,0.0,0.0,0.0,0.0,0.0,0.0,0.0,2.8463,2.9024,3.0584,3.1482,3.1482,3.1482,3.1482,3.1482,3.1482,3.1482,3.1526,3.2871,3.3499,3.3559,3.4906,3.5504,3.5504,3.5504,3.5504,3.5504,3.5504,3.5504,3.5504,3.5504,3.5504,3.5504,3.5504,3.6312,3.7404,0.0,0.0,0.0,0.0,0.0,0.0,0.0,0.0,0.0,0.0,0.0,0.0,0.0,0.0,0.0,0.0,0.0,0.0,0.0,0.0,0.0,0.0,0.0,0.0,0.0,0.0,0.0,0.0,0.0,0.0,0.0,0.0,0.0,0.0,1.3732,1.3909,1.4115,1.3868,0.0,0.0,1.6208,1.718,0.0,0.0,0.0,0.0,0.0,1.9585,0.0,0.0,1.9475,1.9475,0.0,0.0,0.0,0.0,0.0,0.0,1.9423,0.0,0.0,0.0,0.0,0.0,0.0,0.0,0.0,0.0,0.0,0.0,0.0,0.0,0.0,0.0,0.0,0.0,0.0,0.0,0.0,0.0,0.0,0.0,0.0,0.0,0.0,0.0,2.751,2.8795,2.9893,3.0896,3.1482,3.1482,3.1482,3.1482,3.1482,3.1482,3.1764,3.2258,3.3095,3.3739,3.4233,3.5115,3.5504,3.5504,3.5504,3.5504,3.5504,3.5504,3.5504,3.5504,3.5504,3.5504,3.5504,3.5504,3.6312,3.7404,0.0,0.0,0.0,0.0,0.0,0.0,0.0,0.0,0.0,0.0,0.0,0.0,0.0,0.0,0.0,0.0,0.0,0.0,0.0,0.0,0.0,0.0,0.0,0.0,0.0,0.0,0.0,0.0,0.0,0.0,0.0,0.0,0.0,0.0,0.0,0.0,0.0,0.0,0.0,0.0,1.7597,0.0,0.0,1.9974,2.0377,0.0,0.0,0.0,2.0521,1.9991,1.9798,0.0,0.0,0.0,0.0,0.0,0.0,0.0,0.0,0.0,0.0,0.0,0.0,0.0,0.0,1.9798,0.0,0.0,0.0,0.0,0.0,0.0,0.0,0.0,0.0,0.0,0.0,0.0,0.0,0.0,0.0,0.0,0.0,0.0,0.0,0.0,2.7867,2.9088,3.0704,3.1219,3.1482,3.1482,3.1482,3.1482,3.1482,3.1482,3.1869,3.2527,3.3185,3.3844,3.4502,3.519,3.5504,3.5504,3.5504,3.5504,3.5504,3.5504,3.5504,3.5504,3.5504,3.5504,3.5504,3.5504,3.6312,3.7404,0.0,0.0,0.0,0.0,0.0,0.0,0.0,0.0,0.0,0.0,0.0,0.0,0.0,0.0,0.0,0.0,0.0,0.0,0.0,0.0,0.0,0.0,0.0,0.0,0.0,0.0,0.0,0.0,0.0,0.0,0.0,0.0,0.0,0.0,0.0,0.0,0.0,0.0,0.0,1.7824,1.9361,2.0072,0.0,0.0,2.1758,0.0,2.1113,2.1245,2.1506,2.037,1.9991,0.0,0.0,0.0,0.0,0.0,1.9901,0.0,0.0,0.0,0.0,0.0,0.0,0.0,1.9798,1.9798,1.9798,0.0,0.0,0.0,0.0,0.0,0.0,0.0,0.0,0.0,0.0,0.0,0.0,0.0,0.0,0.0,0.0,0.0,2.5584,2.8095,2.8481,2.9461,3.1407,3.1482,3.1482,3.1482,3.1482,3.1482,3.1482,3.1482,3.1898,3.2632,3.3215,3.3888,3.4607,3.5235,3.5504,3.5504,3.5504,3.5504,3.5504,3.5504,3.5504,3.5504,3.5504,3.5504,3.5504,3.5504,3.6312,3.7404,0.0,0.0,0.0,0.0,0.0,0.0,0.0,0.0,0.0,0.0,0.0,0.0,0.0,0.0,0.0,0.0,0.0,0.0,0.0,0.0,0.0,0.0,0.0,0.0,0.0,0.0,0.0,0.0,0.0,0.0,0.0,0.0,0.0,0.0,0.0,0.0,0.0,0.0,0.0,2.0132,2.0022,0.0,2.1403,2.1608,2.2053,2.2406,2.1758,2.1615,2.1649,0.0,2.1315,2.1315,0.0,0.0,0.0,0.0,0.0,0.0,0.0,0.0,0.0,0.0,0.0,0.0,1.9798,1.9798,1.9798,0.0,0.0,0.0,0.0,0.0,0.0,0.0,0.0,0.0,0.0,0.0,0.0,0.0,0.0,0.0,0.0,0.0,2.6543,2.7561,2.9189,3.0488,3.1437,3.1482,3.1482,3.1482,3.1482,3.1482,3.1482,3.1482,3.2138,3.3305,3.344,3.4128,3.531,3.5444,3.5504,3.5504,3.5504,3.5504,3.5504,3.5504,3.5504,3.5504,3.5504,3.5504,3.5504,3.5504,3.6312,3.7404,0.0,0.0,0.0,0.0,0.0,0.0,0.0,0.0,0.0,0.0,0.0,0.0,0.0,0.0,0.0,0.0,0.0,0.0,0.0,0.0,0.0,0.0,0.0,0.0,0.0,0.0,0.0,0.0,0.0,0.0,0.0,0.0,0.0,0.0,0.0,0.0,0.0,0.0,1.9964,2.0818,2.0839,0.0,2.2239,2.2515,2.2846,2.3054,2.2438,2.1993,2.1744,2.21,2.1993,0.0,0.0,2.1697,2.1663,0.0,2.1028,2.0759,0.0,0.0,0.0,1.9798,0.0,0.0,0.0,1.9798,1.9798,1.9798,0.0,0.0,0.0,0.0,0.0,0.0,0.0,0.0,0.0,0.0,0.0,0.0,0.0,0.0,0.0,0.0,2.7074,2.8429,2.9788,3.0806,3.1437,3.1482,3.1482,3.1482,3.1482,3.1482,3.1482,3.1482,3.2198,3.3499,3.3499,3.4203,3.5504,3.5504,3.5504,3.5504,3.5504,3.5504,3.5504,3.5504,3.5504,3.5504,3.5504,3.5504,3.5504,3.5504,3.6312,3.7404,0.0,0.0,0.0,0.0,0.0,0.0,0.0,0.0,0.0,0.0,0.0,0.0,0.0,0.0,0.0,0.0,0.0,0.0,0.0,0.0,0.0,0.0,0.0,1.8367,0.0,0.0,0.0,0.0,0.0,0.0,0.0,0.0,0.0,0.0,0.0,0.0,0.0,0.0,0.0,2.1224,0.0,2.2193,2.2754,2.3377,2.3595,2.3551,2.3054,2.2529,2.2132,2.268,0.0,2.2072,2.2072,2.2072,0.0,0.0,0.0,0.0,0.0,0.0,0.0,0.0,0.0,2.0003,0.0,0.0,0.0,1.9798,0.0,0.0,0.0,0.0,0.0,0.0,0.0,0.0,0.0,0.0,0.0,0.0,0.0,0.0,0.0,0.0,2.7524,2.9475,3.0043,3.0672,3.1437,3.1482,3.1482,3.1482,3.1482,3.1482,3.1482,3.1482,3.2198,3.3499,3.3499,3.4203,3.5504,3.5504,3.5504,3.5504,3.5504,3.5504,3.5504,3.5504,3.5504,3.5504,3.5504,3.5504,3.5504,3.5504,3.6312,3.7404,0.0,0.0,0.0,0.0,0.0,0.0,0.0,0.0,0.0,0.0,0.0,0.0,0.0,0.0,0.0,0.0,0.0,0.0,1.9041,0.0,0.0,0.0,0.0,0.0,1.8995,0.0,0.0,0.0,0.0,0.0,0.0,0.0,0.0,0.0,1.9911,0.0,0.0,0.0,2.1866,0.0,2.2558,2.2649,0.0,2.3377,2.3595,2.3595,2.3508,2.3465,2.3406,0.0,2.3465,2.3363,0.0,2.3363,0.0,0.0,0.0,0.0,0.0,0.0,0.0,0.0,2.1051,0.0,0.0,0.0,1.9798,1.9798,0.0,0.0,0.0,0.0,0.0,0.0,0.0,0.0,0.0,0.0,0.0,0.0,0.0,0.0,0.0,0.0,0.0,2.9475,2.9639,3.0223,3.1407,3.1482,3.1482,3.1482,3.1482,3.1482,3.1482,3.1482,3.2198,3.3499,3.3499,3.4203,3.5504,3.5504,3.5504,3.5504,3.5504,3.5504,3.5504,3.5504,3.5504,3.5504,3.5504,3.5504,3.5504,3.5504,3.6312,3.7404,0.0,0.0,0.0,0.0,0.0,0.0,0.0,0.0,0.0,0.0,0.0,0.0,0.0,0.0,0.0,0.0,0.0,2.0595,0.0,0.0,0.0,0.0,0.0,0.0,0.0,0.0,0.0,0.0,1.9133,0.0,0.0,0.0,0.0,0.0,2.0439,0.0,2.1697,0.0,0.0,0.0,0.0,0.0,0.0,2.3508,2.3595,2.3595,2.3595,2.3595,2.3595,0.0,2.3595,0.0,0.0,0.0,0.0,0.0,0.0,0.0,0.0,0.0,0.0,0.0,0.0,0.0,2.1342,0.0,2.089,0.0,0.0,0.0,0.0,0.0,0.0,0.0,0.0,0.0,0.0,0.0,0.0,0.0,0.0,0.0,0.0,0.0,0.0,0.0,0.0,2.9983,3.0881,3.1315,3.1482,3.1482,3.1482,3.1482,3.1482,3.1482,3.2198,3.3499,3.3499,3.4203,3.5504,3.5504,3.5504,3.5504,3.5504,3.5504,3.5504,3.5504,3.5504,3.5504,3.5504,3.5504,3.5549,3.5938,3.6641,3.7464,0.0,0.0,0.0,0.0,0.0,0.0,0.0,0.0,0.0,0.0,0.0,0.0,1.8491,1.9579,0.0,0.0,2.1328,2.1568,0.0,0.0,2.1744,0.0,0.0,0.0,0.0,0.0,0.0,0.0,0.0,0.0,0.0,0.0,0.0,0.0,0.0,2.1547,2.1993,0.0,0.0,2.2934,2.2934,2.3187,2.3595,2.3595,2.3595,2.3595,2.3595,2.3595,2.3595,2.3595,2.3595,0.0,2.3595,0.0,0.0,0.0,0.0,0.0,2.2934,0.0,0.0,0.0,0.0,0.0,0.0,0.0,0.0,0.0,0.0,0.0,0.0,0.0,0.0,0.0,0.0,0.0,0.0,0.0,0.0,0.0,0.0,0.0,0.0,0.0,0.0,0.0,2.9205,0.0,3.0477,3.1165,3.1482,3.1482,3.1482,3.1482,3.1482,3.1482,3.2198,3.3499,3.3499,3.4203,3.5504,3.5504,3.5504,3.5504,3.5504,3.5504,3.5504,3.5504,3.5504,3.5504,3.5504,3.5504,3.5579,3.6237,3.6881,3.7509,0.0,1.3708,0.0,0.0,0.0,0.0,0.0,0.0,0.0,0.0,0.0,0.0,0.0,0.0,0.0,0.0,0.0,2.2649,2.2603,0.0,2.3275,0.0,0.0,2.2649,0.0,0.0,2.1649,2.1649,0.0,0.0,0.0,0.0,0.0,0.0,0.0,2.2649,2.2694,2.3275,2.3551,2.3551,2.3551,2.3595,2.3595,0.0,2.3595,2.3595,2.3595,0.0,0.0,2.3595,2.3595,0.0,0.0,0.0,0.0,0.0,0.0,0.0,0.0,0.0,0.0,2.3551,0.0,0.0,0.0,0.0,2.1697,0.0,0.0,0.0,0.0,0.0,0.0,0.0,0.0,0.0,0.0,0.0,0.0,0.0,0.0,0.0,0.0,0.0,0.0,2.8547,2.9205,0.0,3.0477,3.1165,3.1482,3.1482,3.1482,3.1482,3.1482,3.1482,3.2198,3.3499,3.3499,3.4203,3.5504,3.5504,3.5504,3.5504,3.5504,3.5504,3.5504,3.5504,3.5504,3.5504,3.5504,3.5504,3.5579,3.6237,3.6881,3.7509,0.0,0.0,0.0,0.0,0.0,0.0,0.0,1.7379,0.0,0.0,0.0,0.0,0.0,2.128,2.1472,0.0,0.0,2.295,2.21,2.3024,0.0,0.0,0.0,2.2498,0.0,0.0,2.1697,2.1697,0.0,0.0,0.0,0.0,0.0,0.0,0.0,2.2694,0.0,0.0,0.0,0.0,0.0,2.3595,2.3595,0.0,0.0,2.3595,2.3595,2.3595,0.0,2.3595,2.3595,2.3595,2.3595,2.3595,2.3595,2.3595,2.3595,0.0,0.0,0.0,2.3595,2.3595,0.0,0.0,0.0,0.0,0.0,0.0,0.0,0.0,0.0,0.0,0.0,0.0,0.0,0.0,0.0,0.0,0.0,0.0,0.0,0.0,0.0,0.0,0.0,2.7904,2.8951,2.9669,0.0,3.0941,3.1482,3.1482,3.1482,3.1482,3.1482,3.1482,3.2198,3.3499,3.3499,3.4203,3.5504,3.5504,3.5504,3.5504,3.5504,3.5504,3.5504,3.5504,3.5504,3.5504,3.5504,3.5504,3.5639,3.6701,3.7225,3.7569,1.4964,0.0,0.0,0.0,0.0,0.0,0.0,0.0,0.0,0.0,2.0307,0.0,2.1602,0.0,2.1805,0.0,2.2815,2.3039,2.2409,2.3128,0.0,2.2409,2.2815,0.0,0.0,0.0,2.2363,2.2363,0.0,2.2363,0.0,0.0,0.0,0.0,0.0,0.0,0.0,0.0,2.3595,0.0,0.0,2.3595,0.0,0.0,2.3595,2.3595,0.0,2.3595,2.3595,2.3595,2.3595,2.3595,2.3595,2.3595,2.3595,2.3595,2.3595,2.3595,2.3595,2.3595,0.0,2.3595,2.3595,0.0,2.3595,0.0,0.0,0.0,0.0,0.0,0.0,0.0,0.0,0.0,0.0,0.0,0.0,0.0,0.0,0.0,0.0,0.0,0.0,0.0,2.7625,2.7625,2.8816,2.9579,0.0,0.0,3.1482,3.1482,3.1482,3.1482,3.1482,3.1482,3.2198,3.3499,3.3499,3.4203,3.5504,3.5504,3.5504,3.5504,3.5504,3.5504,3.5504,3.5504,3.5504,3.5504,3.5504,3.5504,3.5654,3.6941,3.7719,3.8242,0.0,0.0,0.0,0.0,1.7523,0.0,0.0,0.0,2.0795,0.0,2.1342,2.1697,2.1791,2.1758,2.1993,2.2694,2.274,0.0,2.3551,2.3595,0.0,0.0,2.3595,2.3595,2.3595,0.0,0.0,0.0,0.0,0.0,0.0,0.0,0.0,0.0,2.3319,0.0,2.2785,2.3377,2.3595,2.3595,2.3595,2.3595,2.3595,2.3595,0.0,2.3595,2.3595,2.3595,2.3595,2.3595,2.3595,2.3595,2.3595,2.3595,2.3595,2.3595,2.3595,2.3595,2.3595,2.3595,2.3595,2.3595,0.0,0.0,0.0,0.0,2.3595,0.0,0.0,0.0,0.0,0.0,0.0,0.0,0.0,0.0,0.0,0.0,0.0,0.0,0.0,0.0,0.0,2.7575,2.7625,2.7625,2.8786,2.9549,0.0,0.0,0.0,3.1482,3.1482,3.1482,3.1482,3.1482,3.2198,3.3499,3.3499,3.4203,3.5504,3.5504,3.5504,3.5504,3.5504,3.5504,3.5504,3.5504,3.5504,3.5504,3.5504,3.5549,3.5744,3.6956,3.8257,3.9424,1.7302,1.7895,1.8507,0.0,1.8725,1.8874,0.0,0.0,0.0,0.0,2.1615,2.2072,2.3024,2.2711,2.268,2.3319,2.3377,0.0,0.0,0.0,0.0,2.3595,2.3595,2.3595,2.3595,2.3595,0.0,2.3595,0.0,0.0,2.3595,0.0,0.0,0.0,0.0,0.0,2.3377,2.3551,2.3595,2.3595,2.3595,2.3595,0.0,0.0,2.3595,2.3595,2.3595,2.3595,2.3595,2.3595,2.3595,2.3595,2.3595,2.3595,2.3595,2.3595,2.3595,2.3595,2.3595,2.3595,2.3595,2.3595,2.3595,2.3595,0.0,0.0,0.0,0.0,0.0,0.0,0.0,0.0,0.0,0.0,0.0,0.0,0.0,0.0,0.0,0.0,0.0,0.0,2.6709,2.7306,2.7625,2.7625,2.8368,2.9071,0.0,0.0,0.0,3.1452,3.1482,3.1482,3.1482,3.1482,3.2198,3.3499,3.3499,3.4203,3.5504,3.5504,3.5504,3.5504,3.5504,3.5504,3.5504,3.5504,3.5504,3.5504,3.5504,3.6088,3.6956,3.7285,3.8257,3.9424,1.8058,0.0,0.0,1.9747,0.0,0.0,2.0194,0.0,0.0,2.1615,2.1946,0.0,2.3143,2.3143,2.3231,2.3551,2.3595,0.0,2.3595,0.0,0.0,2.3595,2.3595,2.3595,2.3595,2.3595,0.0,2.3595,0.0,0.0,2.3595,0.0,0.0,0.0,0.0,2.3595,0.0,2.3595,2.3595,2.3595,2.3595,0.0,0.0,2.3595,2.3595,2.3595,2.3595,2.3595,2.3595,2.3595,2.3595,2.3595,2.3595,2.3595,2.3595,2.3595,2.3595,2.3595,2.3595,2.3595,2.3595,2.3595,2.3595,2.3595,2.3595,2.3595,2.3595,0.0,0.0,0.0,0.0,0.0,0.0,0.0,0.0,0.0,0.0,0.0,0.0,0.0,0.0,0.0,2.6946,2.7357,2.7625,2.7625,2.8203,2.8891,0.0,0.0,0.0,3.1452,3.1482,3.1482,3.1482,3.1482,3.2198,3.3499,3.3499,3.4203,3.5504,3.5504,3.5504,3.5504,3.5504,3.5504,3.5504,3.5504,3.5504,3.5534,3.5818,3.6537,3.7449,3.7734,3.8762,3.999,0.0,0.0,0.0,0.0,0.0,0.0,0.0,2.0979,0.0,2.1663,0.0,2.283,2.283,2.329,2.3595,2.3595,0.0,2.3595,2.3595,2.3595,2.3595,2.3595,2.3595,2.3595,2.3595,2.3595,0.0,0.0,0.0,0.0,0.0,0.0,0.0,0.0,0.0,0.0,0.0,2.3595,2.3595,0.0,2.3595,2.3595,2.3595,2.3595,2.3595,2.3595,2.3595,2.3595,2.3595,2.3595,2.3595,2.3595,2.3595,2.3595,2.3595,2.3666,2.3724,2.3724,2.3724,2.3724,2.3681,2.3595,2.3595,2.3595,2.3595,2.3595,2.3595,2.3595,2.3595,0.0,0.0,0.0,0.0,0.0,0.0,0.0,0.0,0.0,0.0,0.0,0.0,0.0,0.0,2.7625,2.7625,2.7625,2.8128,2.8786,0.0,0.0,0.0,0.0,3.1482,0.0,3.1482,0.0,3.2198,3.3499,3.3499,3.4203,3.5504,3.5504,3.5504,3.5504,3.5504,3.5504,3.5504,3.5504,3.5554,3.5744,3.6612,3.7246,3.7805,3.8436,3.9719,4.1013,0.0,0.0,0.0,0.0,0.0,2.0979,2.1472,2.2021,2.2221,2.1758,2.2696,2.3421,2.3421,2.3551,2.3595,2.3595,2.3595,0.0,0.0,0.0,0.0,2.3595,2.3595,2.3595,2.3595,2.3595,2.3595,0.0,2.3595,2.3595,0.0,0.0,0.0,0.0,0.0,0.0,2.3595,2.3595,0.0,2.3595,2.3595,2.3595,2.3595,2.3595,2.3595,2.3595,2.3595,2.3595,2.3595,2.3595,2.3595,2.3595,2.3595,2.3595,2.3681,2.4116,2.4266,2.4266,2.4266,2.4266,2.4158,2.3724,2.3595,2.3595,2.3595,2.3595,2.3595,2.3595,2.3595,2.3595,2.3595,0.0,0.0,0.0,0.0,0.0,0.0,0.0,0.0,0.0,0.0,0.0,0.0,0.0,0.0,0.0,0.0,0.0,0.0,0.0,0.0,0.0,0.0,0.0,0.0,0.0,0.0,3.3499,3.3499,3.4203,3.5504,3.5504,3.5504,3.5504,3.5504,3.5504,3.5504,3.5504,3.5831,3.6631,3.8543,3.9344,3.955,4.0106,4.1367,4.2645,0.0,0.0,0.0,0.0,0.0,0.0,0.0,2.2515,0.0,2.23,2.277,2.3143,2.3143,2.3421,2.3595,2.3595,2.3595,2.3595,2.3595,2.3595,2.3595,2.3595,2.3595,0.0,2.3595,2.3595,2.3595,2.3595,2.3595,2.3595,0.0,0.0,0.0,0.0,0.0,2.3595,0.0,0.0,0.0,2.3595,2.3595,2.3595,2.3595,2.3595,2.3595,2.3595,2.3595,2.3595,2.3595,2.3595,2.3595,2.3595,2.3595,2.3794,2.4074,2.4307,2.4592,2.4816,2.4816,2.4816,2.4712,2.4158,2.3991,2.3948,2.3681,2.3837,2.3991,2.3991,2.4241,2.4457,2.4506,2.4565,0.0,0.0,0.0,0.0,0.0,0.0,0.0,0.0,0.0,0.0,0.0,0.0,0.0,0.0,0.0,0.0,0.0,0.0,0.0,0.0,0.0,0.0,0.0,0.0,0.0,3.3499,3.3499,3.4203,3.5504,3.5504,3.5504,3.5504,3.5504,3.5504,3.5504,3.5879,3.6275,3.68,3.9023,3.9886,3.9984,4.1021,4.2189,4.3108,0.0,2.0003,0.0,0.0,2.1486,0.0,2.1899,2.2891,2.3377,2.2785,2.2785,2.2875,2.2875,2.3334,2.3595,2.3595,2.3595,2.3595,2.3595,2.3595,2.3595,2.3595,2.3595,2.3595,2.3595,2.3595,2.3595,0.0,2.3595,2.3595,0.0,0.0,0.0,0.0,0.0,0.0,0.0,0.0,2.3595,2.3595,2.3595,2.3595,2.3595,2.3595,2.3595,2.3595,2.3595,2.3595,2.3595,2.3709,2.3752,2.3752,2.3752,2.4158,2.4592,2.4592,2.4934,2.5373,2.5373,2.5373,2.5259,2.4697,2.4471,2.4307,2.3991,2.4184,2.443,2.4552,2.5021,2.5497,2.5775,2.561,0.0,0.0,0.0,0.0,0.0,0.0,0.0,0.0,0.0,0.0,0.0,0.0,0.0,0.0,0.0,2.8323,2.952,2.9699,0.0,0.0,0.0,3.1482,3.1482,0.0,3.2198,0.0,3.3499,3.4203,3.5504,3.5504,3.5504,3.5504,3.5504,3.5504,3.5554,3.6461,3.6859,3.7105,3.9505,4.0426,4.0545,4.1784,4.2847,4.3426,0.0,0.0,0.0,0.0,0.0,0.0,0.0,2.3187,2.3377,2.2785,2.3201,2.3508,2.3508,2.3551,2.3595,2.3595,2.3595,2.3595,2.3595,2.3595,2.3595,2.3595,2.3595,2.3595,2.3595,2.3595,2.3595,0.0,0.0,2.3595,0.0,0.0,0.0,0.0,0.0,0.0,0.0,2.3595,2.3595,2.3595,2.3595,2.3595,2.3595,2.3595,2.3595,2.3595,2.3595,2.3595,2.3681,2.4158,2.4307,2.4307,2.4307,2.4712,2.5144,2.5144,2.5486,2.5924,2.5924,2.5924,2.5815,2.5259,2.4752,2.4496,2.4934,2.4697,2.4552,2.5012,2.5694,2.6391,2.7096,2.7652,2.8056,0.0,0.0,0.0,0.0,0.0,0.0,0.0,0.0,0.0,0.0,0.0,0.0,0.0,0.0,2.8816,2.9549,3.0118,3.0761,3.1452,0.0,3.1482,3.1482,3.1482,0.0,3.3499,3.3499,3.4203,3.5504,3.5504,3.5504,3.5504,3.5504,3.5504,3.5619,3.7055,3.769,3.8008,4.0945,4.2055,4.2169,4.2881,4.3756,4.4327,0.0,0.0,0.0,0.0,0.0,0.0,0.0,2.3465,2.3508,2.3275,2.3465,2.3595,2.3595,2.3595,2.3595,2.3595,2.3595,2.3595,2.3595,2.3595,2.3595,2.3595,2.3595,2.3595,2.3595,2.3595,2.3595,0.0,0.0,2.3595,2.3595,0.0,0.0,0.0,0.0,2.3921,2.3595,2.3595,2.3595,2.3595,2.3595,2.3595,2.3595,2.3595,2.3595,2.3595,2.3595,2.3794,2.4158,2.4712,2.4672,2.4389,2.4389,2.4989,2.5615,2.5297,2.5783,2.6401,2.6401,2.6401,2.6297,2.5799,2.554,2.5335,2.5221,2.5297,2.554,2.6205,2.6912,2.7653,2.8372,2.844,2.8522,0.0,0.0,0.0,0.0,0.0,0.0,0.0,0.0,0.0,0.0,0.0,0.0,0.0,0.0,0.0,2.952,2.9819,3.0432,3.1437,0.0,3.1482,3.1482,3.1482,3.2198,3.3499,3.3499,3.4203,3.5504,3.5504,3.5718,3.6165,3.6165,3.6165,3.629,3.7831,3.8189,3.8123,4.1126,4.2286,4.2419,4.3642,4.4327,4.457,2.1946,0.0,2.2193,0.0,2.2965,2.3113,2.3551,2.3595,2.3595,2.3595,2.3595,2.3595,2.3595,2.3595,2.3595,2.3595,2.3595,2.3595,2.3595,2.3595,2.3595,2.3595,2.3595,0.0,2.3595,2.3595,2.3595,2.3595,2.3595,0.0,2.3837,0.0,0.0,0.0,2.4471,2.4199,2.3837,2.3681,2.3595,2.3595,2.3595,2.3595,2.3595,2.3595,2.3595,2.3595,2.3595,2.3948,2.4471,2.5028,2.5051,2.4855,2.4855,2.5486,2.6104,2.5577,2.6052,2.6691,2.6691,2.6691,2.6624,2.6297,2.612,2.5924,2.5709,2.5999,2.6644,2.7753,2.8389,2.8971,2.9646,2.9494,2.9391,2.9854,0.0,0.0,0.0,0.0,0.0,0.0,2.9496,2.9088,2.8222,0.0,0.0,0.0,0.0,0.0,2.9574,2.9953,0.0,0.0,0.0,0.0,0.0,3.1482,3.2198,3.3499,3.3499,3.4203,3.5504,3.5504,3.5894,3.6615,3.6615,3.6722,3.7024,3.8342,3.8711,3.8756,4.1318,4.2422,4.2777,4.4096,4.4587,4.4587,2.2558,2.2694,2.2875,2.3465,2.3595,2.3595,2.3595,2.3595,2.3595,2.3595,2.3595,2.3595,2.3595,2.3595,2.3595,2.3595,2.3595,2.3595,2.3595,2.3595,2.3595,0.0,0.0,2.3595,2.3595,2.3595,2.3595,2.3595,0.0,0.0,2.4389,0.0,2.5182,2.5182,2.4632,2.4389,2.4348,2.3837,2.3595,2.3595,2.3595,2.3595,2.3595,2.3595,2.3595,2.3595,2.3595,2.3948,2.4471,2.5028,2.554,2.5977,2.5977,2.6297,2.659,2.612,2.6332,2.6691,2.6691,2.6691,2.6691,2.6691,2.6332,2.612,2.659,2.69,2.7665,2.964,3.0091,3.0311,3.1038,3.1173,3.1173,3.119,0.0,0.0,0.0,0.0,0.0,0.0,2.9761,2.9406,2.9361,0.0,0.0,0.0,0.0,0.0,0.0,0.0,0.0,3.1482,3.1482,0.0,3.1482,3.1482,3.2198,3.3499,3.3499,3.4203,3.5504,3.5504,3.5894,3.6615,3.6615,3.7024,3.7863,3.858,3.9336,4.0205,4.1715,4.2743,4.3504,4.4282,4.4587,4.4587,2.3275,2.3334,2.3377,2.3551,2.3595,2.3595,2.3595,2.3595,2.3595,2.3595,2.3595,2.3595,2.3595,2.3595,2.3595,0.0,2.3595,2.3595,0.0,2.3595,2.3595,2.3595,2.3595,2.3595,2.3595,2.3595,2.3595,2.3595,0.0,0.0,0.0,2.5652,2.5742,2.5726,2.5182,2.4736,2.4348,2.3837,2.3595,2.3638,2.3991,2.3921,2.3638,2.3991,2.3921,2.3638,2.3991,2.4511,2.5028,2.5577,2.6068,2.647,2.647,2.659,2.6624,2.6156,2.6332,2.6691,2.6691,2.6691,2.6691,2.6691,2.659,2.6639,2.7316,2.8342,2.9328,2.9968,3.0497,3.092,3.1157,3.119,3.119,3.119,3.119,0.0,0.0,0.0,0.0,0.0,3.0477,3.0293,0.0,2.9761,0.0,0.0,0.0,0.0,0.0,0.0,0.0,0.0,3.1482,0.0,3.1482,3.1482,3.2198,3.3499,3.3499,3.4203,3.5504,3.5504,3.6196,3.7397,3.7397,3.7847,3.8635,3.9385,3.9887,4.0277,4.1698,4.276,4.3521,4.4282,4.4587,4.4587,2.3595,2.3595,2.3595,2.3595,2.3595,2.3595,2.3595,2.3595,2.3595,2.3595,2.3595,2.3595,2.3595,2.3595,0.0,2.3595,2.3595,2.3595,2.3595,2.3595,2.3595,2.3595,2.3794,2.3794,2.3595,0.0,0.0,2.3595,2.4348,2.5144,2.5997,2.6191,2.6262,2.6227,2.5726,2.5221,2.4672,2.4116,2.3794,2.3638,2.4184,2.4199,2.3964,2.4266,2.4307,2.4241,2.4348,2.4855,2.554,2.5888,2.6297,2.6691,2.6691,2.6691,2.6657,2.6367,2.647,2.6691,2.6691,2.6691,2.6691,2.6691,2.6911,2.7402,2.845,2.9431,3.0192,3.0463,3.0886,3.119,3.119,3.119,3.119,3.119,3.119,3.119,3.119,0.0,0.0,0.0,0.0,0.0,0.0,3.0683,0.0,0.0,0.0,0.0,0.0,0.0,0.0,3.1467,3.1796,0.0,3.1482,3.1796,3.246,3.3499,3.4272,3.5247,3.6368,3.6368,3.7055,3.8189,3.8189,3.8652,3.9385,3.9901,4.0456,4.1005,4.1923,4.2929,4.391,4.4401,4.4587,4.4587,2.3595,2.3595,0.0,0.0,2.3595,0.0,2.3595,2.3595,2.3595,2.3595,2.3595,2.3595,2.3595,2.3595,2.3595,2.3595,0.0,0.0,0.0,2.3595,2.3595,2.3595,2.4074,2.4116,2.3681,2.4116,2.4158,2.3724,2.4752,2.554,2.6049,2.6521,2.6691,2.6691,2.6227,2.5726,2.5221,2.4632,2.4116,2.3724,2.4225,2.443,2.4389,2.4471,2.4776,2.5144,2.4672,2.5144,2.5997,2.6049,2.6332,2.6691,2.6691,2.6691,2.6691,2.6691,2.6691,2.6691,2.6691,2.6691,2.6708,2.6759,2.7385,2.8349,2.9786,3.0142,3.0378,3.1055,3.119,3.119,3.119,3.119,3.119,3.119,3.119,3.119,3.119,0.0,0.0,0.0,0.0,0.0,0.0,3.1884,3.2387,0.0,0.0,0.0,0.0,0.0,3.164,3.164,3.2327,3.2327,3.1582,3.2373,3.308,3.3743,3.5768,3.71,3.7822,3.7822,3.8189,3.8908,3.8908,3.9368,4.007,4.007,4.095,4.2286,4.2286,4.3217,4.4587,4.4587,4.4587,4.4587,0.0,0.0,2.3595,2.3595,2.3595,2.3595,2.3595,2.3595,2.3595,2.3595,2.3595,2.3595,2.3595,2.3595,2.3595,2.3595,2.3595,2.3595,2.3595,2.3595,2.3595,2.3595,2.3709,2.3921,2.4184,2.3906,2.4116,2.4816,2.5503,2.6068,2.6556,2.6657,2.6691,2.6691,2.6227,2.5924,2.5742,2.4776,2.4307,2.4282,2.4776,2.4792,2.4511,2.5297,2.5449,2.5259,2.554,2.5762,2.6033,2.6401,2.6624,2.6691,2.6691,2.6691,2.6691,2.6691,2.6691,2.6691,2.6691,2.6691,2.6843,2.7402,2.8569,2.9668,3.0023,3.0548,3.0987,3.1157,3.119,3.119,3.119,3.119,3.119,3.119,3.119,3.119,3.119,3.119,0.0,0.0,3.119,3.141,3.1968,3.2212,3.2773,0.0,0.0,0.0,0.0,0.0,3.313,3.313,3.3287,3.3039,3.2327,3.3574,3.4832,3.6042,3.7044,3.7632,3.7822,3.7822,3.8189,3.8908,3.8908,3.9368,4.007,4.007,4.095,4.2286,4.2286,4.3217,4.4587,4.4587,4.4587,4.4587,2.3595,2.3595,2.3595,2.3595,2.3595,2.3595,2.3595,2.3595,2.3595,2.3595,2.3595,2.3595,2.3595,2.3595,2.3595,2.3595,2.3595,2.3595,2.3595,2.3595,2.3595,2.3595,2.4074,2.4348,2.4389,2.4592,2.4973,2.5577,2.5852,2.6227,2.6691,2.6691,2.6691,2.6691,2.6436,2.6191,2.5961,2.5373,2.4989,2.4816,2.5335,2.5373,2.5182,2.5762,2.5961,2.5908,2.5961,2.6156,2.6367,2.6607,2.6691,2.6691,2.6691,2.6691,2.6691,2.6691,2.6691,2.6691,2.6691,2.6945,2.7486,2.8586,2.9499,3.0192,3.0531,3.0903,3.119,3.119,3.119,3.119,3.119,3.119,3.119,3.119,3.119,3.119,3.119,3.119,0.0,3.119,3.119,3.1478,3.2246,3.2594,3.3254,3.4404,0.0,0.0,3.5035,3.4704,3.4252,3.3633,3.3887,3.3735,3.3039,3.4462,3.5894,3.7373,3.8033,3.8486,3.8832,3.8832,3.9049,3.9437,3.9437,3.9731,4.007,4.007,4.095,4.2286,4.2286,4.3217,4.4587,4.4587,4.4587,4.4587,2.3595,2.3595,2.3595,2.3595,2.3595,2.3595,2.3595,2.3595,2.3595,2.3595,2.3595,2.3595,2.3595,2.3595,2.3595,2.3595,2.3595,2.3595,2.3595,2.3595,2.3595,2.3595,2.4552,2.4894,2.4552,2.5561,2.6085,2.6013,2.6085,2.6297,2.6691,2.6691,2.6691,2.6691,2.6691,2.647,2.612,2.6049,2.5726,2.5373,2.5815,2.6013,2.6013,2.6085,2.6367,2.6657,2.6262,2.6367,2.6691,2.6691,2.6691,2.6691,2.6691,2.6691,2.6691,2.6691,2.6691,2.6691,2.6691,2.7334,2.8332,2.9753,3.0192,3.0429,3.1055,3.119,3.119,3.119,3.119,3.119,3.119,3.119,3.119,3.119,3.119,3.119,3.119,0.0,3.119,3.119,3.1292,3.1647,3.2374,3.3119,3.388,3.4607,3.525,0.0,0.0,3.5622,3.5068,3.3937,3.4431,3.4594,3.426,3.5315,3.6706,3.833,3.8821,3.9437,4.007,4.007,4.007,4.007,4.007,4.007,4.007,4.007,4.095,4.2286,4.2286,4.3217,4.4587,4.4587,4.4587,4.4587,2.3595,2.3595,2.3595,2.3595,2.3595,2.3595,2.3595,2.3595,2.3595,2.3595,2.3595,2.3595,2.3595,2.3595,2.3595,2.3595,2.3595,2.3595,2.3595,2.3595,2.3595,2.3595,2.4184,2.4712,2.5067,2.6052,2.6401,2.6013,2.6401,2.6624,2.6691,2.6691,2.6691,2.6691,2.6691,2.6657,2.659,2.6156,2.5961,2.5888,2.5977,2.6013,2.6033,2.6436,2.6624,2.6691,2.6624,2.6624,2.6691,2.6691,2.6691,2.6691,2.6691,2.6691,2.6691,2.6691,2.6691,2.6691,2.6691,2.7723,2.9008,2.9888,3.0581,3.1055,3.1173,3.119,3.119,3.119,3.119,3.119,3.119,3.119,3.119,3.119,3.119,3.119,3.119,0.0,3.119,3.119,3.1732,3.2408,3.3169,3.3897,3.4641,3.5385,3.5554,3.5622,3.5622,3.5622,3.5515,3.5316,3.5362,3.603,3.7213,3.682,3.77,3.98,3.9851,3.9952,4.007,4.007,4.007,4.007,4.007,4.007,4.007,4.007,4.095,4.2286,4.2286,4.3217,4.4587,4.4587,4.4587,4.4587,2.3595,2.3595,2.3595,2.3595,2.3595,2.3595,2.3595,2.3595,2.3595,2.3595,2.3595,2.3595,2.3595,2.3595,2.3595,2.3595,2.3595,2.3595,2.3595,2.3595,2.3595,2.3595,2.4389,2.5205,2.598,2.647,2.659,2.6367,2.659,2.6691,2.6691,2.6691,2.6691,2.6691,2.6691,2.6691,2.6691,2.647,2.6367,2.6367,2.6367,2.6367,2.6401,2.6624,2.6691,2.6691,2.6691,2.6691,2.6691,2.6691,2.6691,2.6691,2.6691,2.6691,2.6691,2.6691,2.6979,2.7385,2.7807,2.8738,2.977,3.0514,3.0954,3.119,3.119,3.119,3.119,3.119,3.119,3.119,3.119,3.119,3.119,3.119,3.119,0.0,0.0,3.119,3.119,3.119,3.1833,3.2577,3.3339,3.4066,3.481,3.5554,3.5622,3.5622,3.5622,3.5622,3.5622,3.5622,3.5622,3.6349,3.7889,3.7549,3.827,4.007,4.007,4.007,4.007,4.007,4.007,4.007,4.007,4.007,4.0104,4.051,4.1322,4.2337,4.2743,4.3589,4.4587,4.4587,4.4587,4.4587,2.3595,2.3595,2.3595,2.3595,2.3595,2.3595,2.3595,2.3595,2.3595,2.3595,2.3595,2.3595,2.3595,2.3595,2.3595,2.3595,2.3595,2.3595,2.3595,2.3595,2.3681,2.3794,2.4816,2.5746,2.6505,2.6657,2.6691,2.6691,2.6691,2.6691,2.6691,2.6691,2.6691,2.6691,2.6691,2.6691,2.6691,2.6691,2.6691,2.6691,2.6691,2.6691,2.6691,2.6691,2.6691,2.6691,2.6691,2.6691,2.6691,2.6691,2.6691,2.6691,2.6691,2.6691,2.6725,2.6911,2.7621,2.8484,2.9076,2.9668,3.0294,3.1021,3.119,3.119,3.119,3.119,3.119,3.119,3.119,3.119,3.119,3.119,3.119,3.119,0.0,0.0,0.0,3.119,3.1258,3.1427,3.2104,3.2831,3.3592,3.432,3.4996,3.5571,3.5622,3.5622,3.5622,3.5622,3.5622,3.5622,3.5791,3.6535,3.7889,3.8075,3.8802,4.007,4.007,4.007,4.007,4.007,4.007,4.007,4.007,4.007,4.0138,4.0899,4.1627,4.2371,4.3115,4.3893,4.4587,4.4587,4.4587,4.4587,2.3595,2.3595,2.3595,2.3595,2.3595,2.3595,2.3595,2.3595,2.3595,2.3595,2.3595,2.3595,2.3595,2.3595,2.3595,2.3595,2.3595,2.3595,2.3595,2.3595,2.3837,2.4307,2.5373,2.5977,2.6049,2.647,2.6691,2.6691,2.6691,2.6691,2.6691,2.6691,2.6691,2.6691,2.6691,2.6691,2.6691,2.6691,2.6691,2.6691,2.6691,2.6691,2.6691,2.6691,2.6691,2.6691,2.6691,2.6691,2.6691,2.6691,2.6691,2.6691,2.6691,2.6691,2.6826,2.7537,2.8789,2.9956,3.0006,3.0074,3.0294,3.1021,3.119,3.119,3.119,3.119,3.119,3.119,3.119,3.119,3.119,3.119,3.119,3.119,0.0,0.0,3.119,3.119,3.1444,3.2121,3.2865,3.3609,3.4336,3.5098,3.5554,3.5622,3.5622,3.5622,3.5622,3.5622,3.5622,3.5622,3.6315,3.7077,3.7905,3.8582,3.9309,4.007,4.007,4.007,4.007,4.007,4.007,4.007,4.007,4.007,4.0138,4.0899,4.1627,4.2371,4.3115,4.3893,4.4587,4.4587,4.4587,4.4587,2.3595,2.3595,2.3595,2.3595,2.3595,2.3595,2.3595,2.3595,2.3595,2.3595,2.3595,2.3595,2.3595,2.3595,2.3595,2.3595,2.3595,2.3595,2.3595,2.3595,2.3837,2.4389,2.5105,2.5652,2.5997,2.647,2.6691,2.6691,2.6691,2.6691,2.6691,2.6691,2.6691,2.6691,2.6691,2.6691,2.6691,2.6691,2.6691,2.6691,2.6691,2.6691,2.6691,2.6691,2.6691,2.6691,2.6691,2.6691,2.6691,2.6691,2.6691,2.6691,2.6691,2.6691,2.6928,2.818,2.9279,3.0209,3.0666,3.0784,3.0852,3.1123,3.119,3.119,3.119,3.119,3.119,3.119,3.119,3.119,3.119,3.119,3.119,3.119,0.0,3.119,3.119,3.1579,3.1968,3.2297,3.3339,3.4184,3.4472,3.5182,3.5622,3.5622,3.5622,3.5622,3.5622,3.5622,3.5622,3.5622,3.6823,3.7618,3.7905,3.8633,3.936,4.007,4.007,4.007,4.007,4.007,4.007,4.007,4.007,4.007,4.0172,4.139,4.2049,4.2405,4.3656,4.4316,4.4587,4.4587,4.4587,4.4587,2.3595,2.3595,2.3595,2.3595,2.3595,2.3595,2.3595,2.3595,2.3595,2.3595,2.3595,2.3595,2.3595,2.3595,2.3595,2.3595,2.3595,2.3595,2.3595,2.3595,2.3752,2.4116,2.4989,2.554,2.5726,2.6367,2.6691,2.6691,2.6691,2.6691,2.6691,2.6691,2.6691,2.6691,2.6691,2.6691,2.6691,2.6691,2.6691,2.6691,2.6691,2.6691,2.6691,2.6691,2.6691,2.6691,2.6691,2.6691,2.6691,2.6691,2.6691,2.6691,2.6691,2.7029,2.7672,2.8958,2.9871,3.0565,3.1055,3.119,3.119,3.119,3.119,3.119,3.119,3.119,3.119,3.119,3.119,3.119,3.119,3.119,3.119,3.119,3.119,3.119,3.119,3.1816,3.2415,3.2611,3.3728,3.459,3.4827,3.5318,3.5622,3.5622,3.5622,3.5622,3.5622,3.5622,3.574,3.5977,3.7229,3.8024,3.8244,3.8971,3.958,4.007,4.007,4.007,4.007,4.007,4.007,4.007,4.007,4.007,4.0189,4.1677,4.2286,4.2439,4.3978,4.4587,4.4587,4.4587,4.4587,4.4587,2.3595,2.3595,2.3595,2.3595,2.3595,2.3595,2.3595,2.3595,2.3595,2.3595,2.3595,2.3595,2.3595,2.3595,2.3595,2.3595,2.3595,2.3595,2.3595,2.3595,2.3595,2.3595,2.5144,2.5726,2.5221,2.6193,2.6691,2.6691,2.6691,2.6691,2.6691,2.6691,2.6691,2.6691,2.6691,2.6691,2.6691,2.6691,2.6691,2.6691,2.6691,2.6691,2.6691,2.6691,2.6691,2.6691,2.6691,2.6691,2.6691,2.6691,2.6691,2.6691,2.6708,2.7757,2.9144,2.9888,3.0615,3.119,3.119,3.119,3.119,3.119,3.119,3.119,3.119,3.119,3.119,3.119,3.119,3.119,3.119,3.119,3.119,3.119,3.119,3.119,3.1207,3.1833,3.256,3.3322,3.4066,3.4793,3.5537,3.5622,3.5622,3.5622,3.5622,3.5622,3.5622,3.5622,3.5977,3.6755,3.7516,3.8261,3.8988,3.9715,4.007,4.007,4.007,4.007,4.007,4.007,4.007,4.007,4.007,4.007,4.0189,4.1677,4.2286,4.2439,4.3978,4.4587,4.4587,4.4587,4.4587,4.4587,2.3595,2.3595,2.3595,2.3595,2.3595,2.3595,2.3595,2.3595,2.3595,2.3595,2.3595,2.3595,2.3595,2.3595,2.3595,2.3595,2.3595,2.3595,2.3595,2.3595,2.3752,2.4142,2.4632,2.4973,2.5182,2.5872,2.6367,2.6691,2.6691,2.6691,2.6691,2.6691,2.6691,2.6691,2.6691,2.6691,2.6691,2.6691,2.6691,2.6691,2.6691,2.6691,2.6691,2.6691,2.6691,2.6691,2.6691,2.6691,2.6691,2.6691,2.6691,2.6793,2.7317,2.8535,2.982,3.004,3.0615,3.119,3.119,3.119,3.119,3.119,3.119,3.119,3.119,3.119,3.119,3.119,3.119,3.119,3.119,3.119,3.119,3.119,3.119,3.1376,3.1884,3.2594,3.3355,3.4083,3.4827,3.5368,3.5605,3.5622,3.5622,3.5622,3.5622,3.5622,3.5622,3.5622,3.5977,3.6755,3.7516,3.8261,3.8988,3.9715,4.007,4.007,4.007,4.007,4.007,4.007,4.007,4.007,4.007,4.007,4.0189,4.1677,4.2286,4.2439,4.3978,4.4587,4.4587,4.4587,4.4587,4.4587,2.3638,2.3752,2.3921,2.3921,2.4074,2.4225,2.4225,2.4032,2.3921,2.3921,2.3709,2.3595,2.3595,2.3794,2.3921,2.3921,2.4116,2.4225,2.4225,2.4225,2.4389,2.4697,2.4712,2.4989,2.5486,2.5852,2.6227,2.6691,2.6691,2.6691,2.6691,2.6691,2.6691,2.6691,2.6691,2.6691,2.6691,2.6691,2.6691,2.6691,2.6691,2.6691,2.6691,2.6691,2.6691,2.6691,2.6691,2.6691,2.6691,2.6691,2.6894,2.7334,2.8399,2.9364,3.0176,3.0446,3.0852,3.119,3.119,3.119,3.119,3.119,3.119,3.119,3.119,3.119,3.119,3.119,3.119,3.119,3.119,3.119,3.119,3.119,3.119,3.1444,3.2212,3.2933,3.3677,3.4404,3.5165,3.5622,3.5622,3.5622,3.5622,3.5622,3.5622,3.5622,3.5622,3.5622,3.6113,3.7195,3.7669,3.8396,3.9411,3.9868,4.007,4.007,4.007,4.007,4.007,4.007,4.007,4.007,4.007,4.007,4.0189,4.1677,4.2286,4.2439,4.3978,4.4587,4.4587,4.4587,4.4587,4.4587,2.3837,2.4158,2.4471,2.4471,2.4871,2.5221,2.5221,2.4792,2.4471,2.4471,2.4032,2.3752,2.3752,2.4158,2.443,2.4471,2.491,2.5221,2.5221,2.5221,2.5221,2.5259,2.5221,2.5449,2.5977,2.6013,2.6227,2.6691,2.6691,2.6691,2.6691,2.6691,2.6691,2.6691,2.6691,2.6691,2.6691,2.6691,2.6691,2.6691,2.6691,2.6691,2.6691,2.6691,2.6691,2.6691,2.6691,2.6742,2.681,2.6877,2.7402,2.8264,2.9668,3.0159,3.0345,3.1004,3.119,3.119,3.119,3.119,3.119,3.119,3.119,3.119,3.119,3.119,3.119,3.119,3.119,3.119,3.119,3.119,3.119,3.119,3.1258,3.1546,3.2273,3.3034,3.3778,3.4506,3.5199,3.5622,3.5622,3.5622,3.5622,3.5622,3.5622,3.5622,3.5622,3.5622,3.6332,3.7855,3.7905,3.8616,4.007,4.007,4.007,4.007,4.007,4.007,4.007,4.007,4.007,4.007,4.007,4.0121,4.029,4.1711,4.2337,4.254,4.4012,4.4587,4.4587,4.4587,4.4587,4.4587,2.4871,2.495,2.5028,2.5028,2.5144,2.5221,2.5221,2.5105,2.5028,2.5028,2.495,2.4855,2.4855,2.4592,2.4592,2.4989,2.5128,2.5221,2.5221,2.5221,2.5373,2.5815,2.5411,2.5449,2.5977,2.6013,2.6227,2.6691,2.6691,2.6691,2.6691,2.6691,2.6691,2.6691,2.6691,2.6691,2.6691,2.6691,2.6691,2.6691,2.6691,2.6691,2.6691,2.6691,2.6691,2.6691,2.6691,2.708,2.7672,2.8281,2.8991,2.9668,3.0006,3.0497,3.0987,3.114,3.119,3.119,3.119,3.119,3.119,3.119,3.119,3.119,3.119,3.119,3.119,3.119,3.119,3.119,3.119,3.119,3.119,3.119,3.1664,3.2307,3.3051,3.3795,3.4539,3.5284,3.552,3.5622,3.5622,3.5622,3.5622,3.5622,3.5622,3.5622,3.5622,3.5622,3.6332,3.7855,3.7905,3.8616,4.007,4.007,4.007,4.007,4.007,4.007,4.007,4.007,4.007,4.007,4.007,4.0409,4.1035,4.1914,4.2642,4.3267,4.4215,4.4587,4.4587,4.4587,4.4587,4.4587,2.5259,2.5411,2.5577,2.5577,2.5746,2.5944,2.5944,2.5726,2.5577,2.5577,2.5373,2.5221,2.5221,2.5182,2.5373,2.5855,2.5944,2.5944,2.5944,2.5944,2.6052,2.6332,2.6052,2.6052,2.6332,2.6332,2.6332,2.6367,2.659,2.6691,2.6691,2.6691,2.6691,2.6691,2.6691,2.6691,2.6691,2.6691,2.6691,2.6691,2.6691,2.6691,2.6691,2.6691,2.6691,2.6742,2.7097,2.7723,2.852,2.9484,2.9958,3.0197,3.0728,3.1162,3.147,3.147,3.147,3.147,3.147,3.1351,3.1269,3.1449,3.1351,3.119,3.119,3.119,3.119,3.119,3.1351,3.147,3.147,3.147,3.147,3.147,3.1924,3.2544,3.3305,3.4032,3.4776,3.552,3.5622,3.5622,3.5622,3.5622,3.5622,3.5622,3.5622,3.5622,3.5622,3.5622,3.6332,3.7855,3.7905,3.8616,4.007,4.007,4.007,4.007,4.007,4.007,4.007,4.007,4.007,4.007,4.007,4.051,4.1271,4.1999,4.2726,4.3504,4.4282,4.4587,4.4587,4.4587,4.4587,4.4587,2.5561,2.5799,2.612,2.612,2.6436,2.6691,2.6691,2.6367,2.612,2.612,2.5709,2.5449,2.5449,2.5835,2.6227,2.6539,2.6657,2.6691,2.6691,2.6691,2.6691,2.6691,2.6691,2.6657,2.659,2.6657,2.6505,2.612,2.6505,2.6691,2.6691,2.6691,2.6691,2.6691,2.6691,2.6691,2.6691,2.6691,2.6691,2.6691,2.6691,2.6691,2.6691,2.6691,2.6776,2.6962,2.7588,2.8418,2.9464,3.063,3.0729,3.0551,3.1489,3.1789,3.1789,3.1789,3.1861,3.1915,3.1915,3.1603,3.1389,3.1842,3.1545,3.123,3.1291,3.1252,3.119,3.119,3.1507,3.1789,3.1789,3.1861,3.1932,3.1998,3.2329,3.2853,3.3491,3.4218,3.4912,3.5537,3.5622,3.5622,3.5739,3.565,3.5622,3.5622,3.5622,3.5622,3.5622,3.5622,3.6332,3.7855,3.7905,3.8616,4.007,4.007,4.007,4.007,4.007,4.007,4.007,4.007,4.007,4.007,4.007,4.0578,4.1441,4.2049,4.2811,4.3673,4.4333,4.4587,4.4587,4.4587,4.4587,4.4587,2.6505,2.6556,2.6624,2.6624,2.6657,2.6691,2.6691,2.6657,2.6624,2.6624,2.6539,2.6505,2.6505,2.6539,2.6487,2.6104,2.6487,2.6691,2.6691,2.6691,2.6691,2.6691,2.6691,2.6505,2.612,2.647,2.6657,2.6624,2.6657,2.6691,2.6691,2.6691,2.6691,2.6691,2.6691,2.6691,2.6691,2.6691,2.6691,2.6691,2.6691,2.6691,2.6691,2.6691,2.7097,2.7637,2.7755,2.8955,3.0647,3.186,3.1952,3.1595,3.1754,3.1789,3.1789,3.1789,3.2109,3.2417,3.2417,3.2074,3.1825,3.2282,3.1787,3.1291,3.1623,3.1449,3.119,3.119,3.1507,3.1789,3.1789,3.2127,3.251,3.28,3.3429,3.3968,3.4321,3.4996,3.5504,3.5605,3.5622,3.5783,3.6266,3.5854,3.5622,3.5622,3.5622,3.5622,3.5622,3.5622,3.6332,3.7855,3.7905,3.8616,4.007,4.007,4.007,4.007,4.007,4.007,4.007,4.007,4.007,4.007,4.007,4.0865,4.2151,4.2252,4.3132,4.4434,4.4536,4.4587,4.4587,4.4587,4.4587,4.4587,2.6691,2.6691,2.6691,2.6691,2.6691,2.6691,2.6691,2.6691,2.6691,2.6691,2.6691,2.6691,2.6691,2.6691,2.6624,2.6401,2.659,2.6691,2.6691,2.6691,2.6691,2.6691,2.6691,2.6624,2.6401,2.659,2.6691,2.6691,2.6691,2.6691,2.6691,2.6691,2.6691,2.6691,2.6691,2.6691,2.6691,2.6691,2.6691,2.6691,2.6691,2.6945,2.7317,2.7317,2.7807,2.8554,2.9195,3.0265,3.1463,3.2524,3.2583,3.2196,3.2196,3.2366,3.2533,3.2264,3.25,3.2872,3.2872,3.255,3.2298,3.2777,3.2417,3.1986,3.2144,3.1825,3.147,3.1269,3.1714,3.2092,3.1861,3.24,3.3012,3.3336,3.3778,3.4306,3.4861,3.5334,3.5694,3.6028,3.6333,3.6603,3.6843,3.6374,3.6165,3.6481,3.5924,3.5739,3.6011,3.6491,3.7069,3.7872,3.8576,3.9341,4.007,4.007,4.007,4.007,4.007,4.007,4.007,4.007,4.007,4.007,4.007,4.0916,4.2286,4.2286,4.32,4.4587,4.4587,4.4587,4.4587,4.4587,4.4587,4.4587]},{"header":{"parameterUnit":"m.s-1","parameterCategory":1,"la1":30.6,"la2":28.766,"lo1":-90.7593,"lo2":-88.6598,"dx":0.0162,"dy":0.0183,"nx":116,"ny":114,"refTime":"2023-02-09T06:00:00:Z","depth":0,"parameterNumber":3,"parameterNumberName":"V-component_of_WINDS"},"data":[0.0,0.0,0.0,0.0,0.0,0.0,0.0,0.0,0.0,0.0,0.0,0.0,0.0,0.0,0.0,0.0,0.0,0.0,0.0,0.0,0.0,0.0,0.0,0.0,0.0,0.0,0.0,0.0,0.0,0.0,0.0,0.0,0.0,0.0,0.0,0.0,0.0,0.0,0.0,0.0,0.0,0.0,0.0,0.0,0.0,0.0,0.0,0.0,0.0,0.0,0.0,0.0,0.0,0.0,0.0,0.0,0.0,0.0,0.0,0.0,0.0,0.0,0.0,0.0,0.0,0.0,0.0,0.0,0.0,0.0,0.0,0.0,0.0,0.0,0.0,0.0,0.0,0.0,0.0,0.0,0.0,0.0,0.0,0.0,0.0,0.0,0.0,0.0,0.0,0.0,0.0,0.0,0.0,0.0,0.0,0.0,0.0,0.0,0.0,0.0,0.0,0.0,0.0,0.0,0.0,0.0,0.0,0.0,0.0,0.0,0.0,0.0,0.0,0.0,0.0,0.0,0.0,0.0,0.0,0.0,0.0,0.0,0.0,0.0,0.0,0.0,0.0,0.0,0.0,0.0,0.0,0.0,0.0,0.0,0.0,0.0,0.0,0.0,0.0,0.0,0.0,0.0,0.0,0.0,0.0,0.0,0.0,0.0,0.0,0.0,0.0,0.0,0.0,0.0,0.0,0.0,0.0,0.0,0.0,0.0,0.0,0.0,0.0,0.0,0.0,0.0,0.0,0.0,0.0,0.0,0.0,0.0,0.0,0.0,0.0,0.0,0.0,0.0,0.0,0.0,0.0,0.0,0.0,0.0,0.0,0.0,0.0,0.0,0.0,0.0,0.0,0.0,0.0,0.0,0.0,0.0,0.0,0.0,0.0,0.0,0.0,0.0,0.0,0.0,0.0,0.0,0.0,0.0,0.0,0.0,0.0,0.0,0.0,0.0,0.0,0.0,0.0,0.0,0.0,0.0,0.0,0.0,0.0,0.0,0.0,0.0,0.0,0.0,0.0,0.0,0.0,0.0,0.0,0.0,0.0,0.0,0.0,0.0,0.0,0.0,0.0,0.0,0.0,0.0,0.0,0.0,0.0,0.0,0.0,0.0,0.0,0.0,0.0,0.0,0.0,0.0,0.0,0.0,0.0,0.0,0.0,0.0,0.0,0.0,0.0,0.0,0.0,0.0,0.0,0.0,0.0,0.0,0.0,0.0,0.0,0.0,0.0,0.0,0.0,0.0,0.0,0.0,0.0,0.0,0.0,0.0,0.0,0.0,0.0,0.0,0.0,0.0,0.0,0.0,0.0,0.0,0.0,0.0,0.0,0.0,0.0,0.0,0.0,0.0,0.0,0.0,0.0,0.0,0.0,0.0,0.0,0.0,0.0,0.0,0.0,0.0,0.0,0.0,0.0,0.0,0.0,0.0,0.0,0.0,0.0,0.0,0.0,0.0,0.0,0.0,0.0,0.0,0.0,0.0,0.0,0.0,0.0,0.0,0.0,0.0,0.0,0.0,0.0,0.0,0.0,0.0,0.0,0.0,0.0,0.0,0.0,0.0,0.0,0.0,0.0,0.0,0.0,0.0,0.0,0.0,0.0,0.0,0.0,0.0,0.0,0.0,0.0,0.0,0.0,0.0,0.0,0.0,0.0,0.0,0.0,0.0,0.0,0.0,0.0,0.0,0.0,0.0,0.0,0.0,0.0,0.0,0.0,0.0,0.0,0.0,0.0,0.0,0.0,0.0,0.0,0.0,0.0,0.0,0.0,0.0,0.0,0.0,0.0,0.0,0.0,0.0,0.0,0.0,0.0,0.0,0.0,0.0,0.0,0.0,0.0,0.0,0.0,0.0,0.0,0.0,0.0,0.0,0.0,0.0,0.0,0.0,0.0,0.0,0.0,0.0,0.0,0.0,0.0,0.0,0.0,0.0,0.0,0.0,0.0,0.0,0.0,0.0,0.0,0.0,0.0,0.0,0.0,0.0,0.0,0.0,0.0,0.0,0.0,0.0,0.0,0.0,0.0,0.0,0.0,0.0,0.0,0.0,0.0,0.0,0.0,0.0,0.0,0.0,0.0,0.0,0.0,0.0,0.0,0.0,0.0,0.0,0.0,0.0,0.0,0.0,0.0,0.0,0.0,0.0,0.0,0.0,0.0,0.0,0.0,0.0,0.0,0.0,0.0,0.0,0.0,0.0,0.0,0.0,0.0,0.0,0.0,0.0,0.0,0.0,0.0,0.0,0.0,0.0,0.0,0.0,0.0,0.0,0.0,0.0,0.0,0.0,0.0,0.0,0.0,0.0,0.0,0.0,0.0,0.0,0.0,0.0,0.0,0.0,0.0,0.0,0.0,0.0,0.0,0.0,0.0,0.0,0.0,0.0,0.0,0.0,0.0,0.0,0.0,0.0,0.0,0.0,0.0,0.0,0.0,0.0,0.0,0.0,0.0,0.0,0.0,0.0,0.0,0.0,0.0,0.0,0.0,0.0,0.0,0.0,0.0,0.0,0.0,0.0,0.0,0.0,0.0,0.0,0.0,0.0,0.0,0.0,0.0,0.0,0.0,0.0,0.0,0.0,0.0,0.0,0.0,0.0,0.0,0.0,0.0,0.0,0.0,0.0,0.0,0.0,0.0,0.0,0.0,0.0,0.0,0.0,0.0,0.0,0.0,0.0,0.0,0.0,0.0,0.0,0.0,0.0,0.0,0.0,0.0,0.0,0.0,0.0,0.0,0.0,0.0,0.0,0.0,0.0,0.0,0.0,0.0,0.0,0.0,0.0,0.0,0.0,0.0,0.0,0.0,0.0,0.0,0.0,0.0,0.0,0.0,0.0,0.0,0.0,0.0,0.0,0.0,0.0,0.0,0.0,0.0,0.0,0.0,0.0,0.0,0.0,0.0,0.0,0.0,0.0,0.0,0.0,0.0,0.0,0.0,0.0,0.0,0.0,0.0,0.0,0.0,0.0,0.0,0.0,0.0,0.0,0.0,0.0,0.0,0.0,0.0,0.0,0.0,0.0,0.0,0.0,0.0,0.0,0.0,0.0,0.0,0.0,0.0,0.0,0.0,0.0,0.0,0.0,0.0,0.0,0.0,0.0,0.0,0.0,0.0,0.0,0.0,0.0,0.0,0.0,0.0,0.0,0.0,0.0,0.0,0.0,0.0,0.0,0.0,0.0,0.0,0.0,0.0,0.0,0.0,0.0,0.0,0.0,0.0,0.0,0.0,0.0,0.0,0.0,0.0,0.0,0.0,0.0,0.0,0.0,0.0,0.0,0.0,0.0,0.0,0.0,0.0,0.0,0.0,0.0,0.0,0.0,0.0,0.0,0.0,0.0,0.0,0.0,0.0,0.0,0.0,0.0,0.0,0.0,0.0,0.0,0.0,0.0,0.0,0.0,0.0,0.0,0.0,0.0,0.0,0.0,0.0,0.0,0.0,0.0,0.0,0.0,0.0,0.0,0.0,0.0,0.0,0.0,0.0,0.0,0.0,0.0,0.0,0.0,0.0,0.0,0.0,0.0,0.0,0.0,0.0,0.0,0.0,0.0,0.0,0.0,0.0,0.0,0.0,0.0,0.0,0.0,0.0,0.0,0.0,0.0,0.0,0.0,0.0,0.0,0.0,0.0,0.0,0.0,0.0,0.0,0.0,0.0,0.0,0.0,0.0,0.0,0.0,0.0,0.0,0.0,0.0,0.0,0.0,0.0,0.0,0.0,0.0,0.0,0.0,0.0,0.0,0.0,0.0,0.0,0.0,0.0,0.0,0.0,0.0,0.0,0.0,0.0,0.0,0.0,0.0,0.0,0.0,0.0,0.0,0.0,0.0,0.0,0.0,0.0,0.0,0.0,0.0,0.0,0.0,0.0,0.0,0.0,0.0,0.0,0.0,0.0,0.0,0.0,0.0,0.0,0.0,0.0,0.0,0.0,0.0,0.0,0.0,0.0,0.0,0.0,0.0,0.0,0.0,0.0,0.0,0.0,0.0,0.0,0.0,0.0,0.0,0.0,0.0,0.0,0.0,0.0,0.0,0.0,0.0,0.0,0.0,0.0,0.0,0.0,0.0,0.0,0.0,0.0,0.0,0.0,0.0,0.0,0.0,0.0,0.0,0.0,0.0,0.0,0.0,0.0,0.0,0.0,0.0,0.0,0.0,0.0,0.0,0.0,0.0,0.0,0.0,0.0,0.0,0.0,0.0,0.0,0.0,0.0,0.0,0.0,0.0,0.0,0.0,0.0,0.0,0.0,0.0,0.0,0.0,0.0,0.0,0.0,0.0,0.0,0.0,0.0,0.0,0.0,0.0,0.0,0.0,0.0,0.0,0.0,0.0,0.0,0.0,0.0,0.0,0.0,0.0,0.0,0.0,0.0,0.0,0.0,0.0,0.0,0.0,0.0,0.0,0.0,0.0,0.0,0.0,0.0,0.0,0.0,0.0,0.0,0.0,0.0,0.0,0.0,0.0,0.0,0.0,0.0,0.0,0.0,0.0,0.0,0.0,0.0,0.0,0.0,0.0,0.0,0.0,0.0,0.0,0.0,0.0,0.0,0.0,0.0,0.0,0.0,0.0,0.0,0.0,0.0,0.0,0.0,0.0,0.0,0.0,0.0,0.0,0.0,0.0,0.0,0.0,0.0,0.0,0.0,0.0,0.0,0.0,0.0,0.0,0.0,0.0,0.0,0.0,0.0,0.0,0.0,0.0,0.0,0.0,0.0,0.0,0.0,0.0,0.0,0.0,0.0,0.0,0.0,0.0,0.0,0.0,0.0,0.0,0.0,0.0,0.0,0.0,0.0,0.0,0.0,0.0,0.0,0.0,0.0,0.0,0.0,0.0,0.0,0.0,0.0,0.0,0.0,0.0,0.0,0.0,0.0,0.0,0.0,0.0,0.0,0.0,0.0,0.0,0.0,0.0,0.0,0.0,0.0,0.0,0.0,0.0,0.0,0.0,0.0,0.0,0.0,0.0,0.0,0.0,0.0,0.0,0.0,0.0,0.0,0.0,0.0,0.0,0.0,0.0,0.0,0.0,0.0,0.0,0.0,0.0,0.0,0.0,0.0,0.0,0.0,0.0,0.0,0.0,0.0,0.0,0.0,0.0,0.0,0.0,0.0,0.0,0.0,0.0,0.0,0.0,0.0,0.0,0.0,0.0,0.0,0.0,0.0,0.0,0.0,0.0,0.0,0.0,0.0,0.0,0.0,0.0,0.0,0.0,0.0,0.0,0.0,0.0,0.0,0.0,0.0,0.0,0.0,0.0,0.0,0.0,0.0,0.0,0.0,0.0,0.0,0.0,0.0,0.0,0.0,0.0,0.0,0.0,0.0,0.0,0.0,0.0,0.0,0.0,0.0,0.0,0.0,0.0,0.0,0.0,0.0,0.0,0.0,0.0,0.0,0.0,0.0,0.0,0.0,0.0,0.0,0.0,0.0,0.0,0.0,0.0,0.0,0.0,0.0,0.0,0.0,0.0,0.0,0.0,0.0,0.0,0.0,0.0,0.0,0.0,0.0,0.0,0.0,0.0,0.0,0.0,0.0,0.0,0.0,0.0,0.0,0.0,0.0,0.0,0.0,0.0,0.0,0.0,0.0,0.0,0.0,0.0,0.0,0.0,0.0,0.0,0.0,0.0,0.0,0.0,0.0,0.0,0.0,0.0,0.0,0.0,0.0,0.0,0.0,0.0,0.0,0.0,0.0,0.0,0.0,0.0,0.0,0.0,0.0,0.0,0.0,0.0,0.0,0.0,0.0,0.0,0.0,0.0,0.0,0.0,0.0,0.0,0.0,0.0,0.0,0.0,0.0,0.0,0.0,0.0,0.0,0.0,0.0,0.0,0.0,0.0,0.0,0.0,0.0,0.0,0.0,0.0,0.0,0.0,0.0,0.0,0.0,0.0,0.0,0.0,0.0,0.0,0.0,0.0,0.0,0.0,0.0,0.0,0.0,0.0,0.0,0.0,0.0,0.0,0.0,0.0,0.0,0.0,0.0,0.0,0.0,0.0,0.0,0.0,0.0,0.0,0.0,0.0,0.0,0.0,0.0,0.0,0.0,0.0,0.0,0.0,0.0,0.0,0.0,0.0,0.0,0.0,0.0,0.0,0.0,-1.8581,0.0,0.0,0.0,0.0,0.0,0.0,0.0,0.0,0.0,0.0,0.0,0.0,0.0,0.0,0.0,0.0,0.0,0.0,0.0,0.0,0.0,0.0,0.0,0.0,0.0,0.0,0.0,0.0,0.0,0.0,0.0,0.0,0.0,0.0,0.0,0.0,0.0,0.0,0.0,0.0,0.0,0.0,0.0,0.0,0.0,0.0,0.0,0.0,0.0,0.0,0.0,0.0,0.0,0.0,0.0,0.0,0.0,0.0,0.0,0.0,0.0,0.0,0.0,0.0,0.0,0.0,0.0,0.0,0.0,0.0,0.0,0.0,0.0,0.0,0.0,0.0,0.0,0.0,0.0,0.0,0.0,0.0,0.0,0.0,0.0,0.0,0.0,0.0,0.0,0.0,0.0,0.0,0.0,0.0,0.0,0.0,0.0,0.0,0.0,0.0,0.0,0.0,0.0,0.0,0.0,0.0,0.0,0.0,0.0,0.0,0.0,0.0,0.0,0.0,0.0,0.0,-1.897,0.0,0.0,0.0,0.0,0.0,0.0,0.0,0.0,0.0,0.0,0.0,0.0,0.0,0.0,0.0,0.0,0.0,0.0,0.0,0.0,0.0,0.0,0.0,0.0,0.0,0.0,0.0,0.0,0.0,0.0,0.0,0.0,0.0,0.0,0.0,0.0,0.0,0.0,0.0,0.0,0.0,0.0,0.0,0.0,0.0,0.0,0.0,0.0,0.0,0.0,0.0,0.0,0.0,0.0,0.0,0.0,0.0,0.0,0.0,0.0,0.0,0.0,0.0,0.0,0.0,0.0,0.0,0.0,0.0,0.0,0.0,0.0,0.0,0.0,0.0,0.0,0.0,0.0,0.0,0.0,0.0,0.0,0.0,0.0,0.0,0.0,0.0,0.0,0.0,0.0,0.0,0.0,0.0,0.0,0.0,0.0,0.0,0.0,0.0,0.0,0.0,0.0,0.0,0.0,0.0,0.0,0.0,0.0,0.0,-1.9798,-1.9798,-1.9798,-1.9798,-1.9798,-1.9798,-1.9798,-1.9798,0.0,0.0,0.0,0.0,0.0,0.0,0.0,0.0,0.0,0.0,0.0,0.0,0.0,0.0,0.0,0.0,0.0,0.0,0.0,0.0,0.0,0.0,0.0,0.0,0.0,0.0,0.0,0.0,0.0,0.0,0.0,0.0,0.0,0.0,0.0,0.0,0.0,0.0,0.0,0.0,0.0,0.0,0.0,0.0,0.0,0.0,0.0,0.0,0.0,0.0,0.0,0.0,0.0,0.0,0.0,0.0,0.0,0.0,0.0,0.0,0.0,0.0,0.0,0.0,0.0,0.0,0.0,0.0,0.0,0.0,0.0,0.0,0.0,0.0,0.0,0.0,0.0,0.0,0.0,0.0,0.0,0.0,0.0,0.0,0.0,0.0,0.0,-1.582,-1.5082,0.0,0.0,0.0,0.0,0.0,0.0,0.0,0.0,0.0,0.0,0.0,0.0,0.0,0.0,-1.9698,-1.9698,-1.9736,-1.9798,-1.9798,-1.9798,-1.9798,-1.9798,-1.9798,-1.9798,-1.9798,0.0,-1.9798,-1.9798,0.0,0.0,0.0,0.0,0.0,0.0,0.0,0.0,0.0,0.0,0.0,0.0,0.0,0.0,0.0,0.0,0.0,0.0,0.0,0.0,0.0,0.0,0.0,0.0,0.0,0.0,0.0,0.0,0.0,0.0,0.0,0.0,0.0,0.0,0.0,0.0,0.0,0.0,0.0,0.0,0.0,0.0,0.0,0.0,0.0,0.0,0.0,0.0,0.0,0.0,0.0,0.0,0.0,0.0,0.0,0.0,0.0,0.0,0.0,0.0,0.0,0.0,0.0,0.0,0.0,0.0,0.0,0.0,0.0,0.0,0.0,0.0,0.0,0.0,0.0,0.0,0.0,0.0,0.0,0.0,0.0,0.0,0.0,0.0,0.0,-1.6642,-1.6579,-1.6321,-1.6655,-1.7066,0.0,0.0,0.0,0.0,0.0,0.0,0.0,0.0,0.0,-1.9459,-1.9685,-1.9798,-1.9798,-1.9798,-1.9798,-1.9798,-1.9798,-1.9798,-1.9798,-1.9798,-1.9798,-1.9798,-1.9798,-1.9798,-1.9798,-1.9798,-1.9798,-1.9798,0.0,0.0,0.0,0.0,0.0,-1.9798,0.0,0.0,0.0,0.0,0.0,0.0,0.0,0.0,0.0,0.0,0.0,0.0,0.0,0.0,0.0,0.0,0.0,0.0,0.0,0.0,0.0,0.0,0.0,0.0,0.0,0.0,0.0,0.0,0.0,0.0,0.0,0.0,0.0,0.0,0.0,0.0,0.0,0.0,0.0,0.0,0.0,0.0,0.0,0.0,0.0,0.0,0.0,0.0,0.0,0.0,0.0,0.0,0.0,0.0,0.0,0.0,0.0,0.0,0.0,0.0,0.0,0.0,0.0,0.0,0.0,0.0,0.0,0.0,0.0,0.0,0.0,0.0,0.0,0.0,0.0,0.0,0.0,-1.7452,-1.7477,-1.7798,-1.7713,-1.7815,0.0,0.0,0.0,0.0,0.0,0.0,-1.9221,-1.9597,-1.9798,-1.9798,-1.9798,-1.9798,-1.9798,-1.9798,-1.9798,-1.9798,-1.9798,-1.9798,-1.9798,-1.9798,-1.9798,-1.9811,-1.9962,-2.0024,-2.0012,-1.9861,-1.9798,-1.9798,-1.9798,-1.9886,-2.0024,-2.0024,-2.0112,-2.0225,0.0,0.0,0.0,0.0,0.0,0.0,0.0,0.0,0.0,0.0,0.0,0.0,0.0,0.0,0.0,0.0,0.0,0.0,0.0,0.0,0.0,0.0,0.0,0.0,0.0,0.0,0.0,0.0,0.0,0.0,0.0,0.0,0.0,0.0,0.0,0.0,0.0,0.0,0.0,0.0,0.0,0.0,0.0,0.0,0.0,0.0,0.0,0.0,0.0,0.0,0.0,0.0,0.0,0.0,0.0,0.0,0.0,0.0,0.0,0.0,0.0,0.0,0.0,0.0,0.0,0.0,0.0,0.0,0.0,0.0,0.0,0.0,0.0,0.0,0.0,0.0,0.0,0.0,0.0,-1.8967,-1.849,0.0,0.0,0.0,0.0,-1.9685,-1.9748,-1.9761,-1.9761,-1.9786,-1.9798,-1.9798,-1.9798,-1.9798,-1.9798,-1.9798,-1.9798,-1.9798,-1.9798,-1.9798,-1.9798,-1.9798,-1.9798,-1.9836,-2.0388,-2.0668,-2.063,-2.0024,-1.9798,-1.9798,-1.9798,-2.0137,-2.0668,-2.0668,-2.0953,-2.1405,0.0,0.0,0.0,0.0,0.0,0.0,0.0,0.0,0.0,0.0,0.0,0.0,0.0,0.0,0.0,0.0,0.0,0.0,0.0,0.0,0.0,0.0,0.0,0.0,0.0,0.0,0.0,0.0,0.0,0.0,0.0,0.0,0.0,0.0,0.0,0.0,0.0,0.0,0.0,0.0,0.0,0.0,0.0,0.0,0.0,0.0,0.0,0.0,0.0,0.0,0.0,0.0,0.0,0.0,0.0,0.0,0.0,0.0,0.0,0.0,0.0,0.0,0.0,0.0,0.0,0.0,0.0,0.0,0.0,0.0,0.0,0.0,0.0,0.0,0.0,0.0,0.0,0.0,0.0,-1.9015,-1.8864,0.0,0.0,-1.9522,-1.9597,-1.9786,-1.9798,-1.9798,-1.9798,-1.9798,-1.9798,-1.9798,-1.9798,-1.9798,-1.9798,-1.9798,-1.9798,-1.9798,-1.9798,-1.9999,-2.0351,-2.0351,-2.0552,-2.0903,-2.1104,-2.1192,-2.1179,-2.0978,-2.0891,-2.0891,-2.0891,-2.1016,-2.1192,-2.1192,-2.1317,-2.1493,0.0,0.0,0.0,0.0,0.0,0.0,0.0,0.0,0.0,0.0,0.0,0.0,0.0,0.0,0.0,0.0,0.0,0.0,0.0,0.0,0.0,0.0,0.0,0.0,0.0,0.0,0.0,0.0,0.0,0.0,0.0,0.0,0.0,0.0,0.0,0.0,0.0,0.0,0.0,0.0,0.0,0.0,-2.0002,0.0,0.0,0.0,0.0,0.0,0.0,0.0,0.0,0.0,0.0,0.0,0.0,0.0,0.0,0.0,0.0,0.0,0.0,0.0,0.0,0.0,0.0,0.0,0.0,0.0,0.0,0.0,0.0,0.0,0.0,0.0,0.0,0.0,0.0,0.0,-1.9628,-1.9605,-1.9384,-1.9422,-1.9773,-1.9798,-1.9798,-1.9798,-1.9798,-1.9798,-1.9798,-1.9798,-1.9798,-1.9798,-1.9798,-1.9798,-1.9798,-1.9987,-2.0087,-2.01,-2.0288,-2.0577,-2.0941,-2.0941,-2.1142,-2.1493,-2.1681,-2.1769,-2.1782,-2.197,-2.2046,-2.2008,-2.1631,-2.1606,-2.1769,-2.1769,-2.1882,-2.2046,0.0,0.0,0.0,0.0,0.0,0.0,0.0,0.0,0.0,0.0,0.0,0.0,0.0,0.0,0.0,0.0,0.0,0.0,0.0,0.0,0.0,0.0,0.0,0.0,0.0,0.0,0.0,0.0,0.0,0.0,0.0,0.0,0.0,0.0,0.0,0.0,0.0,0.0,0.0,0.0,0.0,0.0,-2.0069,0.0,0.0,0.0,0.0,0.0,0.0,0.0,0.0,0.0,0.0,0.0,0.0,0.0,0.0,0.0,0.0,0.0,0.0,0.0,0.0,0.0,0.0,0.0,0.0,0.0,0.0,0.0,0.0,0.0,0.0,0.0,0.0,0.0,-2.1743,-2.1198,-2.0825,-2.0779,-2.0258,-1.9798,-1.9798,-1.9798,-1.9798,-1.9798,-1.9798,-1.9798,-1.9798,-1.9798,-1.9798,-1.9798,-1.9823,-1.9823,-1.9823,-2.0401,-2.0743,-2.0756,-2.123,-2.1493,-2.1506,-2.1506,-2.1518,-2.1568,-2.2108,-2.2334,-2.2385,-2.2912,-2.3078,-2.3025,-2.1958,-2.187,-2.2334,-2.2334,-2.2686,-2.3103,0.0,0.0,0.0,0.0,0.0,0.0,0.0,0.0,0.0,0.0,0.0,0.0,0.0,0.0,0.0,0.0,0.0,0.0,0.0,0.0,0.0,0.0,0.0,0.0,0.0,0.0,0.0,0.0,0.0,0.0,0.0,0.0,0.0,0.0,0.0,0.0,0.0,0.0,0.0,0.0,0.0,0.0,-2.1684,0.0,0.0,0.0,0.0,0.0,0.0,0.0,0.0,0.0,0.0,0.0,0.0,0.0,0.0,0.0,0.0,0.0,0.0,0.0,0.0,0.0,0.0,0.0,0.0,0.0,0.0,0.0,0.0,0.0,0.0,0.0,0.0,-2.2922,-2.248,-2.1861,-2.1295,-2.0868,-2.066,-2.0346,-1.985,-1.9798,-1.9798,-1.9798,-1.9798,-1.9798,-1.9798,-1.9798,-1.9798,-1.9798,-2.0213,-2.0426,-2.0426,-2.0978,-2.1267,-2.1267,-2.1418,-2.1694,-2.2083,-2.2083,-2.2297,-2.2686,-2.2849,-2.2852,-2.2865,-2.3015,-2.3078,-2.304,-2.2799,-2.2774,-2.2852,-2.2852,-2.3276,-2.3766,0.0,0.0,0.0,0.0,0.0,0.0,0.0,0.0,0.0,0.0,0.0,0.0,0.0,0.0,0.0,0.0,0.0,0.0,0.0,0.0,0.0,0.0,0.0,0.0,0.0,0.0,0.0,0.0,0.0,0.0,0.0,0.0,0.0,0.0,0.0,0.0,0.0,0.0,0.0,0.0,0.0,0.0,-2.2767,-2.2767,-2.2581,-2.2243,-2.1803,-2.1496,-2.1211,-2.1029,0.0,0.0,0.0,0.0,0.0,0.0,0.0,0.0,0.0,0.0,0.0,0.0,0.0,0.0,0.0,0.0,0.0,0.0,0.0,0.0,0.0,0.0,0.0,0.0,-2.3595,-2.3465,-2.3113,-2.2285,-2.1472,-2.0894,-2.0547,-2.0245,-1.985,-1.9798,-1.9798,-1.9798,-1.9798,-1.9798,-1.9798,-2.0037,-2.0162,-2.0162,-2.0715,-2.1016,-2.1016,-2.1556,-2.1832,-2.1832,-2.2071,-2.2347,-2.2661,-2.2661,-2.2836,0.0,-2.3078,-2.3215,-2.3502,-2.3502,-2.3627,0.0,0.0,0.0,0.0,0.0,-2.4054,-2.4343,0.0,0.0,0.0,0.0,0.0,0.0,0.0,0.0,0.0,0.0,0.0,0.0,0.0,0.0,0.0,0.0,0.0,0.0,0.0,0.0,0.0,0.0,0.0,0.0,0.0,0.0,0.0,0.0,0.0,0.0,0.0,0.0,0.0,0.0,0.0,0.0,0.0,0.0,0.0,0.0,0.0,0.0,-2.3511,-2.3427,-2.2987,-2.2412,-2.2344,-2.2282,-2.2237,-2.2282,0.0,0.0,0.0,0.0,0.0,0.0,0.0,0.0,0.0,0.0,0.0,0.0,0.0,0.0,0.0,0.0,0.0,0.0,0.0,0.0,0.0,0.0,0.0,0.0,-2.3595,-2.3595,-2.3595,-2.256,-2.1568,-2.0979,-2.0396,-1.994,-1.9798,-1.9798,-1.9798,-1.9798,-1.9861,-1.9899,-1.9899,0.0,0.0,0.0,0.0,-2.1581,-2.1581,-2.2133,-2.2397,-2.241,-2.284,-2.3078,-2.3078,-2.3078,-2.3115,-2.3165,-2.3165,-2.3552,-2.4092,-2.4092,-2.4418,-2.4858,-2.4305,-2.4092,-2.4155,-2.4644,-2.4858,0.0,0.0,0.0,0.0,0.0,0.0,0.0,0.0,0.0,0.0,0.0,0.0,0.0,0.0,0.0,0.0,0.0,0.0,0.0,0.0,0.0,0.0,0.0,0.0,0.0,0.0,0.0,0.0,0.0,0.0,0.0,0.0,0.0,0.0,0.0,0.0,0.0,0.0,0.0,0.0,0.0,0.0,0.0,-2.4205,-2.3613,-2.3308,-2.3105,-2.2513,-2.2061,-2.1794,-2.2163,-2.2003,-2.1658,-2.2049,0.0,0.0,0.0,0.0,0.0,0.0,0.0,0.0,0.0,0.0,0.0,0.0,0.0,0.0,0.0,0.0,0.0,0.0,0.0,0.0,-2.3595,-2.3595,-2.3595,-2.3595,-2.2965,-2.2253,-2.1615,-2.1424,-2.0939,-1.9901,-1.9798,-1.9798,-1.9798,-2.0238,-2.0555,-2.0555,-2.1029,0.0,-2.133,-2.187,-2.2159,-2.2159,-2.2698,-2.2975,-2.2975,0.0,0.0,-2.3078,-2.3078,-2.3389,-2.3841,-2.3841,-2.4155,-2.4669,-2.4669,-2.4971,-2.5385,-2.487,-2.4669,-2.4669,-2.4782,-2.5084,-2.5448,0.0,0.0,0.0,0.0,0.0,0.0,0.0,0.0,0.0,0.0,0.0,0.0,0.0,0.0,0.0,0.0,0.0,0.0,0.0,0.0,0.0,0.0,0.0,0.0,0.0,0.0,0.0,0.0,0.0,0.0,0.0,0.0,0.0,0.0,0.0,0.0,0.0,0.0,0.0,0.0,0.0,0.0,-2.5507,-2.478,-2.4036,-2.3342,-2.2987,-2.2466,-2.2003,-2.2209,-2.2003,-2.1658,-2.1869,-2.2208,-2.2491,0.0,0.0,0.0,0.0,0.0,0.0,0.0,0.0,0.0,0.0,0.0,0.0,0.0,0.0,-2.3921,0.0,0.0,-2.3595,-2.3595,-2.3595,-2.3595,-2.3595,-2.3334,-2.2905,-2.23,-2.1629,-2.1015,-2.0346,-2.0003,-1.9924,-2.0213,-2.0555,-2.0844,-2.1066,-2.1606,-2.1895,-2.1895,-2.2435,-2.2723,-2.2723,-2.3,-2.3078,-2.3078,-2.3078,-2.3288,-2.3565,-2.3565,-2.3879,-2.4406,-2.4406,-2.4707,-2.5234,-2.5523,-2.5799,-2.6,-2.5749,-2.5636,-2.5636,-2.5636,-2.5799,-2.6025,0.0,0.0,0.0,0.0,0.0,0.0,0.0,0.0,0.0,0.0,0.0,0.0,0.0,0.0,0.0,0.0,0.0,0.0,0.0,0.0,0.0,0.0,0.0,0.0,0.0,0.0,0.0,0.0,0.0,0.0,0.0,0.0,0.0,0.0,0.0,0.0,0.0,0.0,0.0,0.0,0.0,0.0,-2.6623,-2.5879,-2.478,-2.3579,-2.3444,-2.2936,-2.231,-2.231,-2.2132,-2.1963,-2.1963,-2.246,-2.3054,-2.3054,-2.3823,0.0,0.0,0.0,0.0,0.0,0.0,0.0,0.0,0.0,-2.5297,-2.3879,-2.3948,-2.4116,-2.3681,-2.3595,-2.3595,-2.3595,-2.3595,-2.3595,-2.3595,-2.3595,-2.3421,-2.292,-2.1738,-2.0983,-2.0954,-2.0374,-2.0213,-2.0832,-2.097,-2.1179,-2.1631,-2.2171,-2.2472,-2.2472,-2.284,-2.3078,-2.3078,-2.3078,-2.3078,-2.3078,-2.3251,-2.3552,-2.4004,-2.4104,-2.4456,-2.4971,-2.5096,-2.5385,-2.5799,-2.6264,-2.6533,-2.6533,-2.6533,-2.6533,-2.6533,-2.6533,-2.6533,-2.6533,0.0,0.0,0.0,0.0,0.0,0.0,0.0,0.0,0.0,0.0,0.0,0.0,0.0,0.0,0.0,0.0,0.0,0.0,0.0,0.0,0.0,0.0,0.0,0.0,0.0,0.0,0.0,0.0,0.0,0.0,0.0,0.0,0.0,0.0,0.0,0.0,0.0,0.0,0.0,0.0,0.0,0.0,-2.6623,-2.5879,-2.5084,-2.4272,-2.363,-2.2936,-2.231,-2.231,-2.2704,-2.3199,-2.3199,-2.3688,-2.4309,-2.4309,0.0,-2.549,-2.549,-2.532,-2.5201,-2.5281,-2.4934,-2.443,0.0,0.0,-2.4389,-2.3767,-2.3638,-2.3681,-2.3595,-2.3595,-2.3595,-2.3595,-2.3595,-2.3595,-2.3595,-2.3595,-2.3551,-2.3508,-2.2363,-2.1594,-2.1508,-2.0963,-2.0803,-2.1355,-2.1845,-2.2159,-2.2221,-2.2736,-2.2977,-2.2977,-2.304,-2.3078,-2.3078,-2.3078,-2.3078,-2.3078,-2.3653,-2.3941,-2.4017,-2.4506,-2.5008,-2.5536,-2.605,-2.6314,-2.6433,-2.6496,-2.6533,-2.6533,-2.6533,-2.6533,-2.6533,-2.6533,-2.6533,-2.6533,0.0,0.0,0.0,0.0,0.0,0.0,0.0,0.0,0.0,0.0,0.0,0.0,0.0,0.0,0.0,0.0,0.0,0.0,0.0,0.0,0.0,0.0,0.0,0.0,0.0,0.0,0.0,0.0,0.0,0.0,0.0,0.0,0.0,0.0,0.0,0.0,0.0,0.0,0.0,0.0,0.0,0.0,-2.6031,-2.5727,-2.4881,-2.3866,-2.3985,-2.3562,0.0,0.0,-2.3782,-2.4036,-2.4036,-2.4543,-2.5135,-2.5135,-2.5659,0.0,-2.5915,-2.5766,0.0,0.0,-2.5012,-2.4752,-2.4199,-2.4225,-2.4225,-2.3724,-2.3595,-2.3595,-2.3595,-2.3595,-2.3595,0.0,-2.3595,-2.3595,-2.3595,-2.3595,-2.3744,-2.4148,-2.3412,-2.2698,-2.2224,-2.1957,-2.1838,-2.1977,-2.2184,-2.2447,-2.2774,-2.2952,-2.3078,-2.3078,-2.3078,-2.3078,-2.3078,-2.3477,-2.364,-2.364,-2.4205,-2.4644,-2.4933,-2.5172,-2.5573,-2.6113,-2.642,-2.6533,-2.6533,-2.6533,-2.6533,-2.6533,-2.6533,-2.6533,-2.6533,-2.6533,-2.6533,-2.6502,0.0,0.0,0.0,0.0,0.0,0.0,0.0,0.0,0.0,0.0,0.0,0.0,0.0,0.0,0.0,0.0,0.0,0.0,0.0,0.0,0.0,0.0,0.0,0.0,0.0,0.0,0.0,0.0,0.0,0.0,0.0,0.0,0.0,0.0,0.0,0.0,0.0,0.0,0.0,0.0,0.0,0.0,-2.527,-2.5067,-2.455,-2.3925,-2.435,-2.4092,0.0,0.0,-2.4703,-2.4965,-2.4842,-2.5304,-2.5913,-2.5913,-2.6285,-2.6624,-2.6297,0.0,0.0,-2.5335,-2.5105,-2.4831,-2.4307,-2.4184,-2.4074,-2.3681,-2.3595,-2.3595,-2.3595,-2.3595,-2.3595,-2.3595,-2.3595,-2.3595,-2.3595,-2.3759,-2.4073,-2.4522,-2.4543,-2.41,-2.3197,-2.2923,-2.2737,-2.2556,-2.2535,-2.2711,-2.3053,-2.3078,-2.3078,-2.3078,-2.3288,-2.3376,-2.3376,-2.3941,-2.423,-2.423,-2.477,-2.5234,-2.5598,-2.5762,-2.6063,-2.6533,-2.6533,-2.6533,-2.6533,-2.6533,-2.6533,-2.6546,-2.6697,-2.6691,-2.6703,-2.6854,-2.6816,-2.6766,0.0,0.0,0.0,0.0,0.0,0.0,0.0,0.0,0.0,0.0,0.0,0.0,0.0,0.0,0.0,0.0,0.0,0.0,0.0,0.0,0.0,0.0,0.0,0.0,0.0,0.0,0.0,0.0,0.0,0.0,0.0,0.0,0.0,0.0,0.0,0.0,0.0,0.0,0.0,0.0,0.0,0.0,-2.4472,-2.3731,-2.4115,-2.4999,-2.4641,0.0,0.0,0.0,-2.521,-2.61,-2.5686,-2.6065,0.0,-2.6657,-2.6674,0.0,0.0,0.0,-2.5888,-2.5335,-2.4831,-2.4266,-2.3767,-2.3638,-2.3638,-2.3595,-2.3595,-2.3595,-2.3595,-2.3595,-2.3595,-2.3595,-2.3595,-2.3595,-2.3595,-2.4178,-2.4567,-2.4582,-2.5749,-2.5941,0.0,-2.377,-2.3267,-2.3062,-2.3053,-2.3053,-2.3078,-2.3078,-2.3078,-2.3078,-2.3678,-2.3966,-2.3966,-2.4519,-2.4795,-2.4808,-2.5322,-2.5573,-2.5611,-2.6176,-2.6508,-2.6533,-2.6533,-2.6533,-2.6533,-2.6533,-2.6533,-2.6584,-2.7055,-2.7256,-2.7318,-2.7858,-2.772,-2.7344,0.0,0.0,0.0,0.0,0.0,0.0,0.0,0.0,0.0,0.0,0.0,0.0,0.0,0.0,0.0,0.0,0.0,0.0,0.0,0.0,0.0,0.0,0.0,0.0,0.0,0.0,0.0,0.0,0.0,0.0,0.0,0.0,0.0,0.0,0.0,0.0,0.0,0.0,0.0,0.0,0.0,0.0,-2.4329,-2.3902,-2.4118,-2.4681,0.0,0.0,0.0,0.0,0.0,0.0,-2.7073,0.0,0.0,-2.7083,0.0,0.0,0.0,0.0,-2.6367,-2.5835,-2.5335,-2.4855,-2.4697,-2.4116,-2.3724,-2.4074,-2.4116,-2.4116,-2.4116,-2.4116,-2.4116,-2.4116,-2.3837,-2.3759,-2.4223,-2.4433,-2.4956,-2.5824,-2.6318,0.0,0.0,0.0,0.0,-2.3173,-2.3078,-2.3078,-2.3078,-2.3078,-2.3314,-2.369,-2.3891,-2.4167,-2.4544,-2.5071,-2.5335,-2.5335,-2.59,-2.6163,-2.6176,-2.6445,-2.6533,-2.6533,-2.6533,-2.6533,-2.6533,-2.6533,-2.6747,-2.703,-2.7205,-2.7507,-2.7896,-2.8448,-2.8536,-2.8398,0.0,0.0,0.0,0.0,0.0,0.0,0.0,0.0,0.0,0.0,0.0,0.0,0.0,0.0,0.0,0.0,0.0,0.0,0.0,0.0,0.0,0.0,0.0,0.0,0.0,0.0,0.0,0.0,0.0,0.0,0.0,0.0,0.0,0.0,0.0,0.0,0.0,0.0,0.0,0.0,0.0,0.0,-2.3876,-2.371,-2.402,0.0,0.0,0.0,0.0,0.0,0.0,0.0,0.0,0.0,0.0,0.0,0.0,0.0,0.0,-2.6691,-2.659,-2.612,-2.5726,-2.5465,-2.5259,-2.4511,-2.3991,-2.4307,-2.4389,-2.4389,-2.4389,-2.4389,-2.4467,-2.473,-2.4329,-2.4208,-2.4881,-2.5181,-2.5644,-2.6497,-2.6797,0.0,0.0,0.0,0.0,-2.3649,-2.3245,-2.3165,-2.3427,-2.3439,-2.3703,-2.428,-2.4469,-2.4745,-2.5096,-2.5636,-2.59,-2.5912,-2.6276,-2.6533,-2.6533,-2.6533,-2.6533,-2.6533,-2.6533,-2.6647,-2.6753,-2.6753,-2.708,-2.7595,-2.7795,-2.8084,-2.8461,-2.9026,-2.9239,-2.9239,0.0,0.0,0.0,0.0,0.0,0.0,0.0,0.0,0.0,0.0,0.0,0.0,0.0,0.0,0.0,0.0,0.0,0.0,0.0,0.0,0.0,0.0,0.0,0.0,0.0,0.0,0.0,0.0,0.0,0.0,0.0,0.0,0.0,0.0,0.0,0.0,0.0,0.0,0.0,0.0,0.0,0.0,-2.3264,-2.3264,0.0,0.0,0.0,0.0,0.0,0.0,0.0,0.0,0.0,0.0,0.0,0.0,0.0,-2.6691,-2.6691,-2.6691,-2.659,-2.6156,-2.6013,-2.5888,-2.5373,-2.4816,-2.4471,-2.4471,-2.4471,-2.4471,0.0,0.0,-2.4647,-2.5288,-2.4938,-2.4806,-2.551,-2.6183,-2.6602,0.0,0.0,0.0,0.0,0.0,0.0,-2.4452,0.0,-2.3389,-2.3966,-2.4004,-2.4268,-2.4845,-2.5335,-2.5611,-2.5636,-2.6189,-2.6533,-2.6533,-2.6533,-2.6533,-2.6533,-2.6533,-2.6533,-2.6533,-2.6559,-2.6804,-2.7281,-2.7318,-2.7657,-2.8197,-2.8725,-2.895,-2.9038,-2.9591,-2.9792,-2.9792,0.0,0.0,0.0,0.0,0.0,0.0,0.0,0.0,0.0,0.0,0.0,0.0,0.0,0.0,0.0,0.0,0.0,0.0,0.0,0.0,0.0,0.0,0.0,0.0,0.0,0.0,0.0,0.0,0.0,0.0,0.0,0.0,0.0,0.0,0.0,0.0,0.0,0.0,0.0,0.0,0.0,0.0,-2.4348,0.0,0.0,0.0,0.0,0.0,0.0,0.0,0.0,0.0,0.0,0.0,-2.7272,0.0,0.0,-2.6691,-2.6691,-2.6691,-2.6657,-2.6539,-2.6262,-2.6049,-2.628,-2.5635,-2.5105,-2.5486,-2.5577,-2.5577,0.0,0.0,0.0,-2.5227,-2.4863,0.0,-2.551,-2.6183,0.0,-2.726,0.0,-2.7524,-2.7357,-2.6826,0.0,0.0,-2.4394,-2.3966,-2.4029,-2.4004,-2.4431,-2.5372,-2.5523,-2.5799,-2.6239,-2.6445,-2.6533,-2.6533,-2.6533,-2.6533,-2.6533,-2.6533,-2.6533,-2.6546,-2.6892,-2.7155,-2.7318,-2.772,-2.8222,-2.8737,-2.8875,-2.9189,-2.9591,-2.9741,-2.9792,-2.9792,0.0,0.0,0.0,0.0,0.0,0.0,0.0,0.0,0.0,0.0,0.0,0.0,0.0,0.0,0.0,0.0,0.0,0.0,0.0,0.0,0.0,0.0,0.0,0.0,0.0,0.0,0.0,0.0,0.0,0.0,0.0,0.0,0.0,0.0,0.0,0.0,0.0,0.0,0.0,0.0,0.0,0.0,0.0,0.0,0.0,0.0,0.0,0.0,0.0,0.0,0.0,-2.8075,-2.75,-2.7303,-2.7272,-2.7083,0.0,-2.6691,-2.6691,-2.6691,-2.6691,-2.6691,-2.6505,-2.6367,-2.6657,-2.6087,-2.5652,-2.5941,-2.6013,0.0,0.0,0.0,0.0,0.0,0.0,0.0,-2.6333,-2.6782,-2.7156,0.0,-2.7625,0.0,-2.7625,-2.7469,-2.7142,0.0,-2.5287,-2.458,-2.4394,-2.4569,-2.5096,-2.595,-2.5975,-2.6138,-2.6533,-2.6533,-2.6533,-2.6533,-2.6533,-2.6533,-2.6533,-2.6533,-2.6659,-2.6841,0.0,-2.7557,-2.8034,-2.8335,-2.88,-2.9302,-2.9302,-2.9503,-2.9792,-2.9792,-2.9792,-2.9792,0.0,0.0,0.0,0.0,0.0,0.0,0.0,0.0,0.0,0.0,0.0,0.0,0.0,0.0,0.0,0.0,0.0,0.0,0.0,0.0,0.0,0.0,0.0,0.0,0.0,0.0,0.0,0.0,0.0,0.0,0.0,0.0,0.0,0.0,0.0,0.0,0.0,0.0,0.0,0.0,0.0,0.0,0.0,0.0,0.0,0.0,0.0,0.0,0.0,0.0,-2.7484,-2.784,-2.7426,-2.7255,-2.7147,-2.6808,-2.6691,-2.6691,-2.6691,-2.6691,-2.6691,-2.6691,-2.6691,-2.6691,-2.6691,-2.6401,-2.6068,-2.6068,0.0,-2.6068,-2.6068,0.0,-2.5692,-2.6876,0.0,-2.6129,-2.731,-2.7515,-2.7625,-2.7625,-2.7625,-2.7625,-2.7625,-2.8203,-2.8314,-2.757,-2.6332,-2.5489,-2.5076,-2.5545,-2.5996,-2.6508,-2.6533,-2.6533,-2.6533,-2.6533,-2.6533,-2.6533,-2.6533,-2.6533,-2.6533,-2.6596,-2.6829,-2.7293,0.0,0.0,-2.8938,-2.9013,-2.934,-2.9792,-2.9792,-2.9792,-2.9792,-2.9792,-2.9792,-2.9792,0.0,0.0,0.0,0.0,0.0,0.0,0.0,0.0,0.0,0.0,0.0,0.0,0.0,0.0,0.0,0.0,0.0,0.0,0.0,0.0,0.0,0.0,0.0,0.0,0.0,0.0,0.0,0.0,0.0,0.0,0.0,0.0,0.0,0.0,0.0,0.0,0.0,0.0,0.0,0.0,0.0,0.0,0.0,0.0,0.0,0.0,0.0,0.0,0.0,0.0,-2.7362,-2.784,-2.7426,-2.7051,-2.6791,-2.6725,-2.6691,-2.6691,-2.6691,-2.6691,-2.6691,-2.6691,-2.6691,-2.6691,-2.6691,-2.6624,0.0,0.0,0.0,-2.659,-2.659,-2.6175,0.0,-2.6318,0.0,0.0,0.0,0.0,-2.7625,0.0,0.0,0.0,0.0,0.0,0.0,0.0,0.0,0.0,-2.6593,-2.6633,-2.6634,-2.6508,-2.6533,-2.6533,-2.6533,-2.6533,-2.6533,-2.6533,-2.6533,-2.6533,-2.6546,-2.6929,-2.7193,-2.7331,0.0,0.0,-2.8963,-2.9453,-2.9704,-2.9792,-2.9792,-2.9792,-2.9792,-2.9792,-2.9792,-2.9792,0.0,0.0,0.0,0.0,0.0,0.0,0.0,0.0,0.0,0.0,0.0,0.0,0.0,0.0,0.0,0.0,0.0,0.0,0.0,0.0,0.0,0.0,0.0,0.0,0.0,0.0,0.0,0.0,0.0,0.0,0.0,0.0,0.0,0.0,0.0,0.0,0.0,0.0,0.0,0.0,0.0,0.0,0.0,0.0,0.0,0.0,0.0,0.0,0.0,0.0,-2.6924,-2.7679,-2.7624,-2.7334,-2.6971,-2.6758,-2.6691,-2.6691,-2.6691,-2.6691,-2.6691,-2.6691,-2.6691,-2.6691,-2.6691,0.0,0.0,0.0,0.0,-2.6691,-2.6691,0.0,0.0,0.0,0.0,0.0,0.0,0.0,0.0,0.0,0.0,0.0,0.0,0.0,0.0,0.0,0.0,0.0,-2.7019,-2.6791,-2.6637,-2.6521,-2.6533,-2.6533,-2.6533,-2.6533,-2.6533,-2.6533,-2.6533,-2.6684,-2.6904,-2.7155,-2.7595,-2.8172,-2.8699,0.0,-2.9402,-2.9679,-2.9792,-2.9792,-2.9792,-2.9792,-2.9792,-2.9792,-2.9792,-2.9792,0.0,0.0,0.0,0.0,0.0,0.0,0.0,0.0,0.0,0.0,0.0,0.0,0.0,0.0,0.0,0.0,0.0,0.0,0.0,0.0,0.0,0.0,0.0,0.0,0.0,0.0,0.0,0.0,0.0,0.0,0.0,0.0,0.0,0.0,0.0,0.0,0.0,0.0,0.0,0.0,0.0,0.0,0.0,0.0,0.0,0.0,0.0,0.0,0.0,0.0,-2.6488,-2.7405,-2.7725,-2.7578,-2.7241,-2.6939,-2.6791,-2.6691,-2.6691,-2.6691,-2.6691,-2.6691,-2.6691,-2.6691,-2.6691,-2.6691,0.0,0.0,-2.6691,-2.6691,-2.6691,0.0,0.0,0.0,0.0,0.0,0.0,0.0,0.0,0.0,0.0,0.0,0.0,0.0,0.0,0.0,0.0,0.0,-2.7511,-2.6984,-2.6658,-2.6533,-2.6533,-2.6533,-2.6533,-2.6533,-2.6533,-2.6533,-2.6533,-2.6753,-2.7281,-2.7406,-2.7996,-2.8938,-2.9063,0.0,0.0,-2.9792,-2.9792,-2.9792,-2.9792,-2.9792,-2.9792,-2.9792,-2.9792,-2.9792,0.0,0.0,0.0,0.0,0.0,0.0,0.0,0.0,0.0,0.0,0.0,0.0,0.0,0.0,0.0,0.0,0.0,0.0,0.0,0.0,0.0,0.0,0.0,0.0,0.0,0.0,0.0,0.0,0.0,0.0,0.0,0.0,0.0,0.0,0.0,0.0,0.0,0.0,0.0,0.0,0.0,0.0,0.0,0.0,0.0,0.0,0.0,0.0,0.0,0.0,0.0,-2.7025,-2.7409,-2.7442,-2.7286,-2.7272,0.0,0.0,-2.6691,-2.6691,-2.6691,-2.6691,-2.6691,-2.6691,-2.6691,0.0,0.0,-2.6691,-2.6691,-2.6691,-2.6691,0.0,0.0,0.0,0.0,0.0,0.0,0.0,0.0,0.0,0.0,0.0,0.0,0.0,0.0,0.0,0.0,0.0,0.0,-2.8025,-2.7229,-2.6521,-2.6533,-2.6533,-2.6533,-2.6533,-2.6533,-2.6533,-2.6533,-2.6753,-2.7306,-2.7795,-2.836,-2.895,0.0,0.0,0.0,-2.9792,-2.9792,-2.9792,-2.9792,-2.9792,-2.9792,-2.9792,-2.9792,-2.9792,0.0,0.0,0.0,0.0,0.0,0.0,0.0,0.0,0.0,0.0,0.0,0.0,0.0,0.0,0.0,0.0,0.0,0.0,0.0,0.0,0.0,0.0,0.0,0.0,0.0,0.0,0.0,0.0,0.0,0.0,0.0,0.0,0.0,0.0,0.0,0.0,0.0,0.0,0.0,0.0,0.0,0.0,0.0,0.0,0.0,0.0,0.0,0.0,0.0,0.0,0.0,0.0,-2.7117,-2.7507,0.0,0.0,-2.7178,-2.6987,-2.6758,-2.6691,-2.6691,-2.6691,-2.6691,-2.6691,-2.6691,0.0,0.0,-2.6691,-2.6691,-2.6691,-2.6691,0.0,0.0,0.0,0.0,0.0,0.0,0.0,0.0,0.0,0.0,0.0,0.0,0.0,0.0,0.0,0.0,0.0,0.0,-2.8427,-2.7351,-2.6521,-2.6533,-2.6533,-2.6533,-2.6533,-2.6533,-2.6533,-2.6533,-2.6917,-2.7783,-2.8009,-2.8599,-2.9465,0.0,0.0,0.0,-2.9792,-2.9792,-2.9792,-2.9792,-2.9792,-2.9792,-2.9792,-2.9792,-2.9792,0.0,0.0,0.0,0.0,0.0,0.0,0.0,0.0,0.0,0.0,0.0,0.0,0.0,0.0,0.0,0.0,0.0,0.0,0.0,0.0,0.0,0.0,0.0,0.0,0.0,0.0,0.0,0.0,0.0,0.0,0.0,0.0,0.0,0.0,0.0,0.0,0.0,0.0,0.0,0.0,0.0,0.0,0.0,0.0,0.0,0.0,0.0,0.0,0.0,0.0,0.0,0.0,0.0,0.0,0.0,0.0,-2.747,-2.7241,-2.6954,-2.6791,-2.6691,-2.6691,-2.6691,-2.6691,0.0,0.0,0.0,-2.6691,-2.6691,-2.6691,-2.6691,-2.6691,-2.7131,0.0,0.0,-2.854,0.0,0.0,0.0,0.0,0.0,0.0,0.0,0.0,0.0,0.0,0.0,0.0,0.0,-2.8876,-2.7736,-2.6905,-2.6589,-2.6533,-2.6533,-2.6533,-2.6533,-2.6533,-2.6533,-2.703,-2.8109,-2.8109,-2.8725,-2.9792,0.0,0.0,0.0,-2.9792,-2.9792,-2.9792,-2.9792,-2.9792,-2.9792,-2.9792,-2.9792,-2.9792,0.0,0.0,0.0,0.0,0.0,0.0,0.0,0.0,0.0,0.0,0.0,0.0,0.0,0.0,0.0,0.0,0.0,0.0,0.0,0.0,0.0,0.0,0.0,0.0,0.0,0.0,0.0,0.0,0.0,0.0,0.0,0.0,0.0,0.0,0.0,0.0,0.0,0.0,0.0,0.0,0.0,0.0,0.0,0.0,0.0,0.0,0.0,0.0,0.0,0.0,0.0,0.0,0.0,0.0,0.0,0.0,-2.7872,-2.7303,-2.7286,-2.6987,-2.6691,-2.6691,-2.6691,-2.6691,0.0,0.0,0.0,-2.6691,-2.6691,-2.6691,-2.6691,-2.6691,-2.6945,-2.7671,-2.7977,0.0,-2.9107,0.0,0.0,0.0,0.0,0.0,0.0,0.0,0.0,0.0,0.0,0.0,0.0,-2.9442,-2.862,-2.7736,-2.6905,-2.6533,-2.6533,-2.6533,-2.6533,-2.6533,-2.6533,-2.703,-2.8109,-2.8109,-2.8725,0.0,0.0,0.0,0.0,-2.9792,-2.9792,-2.9792,-2.9792,-2.9792,-2.9792,-2.9792,-2.9792,-2.9792,0.0,0.0,0.0,0.0,0.0,0.0,0.0,0.0,0.0,0.0,0.0,0.0,0.0,0.0,0.0,0.0,0.0,0.0,0.0,0.0,0.0,0.0,0.0,0.0,0.0,0.0,0.0,0.0,0.0,0.0,0.0,0.0,0.0,0.0,0.0,0.0,0.0,0.0,0.0,0.0,0.0,0.0,0.0,0.0,0.0,0.0,0.0,0.0,0.0,0.0,0.0,0.0,0.0,0.0,0.0,0.0,0.0,0.0,-2.7765,-2.7426,-2.7115,-2.7115,-2.6906,-2.6691,-2.6691,0.0,0.0,-2.6691,-2.6691,-2.6691,-2.6691,-2.6691,-2.6945,-2.7689,-2.8306,-2.8988,0.0,0.0,0.0,0.0,0.0,0.0,0.0,0.0,0.0,0.0,0.0,0.0,0.0,-3.0329,-2.9192,-2.7736,-2.6905,-2.6533,-2.6533,-2.6533,-2.6533,-2.6533,-2.6533,-2.703,-2.8109,-2.8109,0.0,0.0,0.0,0.0,0.0,-2.9792,-2.9792,-2.9792,-2.9792,-2.9792,-2.9792,-2.9792,-2.9792,-2.9792,0.0,0.0,0.0,0.0,0.0,0.0,0.0,0.0,0.0,0.0,0.0,0.0,0.0,0.0,0.0,0.0,0.0,0.0,0.0,0.0,0.0,0.0,0.0,0.0,0.0,0.0,0.0,0.0,0.0,0.0,0.0,0.0,0.0,0.0,0.0,0.0,0.0,0.0,0.0,0.0,0.0,0.0,-2.1227,0.0,0.0,0.0,0.0,0.0,0.0,0.0,0.0,0.0,0.0,0.0,0.0,0.0,0.0,0.0,0.0,-2.7707,-2.7303,-2.7303,-2.6987,0.0,0.0,0.0,0.0,0.0,-2.6691,-2.6691,-2.6691,-2.6691,-2.6843,-2.7317,-2.8281,-2.907,-2.9319,0.0,0.0,0.0,0.0,0.0,0.0,0.0,0.0,0.0,0.0,0.0,0.0,0.0,-2.9827,-2.8748,-2.7537,-2.6782,-2.6533,-2.6533,-2.6533,-2.6533,-2.6533,-2.6929,-2.7808,-2.8009,0.0,0.0,0.0,0.0,0.0,-2.9792,-2.9792,-2.9792,-2.9792,-2.9792,-2.9792,-2.9792,-2.9792,-2.9792,0.0,0.0,0.0,0.0,0.0,0.0,0.0,0.0,0.0,0.0,0.0,0.0,0.0,0.0,0.0,0.0,0.0,0.0,0.0,0.0,0.0,0.0,0.0,0.0,0.0,0.0,0.0,0.0,-2.0605,-2.0605,-2.0605,0.0,0.0,0.0,0.0,0.0,0.0,0.0,0.0,0.0,0.0,0.0,0.0,0.0,0.0,0.0,0.0,0.0,0.0,0.0,0.0,0.0,0.0,0.0,0.0,0.0,0.0,0.0,0.0,0.0,0.0,0.0,0.0,0.0,0.0,0.0,0.0,0.0,0.0,-2.6691,-2.6691,-2.6691,-2.6691,-2.6691,-2.7977,-2.8811,0.0,0.0,0.0,0.0,0.0,0.0,0.0,0.0,0.0,0.0,0.0,0.0,0.0,0.0,-3.0329,-3.0329,-2.8684,-2.7417,-2.6589,-2.6521,-2.6533,-2.6533,-2.6533,-2.6753,-2.7306,-2.7858,0.0,0.0,0.0,0.0,0.0,-2.9792,-2.9792,-2.9792,-2.9792,-2.9792,-2.9792,-2.9792,-2.9792,-2.9792,0.0,0.0,0.0,0.0,0.0,0.0,0.0,0.0,0.0,0.0,0.0,0.0,0.0,0.0,0.0,0.0,0.0,0.0,0.0,0.0,0.0,0.0,0.0,0.0,0.0,0.0,0.0,-2.0605,-2.0605,-2.0605,-2.0605,-2.0605,0.0,0.0,0.0,0.0,0.0,0.0,0.0,0.0,0.0,0.0,0.0,0.0,0.0,0.0,-2.4005,-2.4774,0.0,0.0,0.0,0.0,0.0,0.0,0.0,0.0,-2.8374,0.0,0.0,0.0,0.0,0.0,0.0,0.0,0.0,0.0,0.0,0.0,0.0,-2.6691,-2.6691,-2.6691,-2.6691,-2.6691,-2.7977,-2.8811,-2.819,0.0,0.0,0.0,0.0,0.0,0.0,0.0,0.0,0.0,0.0,0.0,0.0,0.0,-3.097,-3.0329,-2.9254,-2.8298,-2.7417,-2.6782,-2.6533,-2.6533,-2.6533,-2.6753,-2.7306,-2.7858,0.0,0.0,0.0,0.0,-2.9792,-2.9792,-2.9792,-2.9792,-2.9792,-2.9792,-2.9792,-2.9792,-2.9792,-2.9792,0.0,0.0,0.0,0.0,0.0,0.0,0.0,0.0,0.0,0.0,0.0,0.0,0.0,0.0,0.0,0.0,0.0,0.0,0.0,0.0,0.0,0.0,0.0,0.0,0.0,0.0,0.0,0.0,0.0,-2.0605,0.0,0.0,0.0,0.0,0.0,0.0,0.0,0.0,0.0,0.0,0.0,0.0,0.0,0.0,0.0,0.0,-2.3783,-2.4562,0.0,-2.4883,-2.4746,-2.4682,0.0,0.0,0.0,0.0,-2.8081,0.0,0.0,0.0,0.0,0.0,0.0,0.0,0.0,0.0,0.0,0.0,0.0,0.0,-2.6691,0.0,0.0,-2.6691,-2.7782,0.0,0.0,0.0,0.0,0.0,0.0,0.0,0.0,0.0,0.0,0.0,0.0,0.0,0.0,0.0,-3.1278,-3.0837,-2.9628,-2.8556,-2.7736,-2.6905,-2.6533,-2.6533,-2.6533,-2.6615,-2.6929,-2.7733,0.0,0.0,0.0,0.0,-2.9792,-2.9792,-2.9792,-2.9792,-2.9792,-2.9792,-2.9792,-2.9792,-2.9792,-2.9792,0.0,0.0,0.0,0.0,0.0,0.0,0.0,0.0,0.0,0.0,0.0,0.0,0.0,0.0,0.0,0.0,0.0,0.0,0.0,0.0,0.0,0.0,0.0,0.0,0.0,0.0,0.0,0.0,0.0,0.0,0.0,0.0,0.0,0.0,0.0,0.0,0.0,0.0,0.0,0.0,-2.0312,0.0,0.0,0.0,0.0,0.0,0.0,0.0,0.0,-2.4814,-2.4639,-2.4461,-2.4247,0.0,0.0,0.0,0.0,0.0,0.0,0.0,0.0,0.0,0.0,0.0,0.0,0.0,0.0,0.0,0.0,0.0,0.0,0.0,0.0,0.0,0.0,0.0,0.0,0.0,0.0,0.0,0.0,0.0,0.0,0.0,0.0,0.0,0.0,0.0,0.0,0.0,0.0,-3.1482,-3.0011,-2.8812,-2.8117,-2.704,-2.6589,-2.6658,-2.6589,-2.6533,-2.6571,-2.7607,0.0,0.0,0.0,0.0,-2.9792,-2.9792,-2.9792,-2.9792,-2.9792,-2.9792,-2.9792,-2.9792,-2.9792,-2.9792,0.0,0.0,0.0,0.0,0.0,0.0,0.0,0.0,0.0,0.0,0.0,0.0,0.0,0.0,0.0,0.0,0.0,0.0,0.0,0.0,0.0,0.0,0.0,0.0,0.0,0.0,0.0,0.0,0.0,0.0,-2.0521,-2.0569,-2.056,0.0,0.0,0.0,0.0,-2.0331,-2.0312,-2.0312,0.0,0.0,0.0,0.0,0.0,0.0,0.0,0.0,0.0,-2.4651,-2.4528,-2.4461,-2.4247,0.0,0.0,0.0,0.0,0.0,0.0,0.0,0.0,0.0,0.0,0.0,0.0,0.0,0.0,0.0,0.0,0.0,0.0,0.0,0.0,0.0,0.0,0.0,0.0,0.0,0.0,0.0,0.0,0.0,0.0,0.0,0.0,0.0,0.0,0.0,0.0,0.0,0.0,-3.1482,-3.0584,-3.0011,-2.9889,-2.767,-2.685,-2.7484,-2.685,-2.6533,-2.6571,-2.7607,-2.8109,0.0,0.0,-2.9792,-2.9792,-2.9792,-2.9792,-2.9792,-2.9792,-2.9792,-2.9792,-2.9792,-2.9792,-2.9792,0.0,0.0,0.0,0.0,0.0,0.0,0.0,0.0,0.0,0.0,0.0,0.0,0.0,0.0,0.0,0.0,0.0,0.0,0.0,0.0,0.0,0.0,0.0,0.0,0.0,0.0,0.0,0.0,0.0,-2.0479,-2.046,-2.0482,-2.0482,-2.0435,0.0,0.0,0.0,-2.0312,-2.0312,-2.0312,0.0,0.0,0.0,0.0,0.0,0.0,0.0,0.0,0.0,0.0,-2.4445,-2.4321,-2.4228,0.0,0.0,0.0,0.0,0.0,0.0,0.0,0.0,0.0,0.0,0.0,0.0,0.0,0.0,0.0,0.0,0.0,0.0,0.0,0.0,0.0,0.0,0.0,0.0,0.0,0.0,0.0,0.0,0.0,0.0,0.0,0.0,0.0,0.0,0.0,0.0,0.0,0.0,0.0,-3.0718,-3.0524,-3.097,-2.8427,-2.7351,-2.767,-2.6905,-2.6533,-2.6571,-2.7607,-2.8109,-2.816,0.0,-2.9792,-2.9792,-2.9792,-2.9792,-2.9792,-2.9792,-2.9792,-2.9792,-2.9792,-2.9792,-2.9792,0.0,0.0,0.0,0.0,0.0,0.0,0.0,0.0,0.0,0.0,0.0,0.0,0.0,0.0,0.0,0.0,0.0,0.0,0.0,0.0,0.0,0.0,0.0,0.0,0.0,0.0,0.0,-2.0405,-2.0405,-2.0405,-2.0405,-2.0386,-2.0385,0.0,0.0,0.0,0.0,-2.0312,-2.0312,-2.0312,0.0,0.0,0.0,0.0,0.0,0.0,0.0,0.0,0.0,0.0,0.0,0.0,0.0,0.0,0.0,0.0,0.0,-2.8905,-2.8394,0.0,0.0,0.0,0.0,0.0,0.0,0.0,0.0,0.0,0.0,0.0,0.0,0.0,0.0,0.0,0.0,0.0,0.0,0.0,0.0,0.0,0.0,0.0,0.0,0.0,0.0,0.0,0.0,0.0,0.0,0.0,0.0,0.0,-3.0896,-3.0896,-3.1482,-2.9192,-2.7986,-2.7986,-2.6973,-2.6533,-2.6571,-2.7607,-2.8109,-2.816,-2.9302,-2.9792,-2.9792,-2.9792,-2.9792,-2.9792,-2.9792,-2.9792,-2.9792,-2.9792,-2.9792,-2.9817,0.0,0.0,0.0,0.0,0.0,0.0,0.0,0.0,0.0,0.0,0.0,0.0,0.0,0.0,0.0,0.0,0.0,0.0,0.0,0.0,0.0,0.0,0.0,0.0,0.0,-2.0366,-2.0392,-2.0392,-2.0392,-2.0392,-2.0392,-2.0335,-2.03,-2.0312,0.0,0.0,-2.0312,-2.0312,-2.0312,-2.0312,-2.0312,0.0,0.0,0.0,0.0,0.0,0.0,0.0,0.0,0.0,0.0,0.0,0.0,0.0,0.0,0.0,0.0,-2.8839,-2.812,-2.7926,0.0,0.0,0.0,0.0,0.0,0.0,0.0,0.0,0.0,0.0,0.0,0.0,0.0,0.0,0.0,0.0,0.0,0.0,0.0,0.0,0.0,0.0,0.0,0.0,0.0,0.0,0.0,0.0,0.0,0.0,0.0,0.0,0.0,-3.1409,-3.1482,-2.9766,-2.8939,-2.8876,-2.7297,-2.6533,-2.6571,-2.7607,-2.8109,-2.816,-2.9302,-2.9792,-2.9792,-2.9792,-2.9792,-2.9792,-2.9792,-2.9792,-2.9792,-2.9792,-2.9792,-2.9867,0.0,0.0,0.0,0.0,0.0,0.0,0.0,0.0,0.0,0.0,0.0,0.0,0.0,0.0,0.0,0.0,0.0,0.0,0.0,0.0,0.0,0.0,0.0,-1.9514,-1.9972,-2.0098,-2.0153,-2.0153,-2.028,-2.035,-2.035,-2.0312,0.0,0.0,0.0,0.0,0.0,-2.0312,-2.0233,-2.0115,-2.0115,-2.0365,0.0,0.0,0.0,0.0,0.0,0.0,0.0,0.0,0.0,0.0,0.0,0.0,0.0,0.0,0.0,-2.8515,-2.8037,-2.7725,0.0,0.0,0.0,0.0,0.0,0.0,0.0,0.0,0.0,0.0,0.0,0.0,0.0,0.0,0.0,0.0,0.0,0.0,0.0,0.0,0.0,0.0,0.0,0.0,0.0,0.0,0.0,0.0,0.0,0.0,0.0,0.0,0.0,-3.1482,-3.1482,-3.0389,-2.9827,-2.9766,-2.7537,-2.6533,-2.6571,-2.7607,-2.8109,-2.816,-2.9302,-2.9792,-2.9792,-2.9792,-2.9792,-2.9792,-2.9792,-2.9792,-2.9792,-2.9792,-2.9792,-2.988,0.0,0.0,0.0,0.0,0.0,0.0,0.0,0.0,0.0,0.0,0.0,0.0,0.0,0.0,0.0,0.0,0.0,0.0,0.0,0.0,0.0,0.0,0.0,-1.9645,-1.9645,-1.9847,-1.9963,-1.9993,-2.0197,-2.0312,-2.0312,0.0,0.0,0.0,0.0,0.0,0.0,0.0,-2.0097,-1.9962,-2.0209,-2.0589,0.0,0.0,0.0,0.0,0.0,0.0,0.0,0.0,0.0,0.0,0.0,0.0,0.0,0.0,0.0,0.0,-2.7851,-2.75,0.0,0.0,0.0,0.0,0.0,0.0,0.0,0.0,0.0,0.0,0.0,0.0,0.0,0.0,0.0,0.0,0.0,0.0,0.0,0.0,0.0,0.0,0.0,0.0,0.0,0.0,0.0,0.0,0.0,0.0,0.0,0.0,0.0,0.0,-3.1482,-3.045,-2.9889,-2.9889,-2.7604,-2.6658,-2.6888,-2.7738,-2.8109,-2.816,-2.9302,-2.9792,-2.9792,-2.9792,-2.9792,-2.9792,-2.9792,-2.9792,-2.9792,-2.9792,-2.9792,-2.9892,0.0,0.0,0.0,0.0,0.0,0.0,0.0,0.0,0.0,0.0,0.0,0.0,0.0,0.0,0.0,0.0,0.0,0.0,0.0,0.0,0.0,0.0,0.0,-1.9305,-1.9305,-1.9619,-1.9869,-1.9993,-2.0197,-2.0304,-2.0304,0.0,0.0,0.0,0.0,0.0,0.0,0.0,-1.9933,-1.9884,-2.0702,-2.101,-2.1173,0.0,0.0,0.0,0.0,0.0,0.0,0.0,0.0,0.0,0.0,0.0,0.0,0.0,0.0,-2.8219,-2.75,0.0,0.0,0.0,0.0,0.0,0.0,0.0,0.0,0.0,0.0,0.0,0.0,0.0,0.0,0.0,0.0,0.0,0.0,0.0,0.0,0.0,0.0,0.0,0.0,0.0,0.0,0.0,0.0,0.0,0.0,0.0,0.0,0.0,0.0,0.0,-3.1482,-2.9827,-2.9002,-2.9002,-2.7284,-2.6918,-2.7723,-2.801,-2.8109,-2.8172,-2.9302,-2.9792,-2.9792,-2.9792,-2.9792,-2.9792,-2.9792,-2.9792,-2.9792,-2.9792,-2.9792,-2.9942,0.0,0.0,0.0,0.0,0.0,0.0,0.0,0.0,0.0,0.0,0.0,0.0,0.0,0.0,0.0,0.0,0.0,0.0,0.0,0.0,0.0,0.0,0.0,0.0,0.0,0.0,-1.9851,-2.0205,-2.0124,-2.0078,0.0,0.0,0.0,-1.9858,0.0,0.0,0.0,0.0,-2.0621,-2.0578,-2.1386,-2.1987,-2.2453,0.0,0.0,0.0,0.0,0.0,0.0,0.0,0.0,0.0,0.0,0.0,0.0,0.0,-2.6596,-2.7572,-2.7348,0.0,0.0,0.0,0.0,0.0,0.0,0.0,0.0,0.0,0.0,0.0,0.0,0.0,0.0,0.0,0.0,0.0,0.0,0.0,0.0,0.0,0.0,0.0,0.0,0.0,0.0,0.0,0.0,0.0,0.0,0.0,0.0,0.0,0.0,0.0,-3.1482,-3.045,-2.9889,-2.9889,-2.8182,-2.7369,-2.7462,-2.7915,-2.8323,-2.8725,-2.9465,-2.9792,-2.9792,-2.9792,-2.9792,-2.9792,-2.9792,-2.9792,-2.9792,-2.9792,-2.9792,-2.9942,0.0,0.0,0.0,0.0,0.0,0.0,0.0,0.0,0.0,0.0,0.0,0.0,0.0,0.0,0.0,0.0,0.0,0.0,0.0,0.0,0.0,0.0,0.0,0.0,0.0,-1.9541,-1.9757,0.0,0.0,0.0,0.0,0.0,0.0,-1.9713,0.0,-1.9907,0.0,0.0,-2.0956,-2.1083,-2.2031,-2.2555,-2.2847,0.0,0.0,0.0,0.0,0.0,0.0,0.0,0.0,0.0,0.0,0.0,0.0,0.0,-2.6249,-2.7272,0.0,0.0,0.0,0.0,0.0,0.0,0.0,0.0,0.0,0.0,0.0,0.0,0.0,0.0,0.0,0.0,0.0,0.0,0.0,0.0,0.0,0.0,0.0,0.0,0.0,0.0,0.0,0.0,0.0,0.0,0.0,0.0,0.0,0.0,0.0,0.0,-3.1029,-3.0208,-2.9628,-2.9254,-2.7855,-2.7383,-2.762,-2.7959,-2.8411,-2.8963,-2.9541,-2.9792,-2.9792,-2.9792,-2.9792,-2.9792,-2.9792,-2.9792,-2.9792,-2.9792,-2.9792,-2.9942,0.0,0.0,0.0,0.0,0.0,0.0,0.0,0.0,0.0,0.0,0.0,0.0,0.0,0.0,0.0,0.0,0.0,0.0,0.0,0.0,0.0,0.0,0.0,0.0,0.0,0.0,0.0,0.0,0.0,0.0,0.0,0.0,-1.9688,-1.9569,0.0,-2.0094,0.0,-2.0825,-2.1106,-2.147,-2.2573,-2.2842,-2.2677,-2.3722,0.0,0.0,0.0,0.0,0.0,0.0,0.0,0.0,0.0,0.0,0.0,0.0,-2.6048,0.0,0.0,0.0,0.0,0.0,0.0,0.0,0.0,0.0,0.0,0.0,0.0,0.0,0.0,0.0,0.0,0.0,0.0,0.0,0.0,0.0,0.0,0.0,0.0,0.0,0.0,0.0,0.0,0.0,0.0,0.0,0.0,0.0,0.0,0.0,0.0,0.0,-3.0329,-2.9504,-2.862,0.0,-2.6973,-2.71,-2.8109,-2.8109,-2.8436,-2.9038,-2.9566,-2.9792,-2.9792,-2.9792,-2.9792,-2.9792,-2.9792,-2.9792,-2.9792,-2.9792,-2.9792,-2.9942,0.0,0.0,0.0,0.0,0.0,0.0,0.0,0.0,0.0,0.0,0.0,0.0,0.0,0.0,0.0,0.0,0.0,0.0,0.0,0.0,0.0,0.0,0.0,0.0,0.0,0.0,0.0,0.0,0.0,0.0,0.0,0.0,0.0,-1.9402,0.0,-2.0285,0.0,-2.1569,-2.2026,-2.1923,-2.2799,-2.3119,-2.3069,-2.332,-2.3414,0.0,0.0,0.0,0.0,0.0,0.0,0.0,0.0,-2.3688,-2.4684,-2.4611,0.0,0.0,0.0,0.0,0.0,0.0,0.0,0.0,0.0,0.0,0.0,0.0,0.0,0.0,0.0,0.0,0.0,0.0,0.0,0.0,0.0,0.0,0.0,0.0,0.0,0.0,0.0,0.0,0.0,0.0,0.0,0.0,0.0,0.0,0.0,0.0,0.0,-3.1087,-3.0329,-3.0133,-2.9254,0.0,-2.755,-2.7687,-2.8109,-2.8109,-2.8649,-2.9616,-2.9741,-2.9792,-2.9792,-2.9792,-2.9792,-2.9792,-2.9792,-2.9792,-2.9792,-2.9792,-2.9792,-2.9942,0.0,0.0,0.0,0.0,0.0,0.0,0.0,0.0,0.0,0.0,0.0,0.0,0.0,0.0,0.0,0.0,0.0,0.0,0.0,0.0,0.0,0.0,0.0,0.0,0.0,0.0,0.0,0.0,0.0,0.0,0.0,0.0,0.0,-1.9895,0.0,-2.0787,-2.1308,-2.2136,-2.2442,-2.2387,-2.2959,-2.3093,-2.2972,-2.3141,-2.3189,-2.3165,-2.3021,0.0,0.0,0.0,0.0,0.0,0.0,0.0,-2.4574,-2.4915,-2.5812,0.0,0.0,0.0,0.0,0.0,0.0,0.0,0.0,0.0,0.0,0.0,0.0,0.0,0.0,0.0,0.0,0.0,0.0,0.0,0.0,0.0,0.0,0.0,0.0,0.0,0.0,0.0,0.0,0.0,0.0,0.0,0.0,0.0,0.0,0.0,-3.1482,-3.0896,-2.969,-2.969,-2.8812,-2.7095,-2.7095,-2.7506,-2.8122,-2.8662,-2.9239,-2.9792,-2.9792,-2.9792,-2.9792,-2.9792,-2.9792,-2.9792,-2.9792,-2.9792,-2.9792,-2.9792,-2.9792,-2.9942,0.0,0.0,0.0,0.0,0.0,0.0,0.0,0.0,0.0,0.0,0.0,0.0,0.0,0.0,0.0,0.0,0.0,0.0,0.0,0.0,0.0,0.0,0.0,0.0,0.0,0.0,0.0,0.0,0.0,0.0,0.0,0.0,0.0,-2.0436,0.0,0.0,-2.2332,-2.2479,-2.2576,-2.266,-2.294,-2.289,-2.266,-2.294,-2.3038,-2.3014,-2.2738,-2.2634,-2.2599,-2.236,0.0,0.0,0.0,0.0,-2.4659,-2.5389,-2.6116,-2.6691,0.0,0.0,0.0,0.0,0.0,0.0,0.0,0.0,0.0,0.0,0.0,0.0,0.0,0.0,0.0,0.0,0.0,0.0,0.0,0.0,0.0,0.0,0.0,0.0,0.0,0.0,0.0,0.0,0.0,0.0,0.0,0.0,-3.1482,-3.1482,-3.1351,-3.0524,-2.9002,-2.9002,-2.8182,-2.6533,-2.6722,-2.7218,-2.8147,-2.9277,-2.9792,-2.9792,-2.9792,-2.9792,-2.9792,-2.9792,-2.9792,-2.9792,-2.9792,-2.9792,-2.9792,-2.9792,-2.9792,-2.9942,0.0,0.0,0.0,0.0,0.0,0.0,0.0,0.0,0.0,0.0,0.0,0.0,0.0,0.0,0.0,0.0,0.0,0.0,0.0,0.0,0.0,0.0,0.0,0.0,0.0,0.0,0.0,0.0,0.0,0.0,0.0,0.0,0.0,0.0,0.0,0.0,0.0,-2.2362,-2.2539,-2.2349,-2.2388,-2.2388,-2.2377,-2.2388,-2.2415,-2.2415,-2.2377,-2.2332,-2.2349,-2.231,-2.231,0.0,0.0,0.0,0.0,0.0,0.0,0.0,0.0,0.0,0.0,0.0,0.0,0.0,0.0,0.0,0.0,0.0,0.0,0.0,0.0,0.0,0.0,0.0,0.0,0.0,0.0,0.0,0.0,0.0,0.0,0.0,0.0,0.0,0.0,0.0,0.0,0.0,0.0,-3.1482,-3.1482,-3.1482,-3.0837,-3.0011,-2.9002,-2.9002,-2.8182,-2.6533,-2.7431,-2.7959,-2.8147,-2.9277,-2.9792,-2.9792,-2.9792,-2.9792,-2.9792,-2.9792,-2.9792,-2.9792,-2.9792,-2.9792,-2.9792,-2.9792,-2.9792,-2.9942,0.0,0.0,0.0,0.0,0.0,0.0,0.0,0.0,0.0,0.0,0.0,0.0,0.0,0.0,0.0,0.0,0.0,0.0,0.0,0.0,0.0,0.0,0.0,0.0,0.0,0.0,0.0,0.0,0.0,0.0,0.0,-2.1082,-2.1377,0.0,0.0,0.0,0.0,0.0,0.0,-2.231,-2.231,-2.2135,-2.1928,-2.2209,-2.2135,-2.1928,-2.2209,-2.231,-2.231,-2.231,-2.2581,-2.3054,0.0,0.0,0.0,0.0,0.0,0.0,0.0,0.0,0.0,0.0,0.0,0.0,0.0,0.0,0.0,0.0,0.0,0.0,0.0,0.0,0.0,0.0,0.0,0.0,0.0,0.0,0.0,0.0,0.0,0.0,0.0,0.0,0.0,0.0,0.0,0.0,-3.1482,-3.1087,-3.0837,-3.0837,-3.0011,0.0,-2.8298,-2.8233,-2.767,-2.6546,-2.7582,-2.8109,-2.8147,-2.9277,-2.9792,-2.9792,-2.9792,-2.9792,-2.9792,-2.9792,-2.9792,-2.9792,-2.9792,-2.9792,-2.9792,-2.9792,-2.9792,-2.9942,0.0,0.0,0.0,0.0,0.0,0.0,0.0,0.0,0.0,0.0,0.0,0.0,0.0,0.0,0.0,0.0,0.0,0.0,0.0,0.0,0.0,0.0,0.0,0.0,0.0,0.0,0.0,0.0,0.0,0.0,-2.1013,-2.154,-2.2071,0.0,-2.2293,0.0,0.0,0.0,0.0,0.0,0.0,-2.1899,-2.1628,-2.1886,-2.1735,-2.1524,-2.2056,-2.2228,-2.2262,-2.2564,-2.3013,-2.3614,-2.4495,0.0,0.0,0.0,0.0,0.0,0.0,0.0,0.0,0.0,0.0,0.0,0.0,0.0,0.0,0.0,0.0,0.0,0.0,0.0,0.0,0.0,0.0,0.0,0.0,0.0,0.0,0.0,0.0,0.0,0.0,0.0,0.0,0.0,0.0,0.0,-3.1482,-3.0524,-3.0072,-3.0269,-2.9254,-2.8363,-2.7736,-2.7484,-2.7095,-2.6546,-2.7582,-2.8109,-2.8147,-2.9277,-2.9792,-2.9792,-2.9792,-2.9792,-2.9792,-2.9792,-2.9792,-2.9792,-2.9792,-2.9792,-2.9792,-2.9792,-2.988,-3.0131,0.0,0.0,0.0,0.0,0.0,0.0,0.0,0.0,0.0,0.0,0.0,0.0,0.0,0.0,0.0,0.0,0.0,0.0,0.0,0.0,0.0,0.0,0.0,0.0,0.0,0.0,0.0,0.0,0.0,0.0,-2.1541,-2.1336,-2.1764,-2.2694,-2.2651,-2.2556,-2.2321,0.0,0.0,0.0,0.0,0.0,0.0,0.0,-2.1055,-2.1119,0.0,0.0,-2.2195,-2.3276,-2.3654,-2.3902,0.0,0.0,0.0,0.0,0.0,0.0,0.0,0.0,0.0,0.0,0.0,0.0,0.0,0.0,0.0,0.0,0.0,0.0,0.0,0.0,0.0,0.0,0.0,0.0,0.0,0.0,0.0,0.0,0.0,0.0,0.0,0.0,0.0,0.0,0.0,0.0,-3.1467,-2.995,-2.9442,-3.0269,-2.862,-2.7736,-2.767,-2.6905,-2.6521,-2.6546,-2.7582,-2.8109,-2.8147,-2.9277,-2.9792,-2.9792,-2.9792,-2.9792,-2.9792,-2.9792,-2.9792,-2.9792,-2.9792,-2.9792,-2.9792,-2.9792,-3.0118,-3.0658,0.0,0.0,0.0,0.0,0.0,0.0,0.0,0.0,0.0,0.0,0.0,0.0,0.0,0.0,0.0,0.0,0.0,0.0,0.0,0.0,0.0,0.0,0.0,0.0,0.0,0.0,0.0,0.0,0.0,-2.1223,-2.2061,-2.1942,-2.2095,-2.2436,-2.2436,-2.2388,-2.231,-2.231,0.0,0.0,0.0,0.0,0.0,0.0,0.0,0.0,0.0,0.0,0.0,-2.3128,0.0,0.0,0.0,0.0,0.0,0.0,0.0,0.0,0.0,0.0,0.0,0.0,0.0,0.0,0.0,0.0,0.0,0.0,0.0,0.0,0.0,0.0,0.0,0.0,0.0,0.0,0.0,0.0,0.0,0.0,0.0,0.0,0.0,0.0,0.0,0.0,0.0,0.0,-3.0689,-2.9129,-2.8298,-2.862,-2.755,-2.6905,-2.6905,-2.6658,-2.6533,-2.6546,-2.7582,-2.8109,-2.8147,-2.9277,-2.9792,-2.9792,-2.9792,-2.9792,-2.9792,-2.9792,-2.9792,-2.9792,-2.9792,-2.9792,-2.9792,-2.9792,-3.0143,-3.0696,0.0,0.0,0.0,0.0,0.0,0.0,0.0,0.0,0.0,0.0,0.0,0.0,0.0,0.0,0.0,0.0,0.0,0.0,0.0,0.0,0.0,0.0,0.0,0.0,0.0,0.0,0.0,0.0,0.0,0.0,0.0,0.0,-2.2135,-2.2282,-2.2135,0.0,0.0,0.0,0.0,-2.1598,0.0,0.0,-2.0733,0.0,0.0,0.0,0.0,0.0,0.0,0.0,0.0,0.0,0.0,0.0,0.0,0.0,0.0,0.0,0.0,0.0,0.0,0.0,0.0,0.0,0.0,0.0,0.0,0.0,0.0,0.0,0.0,0.0,0.0,0.0,0.0,0.0,0.0,0.0,0.0,0.0,0.0,0.0,0.0,0.0,0.0,0.0,0.0,0.0,-2.986,-2.8247,-2.7284,-2.7284,-2.6782,-2.6533,-2.6533,-2.6533,-2.6533,-2.6546,-2.7582,-2.8109,-2.8147,-2.9277,-2.9792,-2.9792,-2.9792,-2.9792,-2.9792,-2.9792,-2.9792,-2.9792,-2.9792,-2.9792,-2.9792,-2.9792,-3.0244,-3.0922,0.0,0.0,0.0,0.0,0.0,0.0,0.0,0.0,0.0,0.0,0.0,0.0,0.0,0.0,0.0,0.0,0.0,0.0,0.0,0.0,0.0,0.0,0.0,0.0,0.0,0.0,0.0,0.0,0.0,0.0,0.0,0.0,-2.1823,0.0,-2.1794,-2.1869,-2.2271,0.0,-2.1598,-2.1573,0.0,-2.1301,-2.1337,0.0,0.0,0.0,-2.2473,-2.2739,0.0,0.0,0.0,0.0,0.0,0.0,0.0,0.0,0.0,0.0,0.0,0.0,0.0,0.0,0.0,0.0,0.0,0.0,0.0,0.0,0.0,0.0,0.0,0.0,0.0,0.0,0.0,0.0,0.0,0.0,0.0,0.0,0.0,0.0,0.0,0.0,0.0,0.0,0.0,-2.8216,-2.8898,-2.7417,-2.6533,-2.6533,-2.6533,-2.6533,-2.6533,-2.6533,-2.6533,-2.6571,-2.7582,-2.8109,-2.816,-2.9289,-2.9792,-2.9792,-2.9792,-2.9792,-2.9792,-2.9792,-2.9792,-2.9792,-2.9792,-2.9792,-2.9792,-2.9792,-3.047,-3.1386,0.0,0.0,0.0,0.0,0.0,0.0,0.0,0.0,0.0,0.0,0.0,0.0,0.0,0.0,0.0,0.0,0.0,0.0,0.0,0.0,0.0,0.0,0.0,0.0,0.0,0.0,0.0,0.0,0.0,0.0,0.0,0.0,0.0,0.0,-2.1658,-2.1939,-2.2479,-2.1873,0.0,0.0,-2.1315,-2.1122,0.0,0.0,0.0,0.0,0.0,-2.334,0.0,0.0,-2.3837,-2.3837,0.0,0.0,0.0,0.0,0.0,0.0,-2.3879,0.0,0.0,0.0,0.0,0.0,0.0,0.0,0.0,0.0,0.0,0.0,0.0,0.0,0.0,0.0,0.0,0.0,0.0,0.0,0.0,0.0,0.0,0.0,0.0,0.0,0.0,0.0,-2.7152,-2.697,-2.7998,-2.7095,-2.6533,-2.6533,-2.6533,-2.6533,-2.6533,-2.6533,-2.6653,-2.7067,-2.777,-2.831,-2.8725,-2.9465,-2.9792,-2.9792,-2.9792,-2.9792,-2.9792,-2.9792,-2.9792,-2.9792,-2.9792,-2.9792,-2.9792,-2.9792,-3.047,-3.1386,0.0,0.0,0.0,0.0,0.0,0.0,0.0,0.0,0.0,0.0,0.0,0.0,0.0,0.0,0.0,0.0,0.0,0.0,0.0,0.0,0.0,0.0,0.0,0.0,0.0,0.0,0.0,0.0,0.0,0.0,0.0,0.0,0.0,0.0,0.0,0.0,0.0,0.0,0.0,0.0,-2.1538,0.0,0.0,-2.199,-2.2044,0.0,0.0,0.0,-2.2891,-2.3406,-2.3595,0.0,0.0,0.0,0.0,0.0,0.0,0.0,0.0,0.0,0.0,0.0,0.0,0.0,0.0,-2.3595,0.0,0.0,0.0,0.0,0.0,0.0,0.0,0.0,0.0,0.0,0.0,0.0,0.0,0.0,0.0,0.0,0.0,0.0,0.0,0.0,-2.6445,-2.6306,-2.7165,-2.6782,-2.6533,-2.6533,-2.6533,-2.6533,-2.6533,-2.6533,-2.6741,-2.7293,-2.7846,-2.8398,-2.895,-2.9528,-2.9792,-2.9792,-2.9792,-2.9792,-2.9792,-2.9792,-2.9792,-2.9792,-2.9792,-2.9792,-2.9792,-2.9792,-3.047,-3.1386,0.0,0.0,0.0,0.0,0.0,0.0,0.0,0.0,0.0,0.0,0.0,0.0,0.0,0.0,0.0,0.0,0.0,0.0,0.0,0.0,0.0,0.0,0.0,0.0,0.0,0.0,0.0,0.0,0.0,0.0,0.0,0.0,0.0,0.0,0.0,0.0,0.0,0.0,0.0,-2.2308,-2.1883,-2.1714,0.0,0.0,-2.1663,0.0,-2.2346,-2.2193,-2.1885,-2.3024,-2.3406,0.0,0.0,0.0,0.0,0.0,-2.3508,0.0,0.0,0.0,0.0,0.0,0.0,0.0,-2.3595,-2.3595,-2.3595,0.0,0.0,0.0,0.0,0.0,0.0,0.0,0.0,0.0,0.0,0.0,0.0,0.0,0.0,0.0,0.0,0.0,-2.6148,-2.5858,-2.587,-2.6065,-2.6471,-2.6533,-2.6533,-2.6533,-2.6533,-2.6533,-2.6533,-2.6533,-2.6766,-2.7381,-2.7871,-2.8436,-2.9038,-2.9566,-2.9792,-2.9792,-2.9792,-2.9792,-2.9792,-2.9792,-2.9792,-2.9792,-2.9792,-2.9792,-2.9792,-2.9792,-3.047,-3.1386,0.0,0.0,0.0,0.0,0.0,0.0,0.0,0.0,0.0,0.0,0.0,0.0,0.0,0.0,0.0,0.0,0.0,0.0,0.0,0.0,0.0,0.0,0.0,0.0,0.0,0.0,0.0,0.0,0.0,0.0,0.0,0.0,0.0,0.0,0.0,0.0,0.0,0.0,0.0,-2.2557,-2.1946,0.0,-2.1685,-2.1702,-2.139,-2.1077,-2.1663,-2.1805,-2.1744,0.0,-2.2072,-2.2072,0.0,0.0,0.0,0.0,0.0,0.0,0.0,0.0,0.0,0.0,0.0,0.0,-2.3595,-2.3595,-2.3595,0.0,0.0,0.0,0.0,0.0,0.0,0.0,0.0,0.0,0.0,0.0,0.0,0.0,0.0,0.0,0.0,0.0,-2.486,-2.5255,-2.5486,-2.5924,-2.6496,-2.6533,-2.6533,-2.6533,-2.6533,-2.6533,-2.6533,-2.6533,-2.6967,-2.7946,-2.8059,-2.8637,-2.9628,-2.9741,-2.9792,-2.9792,-2.9792,-2.9792,-2.9792,-2.9792,-2.9792,-2.9792,-2.9792,-2.9792,-2.9792,-2.9792,-3.047,-3.1386,0.0,0.0,0.0,0.0,0.0,0.0,0.0,0.0,0.0,0.0,0.0,0.0,0.0,0.0,0.0,0.0,0.0,0.0,0.0,0.0,0.0,0.0,0.0,0.0,0.0,0.0,0.0,0.0,0.0,0.0,0.0,0.0,0.0,0.0,0.0,0.0,0.0,0.0,-2.2966,-2.262,-2.196,0.0,-2.1197,-2.0904,-2.057,-2.0396,-2.1015,-2.1424,-2.1649,-2.1342,-2.1424,0.0,0.0,-2.1697,-2.1758,0.0,-2.2452,-2.2754,0.0,0.0,0.0,-2.3595,0.0,0.0,0.0,-2.3595,-2.3595,-2.3595,0.0,0.0,0.0,0.0,0.0,0.0,0.0,0.0,0.0,0.0,0.0,0.0,0.0,0.0,0.0,0.0,-2.4485,-2.4931,-2.5329,-2.585,-2.6496,-2.6533,-2.6533,-2.6533,-2.6533,-2.6533,-2.6533,-2.6533,-2.7017,-2.8109,-2.8109,-2.8699,-2.9792,-2.9792,-2.9792,-2.9792,-2.9792,-2.9792,-2.9792,-2.9792,-2.9792,-2.9792,-2.9792,-2.9792,-2.9792,-2.9792,-3.047,-3.1386,0.0,0.0,0.0,0.0,0.0,0.0,0.0,0.0,0.0,0.0,0.0,0.0,0.0,0.0,0.0,0.0,0.0,0.0,0.0,0.0,0.0,0.0,0.0,-2.1505,0.0,0.0,0.0,0.0,0.0,0.0,0.0,0.0,0.0,0.0,0.0,0.0,0.0,0.0,0.0,-2.2267,0.0,-2.1245,-2.0759,-2.0055,-1.9798,-1.985,-2.0396,-2.0917,-2.128,-2.0782,0.0,-2.1315,-2.1315,-2.1315,0.0,0.0,0.0,0.0,0.0,0.0,0.0,0.0,0.0,-2.3421,0.0,0.0,0.0,-2.3595,0.0,0.0,0.0,0.0,0.0,0.0,0.0,0.0,0.0,0.0,0.0,0.0,0.0,0.0,0.0,0.0,-2.4245,-2.4732,-2.5209,-2.5737,-2.6496,-2.6533,-2.6533,-2.6533,-2.6533,-2.6533,-2.6533,-2.6533,-2.7017,-2.8109,-2.8109,-2.8699,-2.9792,-2.9792,-2.9792,-2.9792,-2.9792,-2.9792,-2.9792,-2.9792,-2.9792,-2.9792,-2.9792,-2.9792,-2.9792,-2.9792,-3.047,-3.1386,0.0,0.0,0.0,0.0,0.0,0.0,0.0,0.0,0.0,0.0,0.0,0.0,0.0,0.0,0.0,0.0,0.0,0.0,-2.0779,0.0,0.0,0.0,0.0,0.0,-2.0821,0.0,0.0,0.0,0.0,0.0,0.0,0.0,0.0,0.0,-2.1729,0.0,0.0,0.0,-2.1582,0.0,-2.0944,-2.0845,0.0,-2.0055,-1.9798,-1.9798,-1.9901,-1.9952,-1.9991,0.0,-1.9952,-2.0042,0.0,-2.0042,0.0,0.0,0.0,0.0,0.0,0.0,0.0,0.0,-2.2377,0.0,0.0,0.0,-2.3595,-2.3595,0.0,0.0,0.0,0.0,0.0,0.0,0.0,0.0,0.0,0.0,0.0,0.0,0.0,0.0,0.0,0.0,0.0,-2.4732,-2.487,-2.536,-2.6471,-2.6533,-2.6533,-2.6533,-2.6533,-2.6533,-2.6533,-2.6533,-2.7017,-2.8109,-2.8109,-2.8699,-2.9792,-2.9792,-2.9792,-2.9792,-2.9792,-2.9792,-2.9792,-2.9792,-2.9792,-2.9792,-2.9792,-2.9792,-2.9792,-2.9792,-3.047,-3.1386,0.0,0.0,0.0,0.0,0.0,0.0,0.0,0.0,0.0,0.0,0.0,0.0,0.0,0.0,0.0,0.0,0.0,-2.1327,0.0,0.0,0.0,0.0,0.0,0.0,0.0,0.0,0.0,0.0,-2.2802,0.0,0.0,0.0,0.0,0.0,-2.2305,0.0,-2.1697,0.0,0.0,0.0,0.0,0.0,0.0,-1.9901,-1.9798,-1.9798,-1.9798,-1.9798,-1.9798,0.0,-1.9798,0.0,0.0,0.0,0.0,0.0,0.0,0.0,0.0,0.0,0.0,0.0,0.0,0.0,-2.21,0.0,-2.25,0.0,0.0,0.0,0.0,0.0,0.0,0.0,0.0,0.0,0.0,0.0,0.0,0.0,0.0,0.0,0.0,0.0,0.0,0.0,0.0,-2.5159,-2.5912,-2.6276,-2.6533,-2.6533,-2.6533,-2.6533,-2.6533,-2.6533,-2.7017,-2.8109,-2.8109,-2.8699,-2.9792,-2.9792,-2.9792,-2.9792,-2.9792,-2.9792,-2.9792,-2.9792,-2.9792,-2.9792,-2.9792,-2.9792,-2.9829,-3.0156,-3.0746,-3.1436,0.0,0.0,0.0,0.0,0.0,0.0,0.0,0.0,0.0,0.0,0.0,0.0,-2.335,-2.2523,0.0,0.0,-2.2086,-2.1852,0.0,0.0,-2.1649,0.0,0.0,0.0,0.0,0.0,0.0,0.0,0.0,0.0,0.0,0.0,0.0,0.0,0.0,-2.1927,-2.1424,0.0,0.0,-2.056,-2.056,-2.0245,-1.9798,-1.9798,-1.9798,-1.9798,-1.9798,-1.9798,-1.9798,-1.9798,-1.9798,0.0,-1.9798,0.0,0.0,0.0,0.0,0.0,-2.056,0.0,0.0,0.0,0.0,0.0,0.0,0.0,0.0,0.0,0.0,0.0,0.0,0.0,0.0,0.0,0.0,0.0,0.0,0.0,0.0,0.0,0.0,0.0,0.0,0.0,0.0,0.0,-2.4506,0.0,-2.5573,-2.6151,-2.6533,-2.6533,-2.6533,-2.6533,-2.6533,-2.6533,-2.7017,-2.8109,-2.8109,-2.8699,-2.9792,-2.9792,-2.9792,-2.9792,-2.9792,-2.9792,-2.9792,-2.9792,-2.9792,-2.9792,-2.9792,-2.9792,-2.9854,-3.0407,-3.0947,-3.1474,0.0,-2.3863,0.0,0.0,0.0,0.0,0.0,0.0,0.0,0.0,0.0,0.0,0.0,0.0,0.0,0.0,0.0,-2.0845,-2.0894,0.0,-2.0144,0.0,0.0,-2.0845,0.0,0.0,-2.1744,-2.1744,0.0,0.0,0.0,0.0,0.0,0.0,0.0,-2.0845,-2.0795,-2.0144,-1.985,-1.985,-1.985,-1.9798,-1.9798,0.0,-1.9798,-1.9798,-1.9798,0.0,0.0,-1.9798,-1.9798,0.0,0.0,0.0,0.0,0.0,0.0,0.0,0.0,0.0,0.0,-1.985,0.0,0.0,0.0,0.0,-2.1697,0.0,0.0,0.0,0.0,0.0,0.0,0.0,0.0,0.0,0.0,0.0,0.0,0.0,0.0,0.0,0.0,0.0,0.0,-2.3954,-2.4506,0.0,-2.5573,-2.6151,-2.6533,-2.6533,-2.6533,-2.6533,-2.6533,-2.6533,-2.7017,-2.8109,-2.8109,-2.8699,-2.9792,-2.9792,-2.9792,-2.9792,-2.9792,-2.9792,-2.9792,-2.9792,-2.9792,-2.9792,-2.9792,-2.9792,-2.9854,-3.0407,-3.0947,-3.1474,0.0,0.0,0.0,0.0,0.0,0.0,0.0,-2.4141,0.0,0.0,0.0,0.0,0.0,-2.2132,-2.1946,0.0,0.0,-2.0484,-2.1342,-2.037,0.0,0.0,0.0,-2.0979,0.0,0.0,-2.1697,-2.1697,0.0,0.0,0.0,0.0,0.0,0.0,0.0,-2.0795,0.0,0.0,0.0,0.0,0.0,-1.9798,-1.9798,0.0,0.0,-1.9798,-1.9798,-1.9798,0.0,-1.9798,-1.9798,-1.9798,-1.9798,-1.9798,-1.9798,-1.9798,-1.9798,0.0,0.0,0.0,-1.9798,-1.9798,0.0,0.0,0.0,0.0,0.0,0.0,0.0,0.0,0.0,0.0,0.0,0.0,0.0,0.0,0.0,0.0,0.0,0.0,0.0,0.0,0.0,0.0,0.0,-2.3414,-2.4293,-2.4895,0.0,-2.5963,-2.6533,-2.6533,-2.6533,-2.6533,-2.6533,-2.6533,-2.7017,-2.8109,-2.8109,-2.8699,-2.9792,-2.9792,-2.9792,-2.9792,-2.9792,-2.9792,-2.9792,-2.9792,-2.9792,-2.9792,-2.9792,-2.9792,-2.9905,-3.0796,-3.1235,-3.1524,-2.5028,0.0,0.0,0.0,0.0,0.0,0.0,0.0,0.0,0.0,-2.3054,0.0,-2.1791,0.0,-2.1615,0.0,-2.0633,-2.0383,-2.0988,-2.0283,0.0,-2.0988,-2.0633,0.0,0.0,0.0,-2.1037,-2.1037,0.0,-2.1037,0.0,0.0,0.0,0.0,0.0,0.0,0.0,0.0,-1.9798,0.0,0.0,-1.9798,0.0,0.0,-1.9798,-1.9798,0.0,-1.9798,-1.9798,-1.9798,-1.9798,-1.9798,-1.9798,-1.9798,-1.9798,-1.9798,-1.9798,-1.9798,-1.9798,-1.9798,0.0,-1.9798,-1.9798,0.0,-1.9798,0.0,0.0,0.0,0.0,0.0,0.0,0.0,0.0,0.0,0.0,0.0,0.0,0.0,0.0,0.0,0.0,0.0,0.0,0.0,-2.3078,-2.3078,-2.418,-2.482,0.0,0.0,-2.6533,-2.6533,-2.6533,-2.6533,-2.6533,-2.6533,-2.7017,-2.8109,-2.8109,-2.8699,-2.9792,-2.9792,-2.9792,-2.9792,-2.9792,-2.9792,-2.9792,-2.9792,-2.9792,-2.9792,-2.9792,-2.9792,-2.9917,-3.0997,-3.165,-3.2089,0.0,0.0,0.0,0.0,-2.4567,0.0,0.0,0.0,-2.2694,0.0,-2.21,-2.1697,-2.1602,-2.1663,-2.1424,-2.0795,-2.0746,0.0,-1.985,-1.9798,0.0,0.0,-1.9798,-1.9798,-1.9798,0.0,0.0,0.0,0.0,0.0,0.0,0.0,0.0,0.0,-2.0093,0.0,-2.0696,-2.0055,-1.9798,-1.9798,-1.9798,-1.9798,-1.9798,-1.9798,0.0,-1.9798,-1.9798,-1.9798,-1.9798,-1.9798,-1.9798,-1.9798,-1.9798,-1.9798,-1.9798,-1.9798,-1.9798,-1.9798,-1.9798,-1.9798,-1.9798,-1.9798,0.0,0.0,0.0,0.0,-1.9798,0.0,0.0,0.0,0.0,0.0,0.0,0.0,0.0,0.0,0.0,0.0,0.0,0.0,0.0,0.0,0.0,-2.3138,-2.3078,-2.3078,-2.4155,-2.4795,0.0,0.0,0.0,-2.6533,-2.6533,-2.6533,-2.6533,-2.6533,-2.7017,-2.8109,-2.8109,-2.8699,-2.9792,-2.9792,-2.9792,-2.9792,-2.9792,-2.9792,-2.9792,-2.9792,-2.9792,-2.9792,-2.9792,-2.9829,-2.9993,-3.1009,-3.2102,-3.3081,-2.5411,-2.4973,-2.4449,0.0,-2.4184,-2.4266,0.0,0.0,0.0,0.0,-2.1805,-2.1315,-2.037,-2.072,-2.0782,-2.0093,-2.0055,0.0,0.0,0.0,0.0,-1.9798,-1.9798,-1.9798,-1.9798,-1.9798,0.0,-1.9798,0.0,0.0,-1.9798,0.0,0.0,0.0,0.0,0.0,-2.0055,-1.985,-1.9798,-1.9798,-1.9798,-1.9798,0.0,0.0,-1.9798,-1.9798,-1.9798,-1.9798,-1.9798,-1.9798,-1.9798,-1.9798,-1.9798,-1.9798,-1.9798,-1.9798,-1.9798,-1.9798,-1.9798,-1.9798,-1.9798,-1.9798,-1.9798,-1.9798,0.0,0.0,0.0,0.0,0.0,0.0,0.0,0.0,0.0,0.0,0.0,0.0,0.0,0.0,0.0,0.0,0.0,0.0,-2.3839,-2.3424,-2.3078,-2.3078,-2.3803,-2.4393,0.0,0.0,0.0,-2.6508,-2.6533,-2.6533,-2.6533,-2.6533,-2.7017,-2.8109,-2.8109,-2.8699,-2.9792,-2.9792,-2.9792,-2.9792,-2.9792,-2.9792,-2.9792,-2.9792,-2.9792,-2.9792,-2.9792,-3.0281,-3.1009,-3.1286,-3.2102,-3.3081,-2.4855,0.0,0.0,-2.3638,0.0,0.0,-2.3231,0.0,0.0,-2.1805,-2.1472,0.0,-2.0295,-2.0295,-2.0194,-1.985,-1.9798,0.0,-1.9798,0.0,0.0,-1.9798,-1.9798,-1.9798,-1.9798,-1.9798,0.0,-1.9798,0.0,0.0,-1.9798,0.0,0.0,0.0,0.0,-1.9798,0.0,-1.9798,-1.9798,-1.9798,-1.9798,0.0,0.0,-1.9798,-1.9798,-1.9798,-1.9798,-1.9798,-1.9798,-1.9798,-1.9798,-1.9798,-1.9798,-1.9798,-1.9798,-1.9798,-1.9798,-1.9798,-1.9798,-1.9798,-1.9798,-1.9798,-1.9798,-1.9798,-1.9798,-1.9798,-1.9798,0.0,0.0,0.0,0.0,0.0,0.0,0.0,0.0,0.0,0.0,0.0,0.0,0.0,0.0,0.0,-2.3631,-2.3365,-2.3078,-2.3078,-2.3665,-2.4243,0.0,0.0,0.0,-2.6508,-2.6533,-2.6533,-2.6533,-2.6533,-2.7017,-2.8109,-2.8109,-2.8699,-2.9792,-2.9792,-2.9792,-2.9792,-2.9792,-2.9792,-2.9792,-2.9792,-2.9792,-2.9817,-3.0055,-3.0658,-3.1424,-3.1662,-3.1953,-3.2239,0.0,0.0,0.0,0.0,0.0,0.0,0.0,-2.2498,0.0,-2.1758,0.0,-2.0646,-2.0646,-2.0156,-1.9798,-1.9798,0.0,-1.9798,-1.9798,-1.9798,-1.9798,-1.9798,-1.9798,-1.9798,-1.9798,-1.9798,0.0,0.0,0.0,0.0,0.0,0.0,0.0,0.0,0.0,0.0,0.0,-1.9798,-1.9798,0.0,-1.9798,-1.9798,-1.9798,-1.9798,-1.9798,-1.9798,-1.9798,-1.9798,-1.9798,-1.9798,-1.9798,-1.9798,-1.9798,-1.9798,-1.9798,-1.9683,-1.9643,-1.9643,-1.9643,-1.9643,-1.9695,-1.9798,-1.9798,-1.9798,-1.9798,-1.9798,-1.9798,-1.9798,-1.9798,0.0,0.0,0.0,0.0,0.0,0.0,0.0,0.0,0.0,0.0,0.0,0.0,0.0,0.0,-2.3078,-2.3078,-2.3078,-2.3602,-2.4155,0.0,0.0,0.0,0.0,-2.6533,0.0,-2.6533,0.0,-2.7017,-2.8109,-2.8109,-2.8699,-2.9792,-2.9792,-2.9792,-2.9792,-2.9792,-2.9792,-2.9792,-2.9792,-2.9702,-2.9596,-3.0047,-3.0567,-3.1026,-3.1826,-3.1452,-3.0765,0.0,0.0,0.0,0.0,0.0,-2.2498,-2.1946,-2.1452,-2.1272,-2.1663,-2.0706,-2.0003,-2.0003,-1.985,-1.9798,-1.9798,-1.9798,0.0,0.0,0.0,0.0,-1.9798,-1.9798,-1.9798,-1.9798,-1.9798,-1.9798,0.0,-1.9798,-1.9798,0.0,0.0,0.0,0.0,0.0,0.0,-1.9798,-1.9798,0.0,-1.9798,-1.9798,-1.9798,-1.9798,-1.9798,-1.9798,-1.9798,-1.9798,-1.9798,-1.9798,-1.9798,-1.9798,-1.9798,-1.9798,-1.9798,-1.9695,-1.9097,-1.8874,-1.8874,-1.8874,-1.8874,-1.9044,-1.9643,-1.9798,-1.9798,-1.9798,-1.9798,-1.9798,-1.9798,-1.9798,-1.9798,-1.9798,0.0,0.0,0.0,0.0,0.0,0.0,0.0,0.0,0.0,0.0,0.0,0.0,0.0,0.0,0.0,0.0,0.0,0.0,0.0,0.0,0.0,0.0,0.0,0.0,0.0,0.0,-2.8109,-2.8109,-2.8699,-2.9792,-2.9792,-2.9792,-2.9792,-2.9792,-2.9792,-2.9792,-2.9792,-2.9275,-2.8363,-2.8391,-2.8454,-2.8735,-3.0636,-3.0055,-2.8495,0.0,0.0,0.0,0.0,0.0,0.0,0.0,-2.0904,0.0,-2.1161,-2.0683,-2.0295,-2.0295,-2.0003,-1.9798,-1.9798,-1.9798,-1.9798,-1.9798,-1.9798,-1.9798,-1.9798,-1.9798,0.0,-1.9798,-1.9798,-1.9798,-1.9798,-1.9798,-1.9798,0.0,0.0,0.0,0.0,0.0,-1.9798,0.0,0.0,0.0,-1.9798,-1.9798,-1.9798,-1.9798,-1.9798,-1.9798,-1.9798,-1.9798,-1.9798,-1.9798,-1.9798,-1.9798,-1.9798,-1.9798,-1.9527,-1.915,-1.8821,-1.8447,-1.8112,-1.8112,-1.8112,-1.8286,-1.9044,-1.9254,-1.9307,-1.9695,-1.9475,-1.9254,-1.9254,-1.8939,-1.8851,-1.958,-2.025,0.0,0.0,0.0,0.0,0.0,0.0,0.0,0.0,0.0,0.0,0.0,0.0,0.0,0.0,0.0,0.0,0.0,0.0,0.0,0.0,0.0,0.0,0.0,0.0,0.0,-2.8109,-2.8109,-2.8699,-2.9792,-2.9792,-2.9792,-2.9792,-2.9792,-2.9792,-2.9792,-2.9184,-2.8597,-2.8111,-2.7963,-2.7928,-2.8128,-2.9667,-2.9131,-2.7861,0.0,-2.3421,0.0,0.0,-2.196,0.0,-2.152,-2.0521,-2.0055,-2.0696,-2.0696,-2.0597,-2.0597,-2.0105,-1.9798,-1.9798,-1.9798,-1.9798,-1.9798,-1.9798,-1.9798,-1.9798,-1.9798,-1.9798,-1.9798,-1.9798,-1.9798,0.0,-1.9798,-1.9798,0.0,0.0,0.0,0.0,0.0,0.0,0.0,0.0,-1.9798,-1.9798,-1.9798,-1.9798,-1.9798,-1.9798,-1.9798,-1.9798,-1.9798,-1.9798,-1.9798,-1.9631,-1.9579,-1.9579,-1.9579,-1.9044,-1.8447,-1.8447,-1.795,-1.7357,-1.7357,-1.7357,-1.7523,-1.8274,-1.8608,-1.8821,-1.9254,-1.898,-1.8661,-1.8501,-1.8096,-1.8103,-1.9247,-2.0009,0.0,0.0,0.0,0.0,0.0,0.0,0.0,0.0,0.0,0.0,0.0,0.0,0.0,0.0,0.0,-2.3766,-2.477,-2.4921,0.0,0.0,0.0,-2.6533,-2.6533,0.0,-2.7017,0.0,-2.8109,-2.8699,-2.9792,-2.9792,-2.9792,-2.9792,-2.9792,-2.9792,-2.9702,-2.8359,-2.7775,-2.7708,-2.7278,-2.714,-2.7348,-2.8583,-2.8226,-2.74,0.0,0.0,0.0,0.0,0.0,0.0,0.0,-2.0245,-2.0055,-2.0696,-2.0258,-1.9901,-1.9901,-1.985,-1.9798,-1.9798,-1.9798,-1.9798,-1.9798,-1.9798,-1.9798,-1.9798,-1.9798,-1.9798,-1.9798,-1.9798,-1.9798,0.0,0.0,-1.9798,0.0,0.0,0.0,0.0,0.0,0.0,0.0,-1.9798,-1.9798,-1.9798,-1.9798,-1.9798,-1.9798,-1.9798,-1.9798,-1.9798,-1.9798,-1.9798,-1.9695,-1.9044,-1.8821,-1.8821,-1.8821,-1.8286,-1.7688,-1.7688,-1.7191,-1.6595,-1.6595,-1.6595,-1.6765,-1.7523,-1.8232,-1.8543,-1.795,-1.8274,-1.8501,-1.7841,-1.7991,-1.8393,-1.8885,-1.9452,-1.9828,0.0,0.0,0.0,0.0,0.0,0.0,0.0,0.0,0.0,0.0,0.0,0.0,0.0,0.0,-2.418,-2.4795,-2.5272,-2.5812,-2.6508,0.0,-2.6533,-2.6533,-2.6533,0.0,-2.8109,-2.8109,-2.8699,-2.9792,-2.9792,-2.9792,-2.9792,-2.9792,-2.9792,-2.9624,-2.7545,-2.6637,-2.649,-2.5214,-2.4772,-2.4963,-2.7056,-2.6945,-2.611,0.0,0.0,0.0,0.0,0.0,0.0,0.0,-1.9952,-1.9901,-2.0144,-1.9952,-1.9798,-1.9798,-1.9798,-1.9798,-1.9798,-1.9798,-1.9798,-1.9798,-1.9798,-1.9798,-1.9798,-1.9798,-1.9798,-1.9798,-1.9798,-1.9798,0.0,0.0,-1.9798,-1.9798,0.0,0.0,0.0,0.0,-1.9371,-1.9798,-1.9798,-1.9798,-1.9798,-1.9798,-1.9798,-1.9798,-1.9798,-1.9798,-1.9798,-1.9798,-1.9527,-1.9044,-1.8286,-1.834,-1.8715,-1.8715,-1.7907,-1.7034,-1.7468,-1.6743,-1.5864,-1.5864,-1.5864,-1.6036,-1.6754,-1.7146,-1.7413,-1.7578,-1.7468,-1.739,-1.7345,-1.7728,-1.813,-1.8601,-1.9273,-1.9879,0.0,0.0,0.0,0.0,0.0,0.0,0.0,0.0,0.0,0.0,0.0,0.0,0.0,0.0,0.0,-2.477,-2.5021,-2.5536,-2.6496,0.0,-2.6533,-2.6533,-2.6533,-2.7017,-2.8109,-2.8109,-2.8699,-2.9792,-2.9792,-2.9443,-2.8767,-2.8767,-2.8767,-2.8609,-2.6367,-2.588,-2.6324,-2.4956,-2.4414,-2.4614,-2.5964,-2.611,-2.5732,-2.1472,0.0,-2.1245,0.0,-2.0497,-2.0359,-1.985,-1.9798,-1.9798,-1.9798,-1.9798,-1.9798,-1.9798,-1.9798,-1.9798,-1.9798,-1.9798,-1.9798,-1.9798,-1.9798,-1.9798,-1.9798,-1.9798,0.0,-1.9798,-1.9798,-1.9798,-1.9798,-1.9798,0.0,-1.9475,0.0,0.0,0.0,-1.8608,-1.8992,-1.9475,-1.9695,-1.9798,-1.9798,-1.9798,-1.9798,-1.9798,-1.9798,-1.9798,-1.9798,-1.9798,-1.9307,-1.8608,-1.7852,-1.7786,-1.8058,-1.8058,-1.7191,-1.6312,-1.709,-1.6358,-1.541,-1.541,-1.541,-1.5526,-1.6036,-1.6322,-1.6595,-1.6856,-1.6804,-1.6811,-1.7174,-1.7482,-1.784,-1.8346,-1.888,-1.9361,-1.976,0.0,0.0,0.0,0.0,0.0,0.0,-2.0462,-2.1037,-2.2249,0.0,0.0,0.0,0.0,0.0,-2.4705,-2.5134,0.0,0.0,0.0,0.0,0.0,-2.6533,-2.7017,-2.8109,-2.8109,-2.8699,-2.9792,-2.9792,-2.9197,-2.8096,-2.8096,-2.7924,-2.7522,-2.5619,-2.538,-2.6018,-2.4826,-2.4492,-2.4697,-2.5459,-2.5742,-2.5742,-2.0944,-2.0795,-2.0597,-1.9952,-1.9798,-1.9798,-1.9798,-1.9798,-1.9798,-1.9798,-1.9798,-1.9798,-1.9798,-1.9798,-1.9798,-1.9798,-1.9798,-1.9798,-1.9798,-1.9798,-1.9798,0.0,0.0,-1.9798,-1.9798,-1.9798,-1.9798,-1.9798,0.0,0.0,-1.8715,0.0,-1.7633,-1.7633,-1.8394,-1.8715,-1.8768,-1.9475,-1.9798,-1.9798,-1.9798,-1.9798,-1.9798,-1.9798,-1.9798,-1.9798,-1.9798,-1.9307,-1.8608,-1.7852,-1.7146,-1.6549,-1.6549,-1.6036,-1.5584,-1.6322,-1.5979,-1.541,-1.541,-1.541,-1.541,-1.541,-1.5979,-1.6322,-1.5584,-1.6323,-1.7203,-1.7372,-1.7373,-1.75,-1.792,-1.7998,-1.7998,-1.8008,0.0,0.0,0.0,0.0,0.0,0.0,-2.0074,-2.059,-2.0655,0.0,0.0,0.0,0.0,0.0,0.0,0.0,0.0,-2.6533,-2.6533,0.0,-2.6533,-2.6533,-2.7017,-2.8109,-2.8109,-2.8699,-2.9792,-2.9792,-2.9197,-2.8096,-2.8096,-2.7522,-2.6389,-2.5294,-2.506,-2.5367,-2.4695,-2.4678,-2.5117,-2.5566,-2.5742,-2.5742,-2.0144,-2.0105,-2.0055,-1.985,-1.9798,-1.9798,-1.9798,-1.9798,-1.9798,-1.9798,-1.9798,-1.9798,-1.9798,-1.9798,-1.9798,0.0,-1.9798,-1.9798,0.0,-1.9798,-1.9798,-1.9798,-1.9798,-1.9798,-1.9798,-1.9798,-1.9798,-1.9798,0.0,0.0,0.0,-1.6978,-1.6877,-1.6866,-1.7633,-1.8221,-1.8768,-1.9475,-1.9798,-1.9747,-1.9254,-1.9371,-1.9747,-1.9254,-1.9371,-1.9747,-1.9254,-1.8555,-1.7852,-1.709,-1.6368,-1.5748,-1.5748,-1.5584,-1.5526,-1.6265,-1.5979,-1.541,-1.541,-1.541,-1.541,-1.541,-1.5584,-1.577,-1.5851,-1.6612,-1.7362,-1.739,-1.7607,-1.7852,-1.7988,-1.8008,-1.8008,-1.8008,-1.8008,0.0,0.0,0.0,0.0,0.0,-1.9044,-1.9299,0.0,-2.0074,0.0,0.0,0.0,0.0,0.0,0.0,0.0,0.0,-2.6533,0.0,-2.6533,-2.6533,-2.7017,-2.8109,-2.8109,-2.8699,-2.9792,-2.9792,-2.8791,-2.7046,-2.7046,-2.6378,-2.521,-2.4135,-2.4323,-2.529,-2.4685,-2.4687,-2.5127,-2.5566,-2.5742,-2.5742,-1.9798,-1.9798,-1.9798,-1.9798,-1.9798,-1.9798,-1.9798,-1.9798,-1.9798,-1.9798,-1.9798,-1.9798,-1.9798,-1.9798,0.0,-1.9798,-1.9798,-1.9798,-1.9798,-1.9798,-1.9798,-1.9798,-1.9527,-1.9527,-1.9798,0.0,0.0,-1.9798,-1.8768,-1.7688,-1.6482,-1.6208,-1.6093,-1.6151,-1.6866,-1.7578,-1.834,-1.9097,-1.9527,-1.9747,-1.898,-1.8992,-1.9319,-1.8874,-1.8821,-1.8939,-1.8768,-1.8058,-1.7146,-1.6652,-1.6036,-1.541,-1.541,-1.541,-1.5468,-1.5921,-1.5748,-1.541,-1.541,-1.541,-1.541,-1.541,-1.5537,-1.582,-1.6426,-1.6992,-1.7432,-1.7588,-1.7832,-1.8008,-1.8008,-1.8008,-1.8008,-1.8008,-1.8008,-1.8008,-1.8008,0.0,0.0,0.0,0.0,0.0,0.0,-1.9266,0.0,0.0,0.0,0.0,0.0,0.0,0.0,-2.6521,-2.6094,0.0,-2.6533,-2.6094,-2.6639,-2.8109,-2.8126,-2.8289,-2.8542,-2.8542,-2.7545,-2.588,-2.588,-2.5221,-2.4135,-2.3387,-2.383,-2.5005,-2.4572,-2.4785,-2.5352,-2.5635,-2.5742,-2.5742,-1.9798,-1.9798,0.0,0.0,-1.9798,0.0,-1.9798,-1.9798,-1.9798,-1.9798,-1.9798,-1.9798,-1.9798,-1.9798,-1.9798,-1.9798,0.0,0.0,0.0,-1.9798,-1.9798,-1.9798,-1.915,-1.9097,-1.9695,-1.9097,-1.9044,-1.9643,-1.8232,-1.7146,-1.6436,-1.57,-1.541,-1.541,-1.6151,-1.6866,-1.7578,-1.8394,-1.9097,-1.9643,-1.8927,-1.8661,-1.8715,-1.8608,-1.8167,-1.7688,-1.834,-1.7688,-1.6482,-1.6436,-1.5979,-1.541,-1.541,-1.541,-1.541,-1.541,-1.541,-1.541,-1.541,-1.541,-1.542,-1.5449,-1.5811,-1.6367,-1.7197,-1.7402,-1.7539,-1.793,-1.8008,-1.8008,-1.8008,-1.8008,-1.8008,-1.8008,-1.8008,-1.8008,-1.8008,0.0,0.0,0.0,0.0,0.0,0.0,-1.8408,-1.9173,0.0,0.0,0.0,0.0,0.0,-2.6314,-2.6314,-2.537,-2.537,-2.6383,-2.5407,-2.5961,-2.7939,-2.7945,-2.7452,-2.6483,-2.6483,-2.588,-2.4787,-2.4787,-2.4125,-2.3135,-2.3135,-2.3643,-2.4414,-2.4414,-2.4951,-2.5742,-2.5742,-2.5742,-2.5742,0.0,0.0,-1.9798,-1.9798,-1.9798,-1.9798,-1.9798,-1.9798,-1.9798,-1.9798,-1.9798,-1.9798,-1.9798,-1.9798,-1.9798,-1.9798,-1.9798,-1.9798,-1.9798,-1.9798,-1.9798,-1.9798,-1.9631,-1.9371,-1.898,-1.9359,-1.9097,-1.8112,-1.7202,-1.6368,-1.5642,-1.5468,-1.541,-1.541,-1.6151,-1.6595,-1.6877,-1.8167,-1.8821,-1.8886,-1.8167,-1.8178,-1.8555,-1.7468,-1.7246,-1.7523,-1.7146,-1.681,-1.6425,-1.5864,-1.5526,-1.541,-1.541,-1.541,-1.541,-1.541,-1.541,-1.541,-1.541,-1.541,-1.5498,-1.582,-1.6494,-1.7129,-1.7334,-1.7637,-1.7891,-1.7988,-1.8008,-1.8008,-1.8008,-1.8008,-1.8008,-1.8008,-1.8008,-1.8008,-1.8008,-1.8008,0.0,0.0,-1.8008,-1.8135,-1.8457,-1.8504,-1.9017,0.0,0.0,0.0,0.0,0.0,-2.4181,-2.4181,-2.3963,-2.4337,-2.537,-2.473,-2.496,-2.6186,-2.6668,-2.6719,-2.6483,-2.6483,-2.588,-2.4787,-2.4787,-2.4125,-2.3135,-2.3135,-2.3643,-2.4414,-2.4414,-2.4951,-2.5742,-2.5742,-2.5742,-2.5742,-1.9798,-1.9798,-1.9798,-1.9798,-1.9798,-1.9798,-1.9798,-1.9798,-1.9798,-1.9798,-1.9798,-1.9798,-1.9798,-1.9798,-1.9798,-1.9798,-1.9798,-1.9798,-1.9798,-1.9798,-1.9798,-1.9798,-1.915,-1.8768,-1.8715,-1.8447,-1.7895,-1.709,-1.6708,-1.6151,-1.541,-1.541,-1.541,-1.541,-1.5806,-1.6208,-1.6539,-1.7357,-1.7907,-1.8112,-1.7413,-1.7357,-1.7633,-1.681,-1.6539,-1.6585,-1.6539,-1.6265,-1.5921,-1.5517,-1.541,-1.541,-1.541,-1.541,-1.541,-1.541,-1.541,-1.541,-1.541,-1.5557,-1.5869,-1.6504,-1.7031,-1.7432,-1.7627,-1.7842,-1.8008,-1.8008,-1.8008,-1.8008,-1.8008,-1.8008,-1.8008,-1.8008,-1.8008,-1.8008,-1.8008,-1.8008,0.0,-1.8008,-1.8008,-1.8174,-1.8523,-1.8818,-1.9199,-1.9863,0.0,0.0,-2.1364,-2.1897,-2.2563,-2.3441,-2.3073,-2.3294,-2.4337,-2.4469,-2.467,-2.4854,-2.5413,-2.5473,-2.4978,-2.4978,-2.4638,-2.4049,-2.4049,-2.3637,-2.3135,-2.3135,-2.3643,-2.4414,-2.4414,-2.4951,-2.5742,-2.5742,-2.5742,-2.5742,-1.9798,-1.9798,-1.9798,-1.9798,-1.9798,-1.9798,-1.9798,-1.9798,-1.9798,-1.9798,-1.9798,-1.9798,-1.9798,-1.9798,-1.9798,-1.9798,-1.9798,-1.9798,-1.9798,-1.9798,-1.9798,-1.9798,-1.8501,-1.8004,-1.8501,-1.7079,-1.6379,-1.6492,-1.6379,-1.6036,-1.541,-1.541,-1.541,-1.541,-1.541,-1.5748,-1.6322,-1.6436,-1.6866,-1.7357,-1.6765,-1.6492,-1.6492,-1.6379,-1.5921,-1.5468,-1.6093,-1.5921,-1.541,-1.541,-1.541,-1.541,-1.541,-1.541,-1.541,-1.541,-1.541,-1.541,-1.541,-1.5781,-1.6357,-1.7178,-1.7432,-1.7568,-1.793,-1.8008,-1.8008,-1.8008,-1.8008,-1.8008,-1.8008,-1.8008,-1.8008,-1.8008,-1.8008,-1.8008,-1.8008,0.0,-1.8008,-1.8008,-1.8066,-1.8271,-1.8691,-1.9121,-1.9561,-1.998,-2.0352,0.0,0.0,-2.0566,-2.1385,-2.2999,-2.2253,-2.2252,-2.3218,-2.4271,-2.4411,-2.3835,-2.4376,-2.4049,-2.3135,-2.3135,-2.3135,-2.3135,-2.3135,-2.3135,-2.3135,-2.3135,-2.3643,-2.4414,-2.4414,-2.4951,-2.5742,-2.5742,-2.5742,-2.5742,-1.9798,-1.9798,-1.9798,-1.9798,-1.9798,-1.9798,-1.9798,-1.9798,-1.9798,-1.9798,-1.9798,-1.9798,-1.9798,-1.9798,-1.9798,-1.9798,-1.9798,-1.9798,-1.9798,-1.9798,-1.9798,-1.9798,-1.898,-1.8286,-1.7797,-1.6358,-1.5864,-1.6492,-1.5864,-1.5526,-1.541,-1.541,-1.541,-1.541,-1.541,-1.5468,-1.5584,-1.6265,-1.6539,-1.6652,-1.6549,-1.6492,-1.6425,-1.5806,-1.5526,-1.541,-1.5526,-1.5526,-1.541,-1.541,-1.541,-1.541,-1.541,-1.541,-1.541,-1.541,-1.541,-1.541,-1.541,-1.6006,-1.6748,-1.7256,-1.7656,-1.793,-1.7998,-1.8008,-1.8008,-1.8008,-1.8008,-1.8008,-1.8008,-1.8008,-1.8008,-1.8008,-1.8008,-1.8008,-1.8008,0.0,-1.8008,-1.8008,-1.832,-1.8711,-1.915,-1.957,-2.0,-2.043,-2.0527,-2.0566,-2.0566,-2.0566,-2.0712,-2.1011,-2.0934,-2.1223,-2.2139,-2.3119,-2.3443,-2.3211,-2.3357,-2.3299,-2.3135,-2.3135,-2.3135,-2.3135,-2.3135,-2.3135,-2.3135,-2.3135,-2.3643,-2.4414,-2.4414,-2.4951,-2.5742,-2.5742,-2.5742,-2.5742,-1.9798,-1.9798,-1.9798,-1.9798,-1.9798,-1.9798,-1.9798,-1.9798,-1.9798,-1.9798,-1.9798,-1.9798,-1.9798,-1.9798,-1.9798,-1.9798,-1.9798,-1.9798,-1.9798,-1.9798,-1.9798,-1.9798,-1.8715,-1.7567,-1.6472,-1.5748,-1.5584,-1.5921,-1.5584,-1.541,-1.541,-1.541,-1.541,-1.541,-1.541,-1.541,-1.541,-1.5748,-1.5921,-1.5921,-1.5921,-1.5921,-1.5864,-1.5526,-1.541,-1.541,-1.541,-1.541,-1.541,-1.541,-1.541,-1.541,-1.541,-1.541,-1.541,-1.541,-1.5576,-1.5811,-1.6055,-1.6592,-1.7187,-1.7617,-1.7871,-1.8008,-1.8008,-1.8008,-1.8008,-1.8008,-1.8008,-1.8008,-1.8008,-1.8008,-1.8008,-1.8008,-1.8008,0.0,0.0,-1.8008,-1.8008,-1.8008,-1.8379,-1.8809,-1.9248,-1.9668,-2.0098,-2.0527,-2.0566,-2.0566,-2.0566,-2.0566,-2.0566,-2.0566,-2.0566,-2.0986,-2.1875,-2.2339,-2.2768,-2.3135,-2.3135,-2.3135,-2.3135,-2.3135,-2.3135,-2.3135,-2.3135,-2.3135,-2.3154,-2.3389,-2.3857,-2.4443,-2.4678,-2.5166,-2.5742,-2.5742,-2.5742,-2.5742,-1.9798,-1.9798,-1.9798,-1.9798,-1.9798,-1.9798,-1.9798,-1.9798,-1.9798,-1.9798,-1.9798,-1.9798,-1.9798,-1.9798,-1.9798,-1.9798,-1.9798,-1.9798,-1.9798,-1.9798,-1.9695,-1.9527,-1.8112,-1.68,-1.569,-1.5468,-1.541,-1.541,-1.541,-1.541,-1.541,-1.541,-1.541,-1.541,-1.541,-1.541,-1.541,-1.541,-1.541,-1.541,-1.541,-1.541,-1.541,-1.541,-1.541,-1.541,-1.541,-1.541,-1.541,-1.541,-1.541,-1.541,-1.541,-1.541,-1.543,-1.5537,-1.5947,-1.6445,-1.6787,-1.7129,-1.749,-1.791,-1.8008,-1.8008,-1.8008,-1.8008,-1.8008,-1.8008,-1.8008,-1.8008,-1.8008,-1.8008,-1.8008,-1.8008,0.0,0.0,0.0,-1.8008,-1.8047,-1.8144,-1.8535,-1.8955,-1.9394,-1.9814,-2.0205,-2.0537,-2.0566,-2.0566,-2.0566,-2.0566,-2.0566,-2.0566,-2.0664,-2.1094,-2.1875,-2.1982,-2.2402,-2.3135,-2.3135,-2.3135,-2.3135,-2.3135,-2.3135,-2.3135,-2.3135,-2.3135,-2.3174,-2.3613,-2.4033,-2.4463,-2.4893,-2.5342,-2.5742,-2.5742,-2.5742,-2.5742,-1.9798,-1.9798,-1.9798,-1.9798,-1.9798,-1.9798,-1.9798,-1.9798,-1.9798,-1.9798,-1.9798,-1.9798,-1.9798,-1.9798,-1.9798,-1.9798,-1.9798,-1.9798,-1.9798,-1.9798,-1.9475,-1.8821,-1.7357,-1.6549,-1.6436,-1.5748,-1.541,-1.541,-1.541,-1.541,-1.541,-1.541,-1.541,-1.541,-1.541,-1.541,-1.541,-1.541,-1.541,-1.541,-1.541,-1.541,-1.541,-1.541,-1.541,-1.541,-1.541,-1.541,-1.541,-1.541,-1.541,-1.541,-1.541,-1.541,-1.5488,-1.5898,-1.6621,-1.7295,-1.7324,-1.7363,-1.749,-1.791,-1.8008,-1.8008,-1.8008,-1.8008,-1.8008,-1.8008,-1.8008,-1.8008,-1.8008,-1.8008,-1.8008,-1.8008,0.0,0.0,-1.8008,-1.8008,-1.8154,-1.8545,-1.8975,-1.9404,-1.9824,-2.0264,-2.0527,-2.0566,-2.0566,-2.0566,-2.0566,-2.0566,-2.0566,-2.0566,-2.0967,-2.1406,-2.1885,-2.2275,-2.2695,-2.3135,-2.3135,-2.3135,-2.3135,-2.3135,-2.3135,-2.3135,-2.3135,-2.3135,-2.3174,-2.3613,-2.4033,-2.4463,-2.4893,-2.5342,-2.5742,-2.5742,-2.5742,-2.5742,-1.9798,-1.9798,-1.9798,-1.9798,-1.9798,-1.9798,-1.9798,-1.9798,-1.9798,-1.9798,-1.9798,-1.9798,-1.9798,-1.9798,-1.9798,-1.9798,-1.9798,-1.9798,-1.9798,-1.9798,-1.9475,-1.8715,-1.7743,-1.6978,-1.6482,-1.5748,-1.541,-1.541,-1.541,-1.541,-1.541,-1.541,-1.541,-1.541,-1.541,-1.541,-1.541,-1.541,-1.541,-1.541,-1.541,-1.541,-1.541,-1.541,-1.541,-1.541,-1.541,-1.541,-1.541,-1.541,-1.541,-1.541,-1.541,-1.541,-1.5547,-1.6269,-1.6904,-1.7441,-1.7705,-1.7773,-1.7812,-1.7969,-1.8008,-1.8008,-1.8008,-1.8008,-1.8008,-1.8008,-1.8008,-1.8008,-1.8008,-1.8008,-1.8008,-1.8008,0.0,-1.8008,-1.8008,-1.8232,-1.8457,-1.8553,-1.9248,-1.9736,-1.9902,-2.0312,-2.0566,-2.0566,-2.0566,-2.0566,-2.0566,-2.0566,-2.0566,-2.0566,-2.126,-2.1719,-2.1885,-2.2305,-2.2725,-2.3135,-2.3135,-2.3135,-2.3135,-2.3135,-2.3135,-2.3135,-2.3135,-2.3135,-2.3193,-2.3896,-2.4277,-2.4482,-2.5205,-2.5586,-2.5742,-2.5742,-2.5742,-2.5742,-1.9798,-1.9798,-1.9798,-1.9798,-1.9798,-1.9798,-1.9798,-1.9798,-1.9798,-1.9798,-1.9798,-1.9798,-1.9798,-1.9798,-1.9798,-1.9798,-1.9798,-1.9798,-1.9798,-1.9798,-1.9579,-1.9097,-1.7907,-1.7146,-1.6866,-1.5921,-1.541,-1.541,-1.541,-1.541,-1.541,-1.541,-1.541,-1.541,-1.541,-1.541,-1.541,-1.541,-1.541,-1.541,-1.541,-1.541,-1.541,-1.541,-1.541,-1.541,-1.541,-1.541,-1.541,-1.541,-1.541,-1.541,-1.541,-1.5605,-1.5977,-1.6719,-1.7246,-1.7646,-1.793,-1.8008,-1.8008,-1.8008,-1.8008,-1.8008,-1.8008,-1.8008,-1.8008,-1.8008,-1.8008,-1.8008,-1.8008,-1.8008,-1.8008,-1.8008,-1.8008,-1.8008,-1.8008,-1.8369,-1.8621,-1.8828,-1.9473,-1.9971,-2.0107,-2.0391,-2.0566,-2.0566,-2.0566,-2.0566,-2.0566,-2.0566,-2.0635,-2.0771,-2.1494,-2.1953,-2.208,-2.25,-2.2852,-2.3135,-2.3135,-2.3135,-2.3135,-2.3135,-2.3135,-2.3135,-2.3135,-2.3135,-2.3203,-2.4062,-2.4414,-2.4502,-2.5391,-2.5742,-2.5742,-2.5742,-2.5742,-2.5742,-1.9798,-1.9798,-1.9798,-1.9798,-1.9798,-1.9798,-1.9798,-1.9798,-1.9798,-1.9798,-1.9798,-1.9798,-1.9798,-1.9798,-1.9798,-1.9798,-1.9798,-1.9798,-1.9798,-1.9798,-1.9798,-1.9798,-1.7688,-1.6866,-1.7578,-1.613,-1.541,-1.541,-1.541,-1.541,-1.541,-1.541,-1.541,-1.541,-1.541,-1.541,-1.541,-1.541,-1.541,-1.541,-1.541,-1.541,-1.541,-1.541,-1.541,-1.541,-1.541,-1.541,-1.541,-1.541,-1.541,-1.541,-1.542,-1.6025,-1.6826,-1.7256,-1.7676,-1.8008,-1.8008,-1.8008,-1.8008,-1.8008,-1.8008,-1.8008,-1.8008,-1.8008,-1.8008,-1.8008,-1.8008,-1.8008,-1.8008,-1.8008,-1.8008,-1.8008,-1.8008,-1.8008,-1.8018,-1.8379,-1.8799,-1.9238,-1.9668,-2.0088,-2.0518,-2.0566,-2.0566,-2.0566,-2.0566,-2.0566,-2.0566,-2.0566,-2.0771,-2.1221,-2.166,-2.209,-2.251,-2.293,-2.3135,-2.3135,-2.3135,-2.3135,-2.3135,-2.3135,-2.3135,-2.3135,-2.3135,-2.3135,-2.3203,-2.4062,-2.4414,-2.4502,-2.5391,-2.5742,-2.5742,-2.5742,-2.5742,-2.5742,-1.9798,-1.9798,-1.9798,-1.9798,-1.9798,-1.9798,-1.9798,-1.9798,-1.9798,-1.9798,-1.9798,-1.9798,-1.9798,-1.9798,-1.9798,-1.9798,-1.9798,-1.9798,-1.9798,-1.9798,-1.9579,-1.9032,-1.8394,-1.7895,-1.7633,-1.6641,-1.5921,-1.541,-1.541,-1.541,-1.541,-1.541,-1.541,-1.541,-1.541,-1.541,-1.541,-1.541,-1.541,-1.541,-1.541,-1.541,-1.541,-1.541,-1.541,-1.541,-1.541,-1.541,-1.541,-1.541,-1.541,-1.5469,-1.5771,-1.6475,-1.7217,-1.7344,-1.7676,-1.8008,-1.8008,-1.8008,-1.8008,-1.8008,-1.8008,-1.8008,-1.8008,-1.8008,-1.8008,-1.8008,-1.8008,-1.8008,-1.8008,-1.8008,-1.8008,-1.8008,-1.8008,-1.8115,-1.8408,-1.8818,-1.9258,-1.9678,-2.0107,-2.042,-2.0557,-2.0566,-2.0566,-2.0566,-2.0566,-2.0566,-2.0566,-2.0566,-2.0771,-2.1221,-2.166,-2.209,-2.251,-2.293,-2.3135,-2.3135,-2.3135,-2.3135,-2.3135,-2.3135,-2.3135,-2.3135,-2.3135,-2.3135,-2.3203,-2.4062,-2.4414,-2.4502,-2.5391,-2.5742,-2.5742,-2.5742,-2.5742,-2.5742,-1.9747,-1.9579,-1.9371,-1.9371,-1.915,-1.8927,-1.8927,-1.9202,-1.9371,-1.9371,-1.9631,-1.9798,-1.9798,-1.9527,-1.9371,-1.9371,-1.9097,-1.8927,-1.8927,-1.8927,-1.8715,-1.8274,-1.8286,-1.7907,-1.7191,-1.6708,-1.6151,-1.541,-1.541,-1.541,-1.541,-1.541,-1.541,-1.541,-1.541,-1.541,-1.541,-1.541,-1.541,-1.541,-1.541,-1.541,-1.541,-1.541,-1.541,-1.541,-1.541,-1.541,-1.541,-1.541,-1.5527,-1.5781,-1.6396,-1.6953,-1.7422,-1.7578,-1.7812,-1.8008,-1.8008,-1.8008,-1.8008,-1.8008,-1.8008,-1.8008,-1.8008,-1.8008,-1.8008,-1.8008,-1.8008,-1.8008,-1.8008,-1.8008,-1.8008,-1.8008,-1.8008,-1.8154,-1.8504,-1.9014,-1.9443,-1.9863,-2.0303,-2.0566,-2.0566,-2.0566,-2.0566,-2.0566,-2.0566,-2.0566,-2.0566,-2.0566,-2.085,-2.1475,-2.1748,-2.2168,-2.2754,-2.3018,-2.3135,-2.3135,-2.3135,-2.3135,-2.3135,-2.3135,-2.3135,-2.3135,-2.3135,-2.3135,-2.3203,-2.4062,-2.4414,-2.4502,-2.5391,-2.5742,-2.5742,-2.5742,-2.5742,-2.5742,-1.9475,-1.9044,-1.8608,-1.8608,-1.807,-1.7578,-1.7578,-1.8178,-1.8608,-1.8608,-1.9202,-1.9579,-1.9579,-1.9044,-1.8661,-1.8608,-1.8015,-1.7578,-1.7578,-1.7578,-1.7578,-1.7523,-1.7578,-1.7246,-1.6549,-1.6492,-1.6151,-1.541,-1.541,-1.541,-1.541,-1.541,-1.541,-1.541,-1.541,-1.541,-1.541,-1.541,-1.541,-1.541,-1.541,-1.541,-1.541,-1.541,-1.541,-1.541,-1.541,-1.5439,-1.5478,-1.5518,-1.582,-1.6318,-1.7129,-1.7412,-1.7519,-1.79,-1.8008,-1.8008,-1.8008,-1.8008,-1.8008,-1.8008,-1.8008,-1.8008,-1.8008,-1.8008,-1.8008,-1.8008,-1.8008,-1.8008,-1.8008,-1.8008,-1.8008,-1.8008,-1.8047,-1.8213,-1.8633,-1.9072,-1.9502,-1.9922,-2.0322,-2.0566,-2.0566,-2.0566,-2.0566,-2.0566,-2.0566,-2.0566,-2.0566,-2.0566,-2.0977,-2.1855,-2.1885,-2.2295,-2.3135,-2.3135,-2.3135,-2.3135,-2.3135,-2.3135,-2.3135,-2.3135,-2.3135,-2.3135,-2.3135,-2.3164,-2.3262,-2.4082,-2.4443,-2.456,-2.541,-2.5742,-2.5742,-2.5742,-2.5742,-2.5742,-1.807,-1.7961,-1.7852,-1.7852,-1.7688,-1.7578,-1.7578,-1.7743,-1.7852,-1.7852,-1.7961,-1.8058,-1.8058,-1.8447,-1.8447,-1.7907,-1.7677,-1.7578,-1.7578,-1.7578,-1.7357,-1.6765,-1.7302,-1.7246,-1.6549,-1.6492,-1.6151,-1.541,-1.541,-1.541,-1.541,-1.541,-1.541,-1.541,-1.541,-1.541,-1.541,-1.541,-1.541,-1.541,-1.541,-1.541,-1.541,-1.541,-1.541,-1.541,-1.541,-1.5635,-1.5977,-1.6328,-1.6738,-1.7129,-1.7324,-1.7607,-1.7891,-1.7978,-1.8008,-1.8008,-1.8008,-1.8008,-1.8008,-1.8008,-1.8008,-1.8008,-1.8008,-1.8008,-1.8008,-1.8008,-1.8008,-1.8008,-1.8008,-1.8008,-1.8008,-1.8008,-1.8281,-1.8652,-1.9082,-1.9512,-1.9941,-2.0371,-2.0508,-2.0566,-2.0566,-2.0566,-2.0566,-2.0566,-2.0566,-2.0566,-2.0566,-2.0566,-2.0977,-2.1855,-2.1885,-2.2295,-2.3135,-2.3135,-2.3135,-2.3135,-2.3135,-2.3135,-2.3135,-2.3135,-2.3135,-2.3135,-2.3135,-2.333,-2.3691,-2.4199,-2.4619,-2.498,-2.5527,-2.5742,-2.5742,-2.5742,-2.5742,-2.5742,-1.7523,-1.7302,-1.709,-1.709,-1.68,-1.6528,-1.6528,-1.6866,-1.709,-1.709,-1.7357,-1.7578,-1.7578,-1.7633,-1.7357,-1.6631,-1.6528,-1.6528,-1.6528,-1.6528,-1.6358,-1.5979,-1.6358,-1.6358,-1.5979,-1.5979,-1.5979,-1.5921,-1.5584,-1.541,-1.541,-1.541,-1.541,-1.541,-1.541,-1.541,-1.541,-1.541,-1.541,-1.541,-1.541,-1.541,-1.541,-1.541,-1.541,-1.5439,-1.5644,-1.6006,-1.6383,-1.6343,-1.6777,-1.7346,-1.7121,-1.7184,-1.7354,-1.7354,-1.7354,-1.7354,-1.7354,-1.7647,-1.7872,-1.7432,-1.7647,-1.8008,-1.8008,-1.8008,-1.8008,-1.8008,-1.7647,-1.7354,-1.7354,-1.7354,-1.7354,-1.7354,-1.8062,-1.8789,-1.9228,-1.9648,-2.0078,-2.0508,-2.0566,-2.0566,-2.0566,-2.0566,-2.0566,-2.0566,-2.0566,-2.0566,-2.0566,-2.0566,-2.0977,-2.1855,-2.1885,-2.2295,-2.3135,-2.3135,-2.3135,-2.3135,-2.3135,-2.3135,-2.3135,-2.3135,-2.3135,-2.3135,-2.3135,-2.3389,-2.3828,-2.4248,-2.4668,-2.5117,-2.5566,-2.5742,-2.5742,-2.5742,-2.5742,-2.5742,-1.7079,-1.6754,-1.6322,-1.6322,-1.5806,-1.541,-1.541,-1.5921,-1.6322,-1.6322,-1.6856,-1.7246,-1.7246,-1.6698,-1.6151,-1.5633,-1.5468,-1.541,-1.541,-1.541,-1.541,-1.541,-1.541,-1.5468,-1.5584,-1.5468,-1.569,-1.6322,-1.569,-1.541,-1.541,-1.541,-1.541,-1.541,-1.541,-1.541,-1.541,-1.541,-1.541,-1.541,-1.541,-1.541,-1.541,-1.541,-1.5459,-1.5566,-1.5928,-1.6325,-1.65,-1.5945,-1.6425,-1.7197,-1.6743,-1.6636,-1.6636,-1.6636,-1.6498,-1.6349,-1.6349,-1.707,-1.7579,-1.6576,-1.7217,-1.794,-1.7794,-1.7862,-1.8008,-1.8008,-1.7285,-1.6636,-1.6636,-1.6498,-1.6446,-1.6657,-1.7736,-1.8682,-1.9336,-1.9756,-2.0156,-2.0518,-2.0566,-2.0566,-2.0323,-2.0479,-2.0566,-2.0566,-2.0566,-2.0566,-2.0566,-2.0566,-2.0977,-2.1855,-2.1885,-2.2295,-2.3135,-2.3135,-2.3135,-2.3135,-2.3135,-2.3135,-2.3135,-2.3135,-2.3135,-2.3135,-2.3135,-2.3428,-2.3926,-2.4277,-2.4717,-2.5215,-2.5596,-2.5742,-2.5742,-2.5742,-2.5742,-2.5742,-1.569,-1.5642,-1.5526,-1.5526,-1.5468,-1.541,-1.541,-1.5468,-1.5526,-1.5526,-1.5633,-1.569,-1.569,-1.5633,-1.5758,-1.6312,-1.5758,-1.541,-1.541,-1.541,-1.541,-1.541,-1.541,-1.569,-1.6322,-1.5748,-1.5468,-1.5526,-1.5468,-1.541,-1.541,-1.541,-1.541,-1.541,-1.541,-1.541,-1.541,-1.541,-1.541,-1.541,-1.541,-1.541,-1.541,-1.541,-1.5644,-1.6037,-1.6105,-1.605,-1.5954,-1.5453,-1.5931,-1.6711,-1.6618,-1.6636,-1.6636,-1.6636,-1.6009,-1.5376,-1.5376,-1.6079,-1.6567,-1.5658,-1.6724,-1.7794,-1.6991,-1.7432,-1.8008,-1.8008,-1.7285,-1.6636,-1.6636,-1.593,-1.5769,-1.6893,-1.7588,-1.8443,-1.9616,-2.0205,-2.0498,-2.0557,-2.0566,-2.0245,-1.9283,-2.0079,-2.0566,-2.0566,-2.0566,-2.0566,-2.0566,-2.0566,-2.0977,-2.1855,-2.1885,-2.2295,-2.3135,-2.3135,-2.3135,-2.3135,-2.3135,-2.3135,-2.3135,-2.3135,-2.3135,-2.3135,-2.3135,-2.3594,-2.4336,-2.4394,-2.4902,-2.5654,-2.5713,-2.5742,-2.5742,-2.5742,-2.5742,-2.5742,-1.541,-1.541,-1.541,-1.541,-1.541,-1.541,-1.541,-1.541,-1.541,-1.541,-1.541,-1.541,-1.541,-1.541,-1.5526,-1.5864,-1.5584,-1.541,-1.541,-1.541,-1.541,-1.541,-1.541,-1.5526,-1.5864,-1.5584,-1.541,-1.541,-1.541,-1.541,-1.541,-1.541,-1.541,-1.541,-1.541,-1.541,-1.541,-1.541,-1.541,-1.541,-1.541,-1.5557,-1.5771,-1.5771,-1.6055,-1.6403,-1.61,-1.6092,-1.6118,-1.4822,-1.5021,-1.579,-1.579,-1.5438,-1.5084,-1.5649,-1.5155,-1.4378,-1.4378,-1.5092,-1.5579,-1.4593,-1.5376,-1.6298,-1.5939,-1.6567,-1.7354,-1.7872,-1.6862,-1.6,-1.6498,-1.5367,-1.4784,-1.608,-1.7211,-1.8145,-1.8928,-1.9889,-2.0401,-1.9766,-1.9116,-1.855,-1.8069,-1.9036,-1.9432,-1.8789,-1.9913,-2.0323,-1.9756,-1.9813,-2.0548,-2.1865,-2.1493,-2.1807,-2.3135,-2.3135,-2.3135,-2.3135,-2.3135,-2.3135,-2.3135,-2.3135,-2.3135,-2.3135,-2.3135,-2.3623,-2.4414,-2.4414,-2.4941,-2.5742,-2.5742,-2.5742,-2.5742,-2.5742,-2.5742,-2.5742]}]]